[[{"header":{"parameterUnit":"m.s-1","parameterCategory":1,"la1":30.6,"la2":28.766,"lo1":-90.7593,"lo2":-88.6598,"dy":0.0162,"dx":0.0183,"nx":116,"ny":114,"refTime":"2023-04-30T12:00:00:Z","depth":0,"parameterNumber":2,"parameterNumberName":"U-component_of_WINDS"},"data":[0.0,0.0,0.0,0.0,0.0,0.0,0.0,0.0,0.0,0.0,0.0,0.0,0.0,0.0,0.0,0.0,0.0,0.0,0.0,0.0,0.0,0.0,0.0,0.0,0.0,0.0,0.0,0.0,0.0,0.0,0.0,0.0,0.0,0.0,0.0,0.0,0.0,0.0,0.0,0.0,0.0,0.0,0.0,0.0,0.0,0.0,0.0,0.0,0.0,0.0,0.0,0.0,0.0,0.0,0.0,0.0,0.0,0.0,0.0,0.0,0.0,0.0,0.0,0.0,0.0,0.0,0.0,0.0,0.0,0.0,0.0,0.0,0.0,0.0,0.0,0.0,0.0,0.0,0.0,0.0,0.0,0.0,0.0,0.0,0.0,0.0,0.0,0.0,0.0,0.0,0.0,0.0,0.0,0.0,0.0,0.0,0.0,0.0,0.0,0.0,0.0,0.0,0.0,0.0,0.0,0.0,0.0,0.0,0.0,0.0,0.0,0.0,0.0,0.0,0.0,0.0,0.0,0.0,0.0,0.0,0.0,0.0,0.0,0.0,0.0,0.0,0.0,0.0,0.0,0.0,0.0,0.0,0.0,0.0,0.0,0.0,0.0,0.0,0.0,0.0,0.0,0.0,0.0,0.0,0.0,0.0,0.0,0.0,0.0,0.0,0.0,0.0,0.0,0.0,0.0,0.0,0.0,0.0,0.0,0.0,0.0,0.0,0.0,0.0,0.0,0.0,0.0,0.0,0.0,0.0,0.0,0.0,0.0,0.0,0.0,0.0,0.0,0.0,0.0,0.0,0.0,0.0,0.0,0.0,0.0,0.0,0.0,0.0,0.0,0.0,0.0,0.0,0.0,0.0,0.0,0.0,0.0,0.0,0.0,0.0,0.0,0.0,0.0,0.0,0.0,0.0,0.0,0.0,0.0,0.0,0.0,0.0,0.0,0.0,0.0,0.0,0.0,0.0,0.0,0.0,0.0,0.0,0.0,0.0,0.0,0.0,0.0,0.0,0.0,0.0,0.0,0.0,0.0,0.0,0.0,0.0,0.0,0.0,0.0,0.0,0.0,0.0,0.0,0.0,0.0,0.0,0.0,0.0,0.0,0.0,0.0,0.0,0.0,0.0,0.0,0.0,0.0,0.0,0.0,0.0,0.0,0.0,0.0,0.0,0.0,0.0,0.0,0.0,0.0,0.0,0.0,0.0,0.0,0.0,0.0,0.0,0.0,0.0,0.0,0.0,0.0,0.0,0.0,0.0,0.0,0.0,0.0,0.0,0.0,0.0,0.0,0.0,0.0,0.0,0.0,0.0,0.0,0.0,0.0,0.0,0.0,0.0,0.0,0.0,0.0,0.0,0.0,0.0,0.0,0.0,0.0,0.0,0.0,0.0,0.0,0.0,0.0,0.0,0.0,0.0,0.0,0.0,0.0,0.0,0.0,0.0,0.0,0.0,0.0,0.0,0.0,0.0,0.0,0.0,0.0,0.0,0.0,0.0,0.0,0.0,0.0,0.0,0.0,0.0,0.0,0.0,0.0,0.0,0.0,0.0,0.0,0.0,0.0,0.0,0.0,0.0,0.0,0.0,0.0,0.0,0.0,0.0,0.0,0.0,0.0,0.0,0.0,0.0,0.0,0.0,0.0,0.0,0.0,0.0,0.0,0.0,0.0,0.0,0.0,0.0,0.0,0.0,0.0,0.0,0.0,0.0,0.0,0.0,0.0,0.0,0.0,0.0,0.0,0.0,0.0,0.0,0.0,0.0,0.0,0.0,0.0,0.0,0.0,0.0,0.0,0.0,0.0,0.0,0.0,0.0,0.0,0.0,0.0,0.0,0.0,0.0,0.0,0.0,0.0,0.0,0.0,0.0,0.0,0.0,0.0,0.0,0.0,0.0,0.0,0.0,0.0,0.0,0.0,0.0,0.0,0.0,0.0,0.0,0.0,0.0,0.0,0.0,0.0,0.0,0.0,0.0,0.0,0.0,0.0,0.0,0.0,0.0,0.0,0.0,0.0,0.0,0.0,0.0,0.0,0.0,0.0,0.0,0.0,0.0,0.0,0.0,0.0,0.0,0.0,0.0,0.0,0.0,0.0,0.0,0.0,0.0,0.0,0.0,0.0,0.0,0.0,0.0,0.0,0.0,0.0,0.0,0.0,0.0,0.0,0.0,0.0,0.0,0.0,0.0,0.0,0.0,0.0,0.0,0.0,0.0,0.0,0.0,0.0,0.0,0.0,0.0,0.0,0.0,0.0,0.0,0.0,0.0,0.0,0.0,0.0,0.0,0.0,0.0,0.0,0.0,0.0,0.0,0.0,0.0,0.0,0.0,0.0,0.0,0.0,0.0,0.0,0.0,0.0,0.0,0.0,0.0,0.0,0.0,0.0,0.0,0.0,0.0,0.0,0.0,0.0,0.0,0.0,0.0,0.0,0.0,0.0,0.0,0.0,0.0,0.0,0.0,0.0,0.0,0.0,0.0,0.0,0.0,0.0,0.0,0.0,0.0,0.0,0.0,0.0,0.0,0.0,0.0,0.0,0.0,0.0,0.0,0.0,0.0,0.0,0.0,0.0,0.0,0.0,0.0,0.0,0.0,0.0,0.0,0.0,0.0,0.0,0.0,0.0,0.0,0.0,0.0,0.0,0.0,0.0,0.0,0.0,0.0,0.0,0.0,0.0,0.0,0.0,0.0,0.0,0.0,0.0,0.0,0.0,0.0,0.0,0.0,0.0,0.0,0.0,0.0,0.0,0.0,0.0,0.0,0.0,0.0,0.0,0.0,0.0,0.0,0.0,0.0,0.0,0.0,0.0,0.0,0.0,0.0,0.0,0.0,0.0,0.0,0.0,0.0,0.0,0.0,0.0,0.0,0.0,0.0,0.0,0.0,0.0,0.0,0.0,0.0,0.0,0.0,0.0,0.0,0.0,0.0,0.0,0.0,0.0,0.0,0.0,0.0,0.0,0.0,0.0,0.0,0.0,0.0,0.0,0.0,0.0,0.0,0.0,0.0,0.0,0.0,0.0,0.0,0.0,0.0,0.0,0.0,0.0,0.0,0.0,0.0,0.0,0.0,0.0,0.0,0.0,0.0,0.0,0.0,0.0,0.0,0.0,0.0,0.0,0.0,0.0,0.0,0.0,0.0,0.0,0.0,0.0,0.0,0.0,0.0,0.0,0.0,0.0,0.0,0.0,0.0,0.0,0.0,0.0,0.0,0.0,0.0,0.0,0.0,0.0,0.0,0.0,0.0,0.0,0.0,0.0,0.0,0.0,0.0,0.0,0.0,0.0,0.0,0.0,0.0,0.0,0.0,0.0,0.0,0.0,0.0,0.0,0.0,0.0,0.0,0.0,0.0,0.0,0.0,0.0,0.0,0.0,0.0,0.0,0.0,0.0,0.0,0.0,0.0,0.0,0.0,0.0,0.0,0.0,0.0,0.0,0.0,0.0,0.0,0.0,0.0,0.0,0.0,0.0,0.0,0.0,0.0,0.0,0.0,0.0,0.0,0.0,0.0,0.0,0.0,0.0,0.0,0.0,0.0,0.0,0.0,0.0,0.0,0.0,0.0,0.0,0.0,0.0,0.0,0.0,0.0,0.0,0.0,0.0,0.0,0.0,0.0,0.0,0.0,0.0,0.0,0.0,0.0,0.0,0.0,0.0,0.0,0.0,0.0,0.0,0.0,0.0,0.0,0.0,0.0,0.0,0.0,0.0,0.0,0.0,0.0,0.0,0.0,0.0,0.0,0.0,0.0,0.0,0.0,0.0,0.0,0.0,0.0,0.0,0.0,0.0,0.0,0.0,0.0,0.0,0.0,0.0,0.0,0.0,0.0,0.0,0.0,0.0,0.0,0.0,0.0,0.0,0.0,0.0,0.0,0.0,0.0,0.0,0.0,0.0,0.0,0.0,0.0,0.0,0.0,0.0,0.0,0.0,0.0,0.0,0.0,0.0,0.0,0.0,0.0,0.0,0.0,0.0,0.0,0.0,0.0,0.0,0.0,0.0,0.0,0.0,0.0,0.0,0.0,0.0,0.0,0.0,0.0,0.0,0.0,0.0,0.0,0.0,0.0,0.0,0.0,0.0,0.0,0.0,0.0,0.0,0.0,0.0,0.0,0.0,0.0,0.0,0.0,0.0,0.0,0.0,0.0,0.0,0.0,0.0,0.0,0.0,0.0,0.0,0.0,0.0,0.0,0.0,0.0,0.0,0.0,0.0,0.0,0.0,0.0,0.0,0.0,0.0,0.0,0.0,0.0,0.0,0.0,0.0,0.0,0.0,0.0,0.0,0.0,0.0,0.0,0.0,0.0,0.0,0.0,0.0,0.0,0.0,0.0,0.0,0.0,0.0,0.0,0.0,0.0,0.0,0.0,0.0,0.0,0.0,0.0,0.0,0.0,0.0,0.0,0.0,0.0,0.0,0.0,0.0,0.0,0.0,0.0,0.0,0.0,0.0,0.0,0.0,0.0,0.0,0.0,0.0,0.0,0.0,0.0,0.0,0.0,0.0,0.0,0.0,0.0,0.0,0.0,0.0,0.0,0.0,0.0,0.0,0.0,0.0,0.0,0.0,0.0,0.0,0.0,0.0,0.0,0.0,0.0,0.0,0.0,0.0,0.0,0.0,0.0,0.0,0.0,0.0,0.0,0.0,0.0,0.0,0.0,0.0,0.0,0.0,0.0,0.0,0.0,0.0,0.0,0.0,0.0,0.0,0.0,0.0,0.0,0.0,0.0,0.0,0.0,0.0,0.0,0.0,0.0,0.0,0.0,0.0,0.0,0.0,0.0,0.0,0.0,0.0,0.0,0.0,0.0,0.0,0.0,0.0,0.0,0.0,0.0,0.0,0.0,0.0,0.0,0.0,0.0,0.0,0.0,0.0,0.0,0.0,0.0,0.0,0.0,0.0,0.0,0.0,0.0,0.0,0.0,0.0,0.0,0.0,0.0,0.0,0.0,0.0,0.0,0.0,0.0,0.0,0.0,0.0,0.0,0.0,0.0,0.0,0.0,0.0,0.0,0.0,0.0,0.0,0.0,0.0,0.0,0.0,0.0,0.0,0.0,0.0,0.0,0.0,0.0,0.0,0.0,0.0,0.0,0.0,0.0,0.0,0.0,0.0,0.0,0.0,0.0,0.0,0.0,0.0,0.0,0.0,0.0,0.0,0.0,0.0,0.0,0.0,0.0,0.0,0.0,0.0,0.0,0.0,0.0,0.0,0.0,0.0,0.0,0.0,0.0,0.0,0.0,0.0,0.0,0.0,0.0,0.0,0.0,0.0,0.0,0.0,0.0,0.0,0.0,0.0,0.0,0.0,0.0,0.0,0.0,0.0,0.0,0.0,0.0,0.0,0.0,0.0,0.0,0.0,0.0,0.0,0.0,0.0,0.0,0.0,0.0,0.0,0.0,0.0,0.0,0.0,0.0,0.0,0.0,0.0,0.0,0.0,0.0,0.0,0.0,0.0,0.0,0.0,0.0,0.0,0.0,0.0,0.0,0.0,0.0,0.0,0.0,0.0,0.0,0.0,0.0,0.0,0.0,0.0,0.0,0.0,0.0,0.0,0.0,0.0,0.0,0.0,0.0,0.0,0.0,0.0,0.0,0.0,0.0,0.0,0.0,0.0,0.0,0.0,0.0,0.0,0.0,0.0,0.0,0.0,0.0,0.0,0.0,0.0,0.0,0.0,0.0,0.0,0.0,0.0,0.0,0.0,0.0,0.0,0.0,0.0,0.0,0.0,0.0,0.0,0.0,0.0,0.0,0.0,0.0,0.0,0.0,0.0,0.0,0.0,0.0,0.0,0.0,0.0,0.0,0.0,0.0,0.0,0.0,0.0,0.0,0.0,0.0,0.0,0.0,0.0,0.0,0.0,0.0,0.0,0.0,0.0,0.0,0.0,0.0,0.0,0.0,0.0,0.0,0.0,0.0,0.0,0.0,0.0,0.0,0.0,0.0,0.0,0.0,0.0,0.0,0.0,0.0,0.0,0.0,0.0,0.0,0.0,0.0,0.0,0.0,0.0,0.0,0.0,0.0,0.0,0.0,0.0,0.0,0.0,0.0,0.0,0.0,0.0,0.0,0.0,0.0,0.0,0.0,0.0,0.0,1.3367,0.0,0.0,0.0,0.0,0.0,0.0,0.0,0.0,0.0,0.0,0.0,0.0,0.0,0.0,0.0,0.0,0.0,0.0,0.0,0.0,0.0,0.0,0.0,0.0,0.0,0.0,0.0,0.0,0.0,0.0,0.0,0.0,0.0,0.0,0.0,0.0,0.0,0.0,0.0,0.0,0.0,0.0,0.0,0.0,0.0,0.0,0.0,0.0,0.0,0.0,0.0,0.0,0.0,0.0,0.0,0.0,0.0,0.0,0.0,0.0,0.0,0.0,0.0,0.0,0.0,0.0,0.0,0.0,0.0,0.0,0.0,0.0,0.0,0.0,0.0,0.0,0.0,0.0,0.0,0.0,0.0,0.0,0.0,0.0,0.0,0.0,0.0,0.0,0.0,0.0,0.0,0.0,0.0,0.0,0.0,0.0,0.0,0.0,0.0,0.0,0.0,0.0,0.0,0.0,0.0,0.0,0.0,0.0,0.0,0.0,0.0,0.0,0.0,0.0,0.0,0.0,1.343,0.0,0.0,0.0,0.0,0.0,0.0,0.0,0.0,0.0,0.0,0.0,0.0,0.0,0.0,0.0,0.0,0.0,0.0,0.0,0.0,0.0,0.0,0.0,0.0,0.0,0.0,0.0,0.0,0.0,0.0,0.0,0.0,0.0,0.0,0.0,0.0,0.0,0.0,0.0,0.0,0.0,0.0,0.0,0.0,0.0,0.0,0.0,0.0,0.0,0.0,0.0,0.0,0.0,0.0,0.0,0.0,0.0,0.0,0.0,0.0,0.0,0.0,0.0,0.0,0.0,0.0,0.0,0.0,0.0,0.0,0.0,0.0,0.0,0.0,0.0,0.0,0.0,0.0,0.0,0.0,0.0,0.0,0.0,0.0,0.0,0.0,0.0,0.0,0.0,0.0,0.0,0.0,0.0,0.0,0.0,0.0,0.0,0.0,0.0,0.0,0.0,0.0,0.0,0.0,0.0,0.0,0.0,0.0,1.5339,1.5512,1.5991,1.5312,1.5282,1.5704,1.4059,1.361,1.3972,1.3302,0.0,0.0,0.0,0.0,0.0,0.0,0.0,0.0,0.0,0.0,0.0,0.0,0.0,0.0,0.0,0.0,0.0,0.0,0.0,0.0,0.0,0.0,0.0,0.0,0.0,0.0,0.0,0.0,0.0,0.0,0.0,0.0,0.0,0.0,0.0,0.0,0.0,0.0,0.0,0.0,0.0,0.0,0.0,0.0,0.0,0.0,0.0,0.0,0.0,0.0,0.0,0.0,0.0,0.0,0.0,0.0,0.0,0.0,0.0,0.0,0.0,0.0,0.0,0.0,0.0,0.0,0.0,0.0,0.0,0.0,0.0,0.0,0.0,0.0,0.0,0.0,0.0,0.0,0.0,0.0,0.0,0.0,0.0,0.0,0.0,0.0,1.3238,1.3873,0.0,0.0,0.0,0.0,0.0,0.0,0.0,0.0,0.0,0.0,0.0,0.0,0.0,1.415,1.4531,1.4949,1.5716,1.6736,1.6217,1.6437,1.7327,1.6357,1.5949,1.6039,1.537,0.0,1.4872,1.383,0.0,0.0,0.0,0.0,0.0,0.0,0.0,0.0,0.0,0.0,0.0,0.0,0.0,0.0,0.0,0.0,0.0,0.0,0.0,0.0,0.0,0.0,0.0,0.0,0.0,0.0,0.0,0.0,0.0,0.0,0.0,0.0,0.0,0.0,0.0,0.0,0.0,0.0,0.0,0.0,0.0,0.0,0.0,0.0,0.0,0.0,0.0,0.0,0.0,0.0,0.0,0.0,0.0,0.0,0.0,0.0,0.0,0.0,0.0,0.0,0.0,0.0,0.0,0.0,0.0,0.0,0.0,0.0,0.0,0.0,0.0,0.0,0.0,0.0,0.0,0.0,0.0,0.0,0.0,0.0,0.0,0.0,0.0,0.0,0.0,1.3478,1.3742,1.3334,1.3372,1.3286,0.0,0.0,0.0,0.0,0.0,0.0,0.0,0.0,0.0,1.4922,1.5127,1.543,1.5869,1.6064,1.6609,1.7536,1.7278,1.7504,1.8165,1.7721,1.7383,1.7129,1.609,1.5501,1.5156,1.4218,1.3613,1.3213,0.0,0.0,0.0,0.0,1.1514,1.0611,0.0,0.0,0.0,0.0,0.0,0.0,0.0,0.0,0.0,0.0,0.0,0.0,0.0,0.0,0.0,0.0,0.0,0.0,0.0,0.0,0.0,0.0,0.0,0.0,0.0,0.0,0.0,0.0,0.0,0.0,0.0,0.0,0.0,0.0,0.0,0.0,0.0,0.0,0.0,0.0,0.0,0.0,0.0,0.0,0.0,0.0,0.0,0.0,0.0,0.0,0.0,0.0,0.0,0.0,0.0,0.0,0.0,0.0,0.0,0.0,0.0,0.0,0.0,0.0,0.0,0.0,0.0,0.0,0.0,0.0,0.0,0.0,0.0,0.0,0.0,0.0,0.0,1.3782,1.4068,1.3036,1.3387,1.3494,0.0,0.0,0.0,0.0,0.0,0.0,1.4202,1.4525,1.5018,1.5591,1.5722,1.5974,1.6327,1.6438,1.6915,1.7694,1.7694,1.7909,1.8229,1.819,1.7975,1.7595,1.6455,1.572,1.5248,1.425,1.3645,1.3255,1.2958,1.2079,1.1108,1.1746,1.1331,1.0463,0.0,0.0,0.0,0.0,0.0,0.0,0.0,0.0,0.0,0.0,0.0,0.0,0.0,0.0,0.0,0.0,0.0,0.0,0.0,0.0,0.0,0.0,0.0,0.0,0.0,0.0,0.0,0.0,0.0,0.0,0.0,0.0,0.0,0.0,0.0,0.0,0.0,0.0,0.0,0.0,0.0,0.0,0.0,0.0,0.0,0.0,0.0,0.0,0.0,0.0,0.0,0.0,0.0,0.0,0.0,0.0,0.0,0.0,0.0,0.0,0.0,0.0,0.0,0.0,0.0,0.0,0.0,0.0,0.0,0.0,0.0,0.0,0.0,0.0,0.0,0.0,0.0,0.0,0.0,1.2978,1.3282,0.0,0.0,0.0,0.0,1.399,1.4473,1.4668,1.4488,1.4489,1.4405,1.4203,1.4628,1.5039,1.5463,1.5873,1.631,1.6768,1.6768,1.6967,1.7324,1.6959,1.6785,1.6752,1.6226,1.579,1.5284,1.3859,1.3,1.2623,1.2607,1.2165,1.1613,1.2295,1.1697,1.0676,0.0,0.0,0.0,0.0,0.0,0.0,0.0,0.0,0.0,0.0,0.0,0.0,0.0,0.0,0.0,0.0,0.0,0.0,0.0,0.0,0.0,0.0,0.0,0.0,0.0,0.0,0.0,0.0,0.0,0.0,0.0,0.0,0.0,0.0,0.0,0.0,0.0,0.0,0.0,0.0,0.0,0.0,0.0,0.0,0.0,0.0,0.0,0.0,0.0,0.0,0.0,0.0,0.0,0.0,0.0,0.0,0.0,0.0,0.0,0.0,0.0,0.0,0.0,0.0,0.0,0.0,0.0,0.0,0.0,0.0,0.0,0.0,0.0,0.0,0.0,0.0,0.0,0.0,0.0,1.3551,1.4478,0.0,1.3124,1.3705,1.3906,1.3434,1.4016,1.4459,1.4697,1.4947,1.5262,1.5756,1.591,1.6223,1.6591,1.6801,1.6924,1.7056,1.7056,1.713,1.7334,1.7113,1.6924,1.6686,1.5858,1.5312,1.479,1.3448,1.3095,1.3276,1.2765,1.2212,1.1655,1.1903,1.161,1.1089,0.0,0.0,0.0,0.0,0.0,0.0,0.0,0.0,0.0,0.0,0.0,0.0,0.0,0.0,0.0,0.0,0.0,0.0,0.0,0.0,0.0,0.0,0.0,0.0,0.0,0.0,0.0,0.0,0.0,0.0,0.0,0.0,0.0,0.0,0.0,0.0,0.0,0.0,0.0,0.0,0.0,0.0,2.0029,0.0,0.0,0.0,0.0,0.0,0.0,0.0,0.0,0.0,0.0,0.0,0.0,0.0,0.0,0.0,0.0,0.0,0.0,0.0,0.0,0.0,0.0,0.0,0.0,0.0,0.0,0.0,0.0,0.0,0.0,0.0,0.0,0.0,0.0,0.0,1.4828,1.3953,1.4781,1.4921,1.3545,1.409,1.4322,1.3894,1.4401,1.48,1.5052,1.5286,1.5545,1.5836,1.5993,1.617,1.6368,1.6484,1.6484,1.6368,1.6368,1.6368,1.6368,1.6252,1.6137,1.5932,1.519,1.4712,1.433,1.3482,1.3299,1.3592,1.2811,1.2248,1.1852,1.1852,1.1853,1.1844,0.0,0.0,0.0,0.0,0.0,0.0,0.0,0.0,0.0,0.0,0.0,0.0,0.0,0.0,0.0,0.0,0.0,0.0,0.0,0.0,0.0,0.0,0.0,0.0,0.0,0.0,0.0,0.0,0.0,0.0,0.0,0.0,0.0,0.0,0.0,0.0,0.0,0.0,0.0,0.0,0.0,0.0,2.1212,0.0,0.0,0.0,0.0,0.0,0.0,0.0,0.0,0.0,0.0,0.0,0.0,0.0,0.0,0.0,0.0,0.0,0.0,0.0,0.0,0.0,0.0,0.0,0.0,0.0,0.0,0.0,0.0,0.0,0.0,0.0,0.0,0.0,1.1241,1.3393,1.4567,1.4024,1.4095,1.4237,1.4281,1.4537,1.4885,1.5549,1.5682,1.5677,1.5455,1.5492,1.509,1.42,1.4669,1.4823,1.4536,1.4823,1.4823,1.4536,1.4522,1.4522,1.4509,1.4222,1.4242,1.4489,1.4208,1.4088,1.4062,1.3768,1.3559,1.3554,1.2672,1.2331,1.2325,1.2318,1.2498,1.2829,0.0,0.0,0.0,0.0,0.0,0.0,0.0,0.0,0.0,0.0,0.0,0.0,0.0,0.0,0.0,0.0,0.0,0.0,0.0,0.0,0.0,0.0,0.0,0.0,0.0,0.0,0.0,0.0,0.0,0.0,0.0,0.0,0.0,0.0,0.0,0.0,0.0,0.0,0.0,0.0,0.0,0.0,2.1327,0.0,0.0,0.0,0.0,0.0,0.0,0.0,0.0,0.0,0.0,0.0,0.0,0.0,0.0,0.0,0.0,0.0,0.0,0.0,0.0,0.0,0.0,0.0,0.0,0.0,0.0,0.0,0.0,0.0,0.0,0.0,0.0,1.1636,1.258,1.397,1.4961,1.4885,1.5959,1.6067,1.4552,1.5114,1.5352,1.4881,1.5099,1.5224,1.5136,1.5149,1.4974,1.4723,1.4877,1.4923,1.4843,1.4923,1.4923,1.4836,1.4623,1.4522,1.4509,1.4222,1.4128,1.4202,1.4122,1.4088,1.4062,1.3768,1.3559,1.3594,1.314,1.2959,1.2933,1.2705,1.2755,1.2729,0.0,0.0,0.0,0.0,0.0,0.0,0.0,0.0,0.0,0.0,0.0,0.0,0.0,0.0,0.0,0.0,0.0,0.0,0.0,0.0,0.0,0.0,0.0,0.0,0.0,0.0,0.0,0.0,0.0,0.0,0.0,0.0,0.0,0.0,0.0,0.0,0.0,0.0,0.0,0.0,0.0,0.0,2.2246,1.9131,1.7577,1.6699,1.4317,1.3478,1.3217,1.1499,0.0,0.0,0.0,0.0,0.0,0.0,0.0,0.0,0.0,0.0,0.0,0.0,0.0,0.0,0.0,0.0,0.0,0.0,0.0,0.0,0.0,0.0,0.0,0.0,1.1501,1.3358,1.4137,1.4852,1.5375,1.531,1.6038,1.6089,1.5134,1.5473,1.5534,1.5057,1.5117,1.5144,1.5144,1.5144,1.509,1.497,1.5197,1.5264,1.515,1.5264,1.5264,1.5144,1.497,1.455,1.397,1.3684,1.3293,1.285,1.2655,1.2607,1.2595,1.2439,1.2374,0.0,0.0,0.0,0.0,0.0,1.1994,1.1479,0.0,0.0,0.0,0.0,0.0,0.0,0.0,0.0,0.0,0.0,0.0,0.0,0.0,0.0,0.0,0.0,0.0,0.0,0.0,0.0,0.0,0.0,0.0,0.0,0.0,0.0,0.0,0.0,0.0,0.0,0.0,0.0,0.0,0.0,0.0,0.0,0.0,0.0,0.0,0.0,0.0,0.0,2.3114,1.9262,1.8196,1.8143,1.4414,1.2995,1.2533,1.0666,0.0,0.0,0.0,0.0,0.0,0.0,0.0,0.0,0.0,0.0,0.0,0.0,0.0,0.0,0.0,0.0,0.0,0.0,0.0,0.0,0.0,0.0,0.0,0.0,1.1897,1.3762,1.4766,1.5198,1.5399,1.5456,1.5126,1.5074,1.5778,1.5404,1.5358,1.5812,1.5591,1.5352,1.5252,0.0,0.0,0.0,0.0,1.522,1.4974,1.522,1.522,1.4968,1.4935,1.4222,1.2968,1.2701,1.2048,1.1059,1.0747,1.0651,1.0646,1.0621,1.0611,1.0742,1.2261,1.2881,1.2801,1.207,1.0919,0.9774,0.0,0.0,0.0,0.0,0.0,0.0,0.0,0.0,0.0,0.0,0.0,0.0,0.0,0.0,0.0,0.0,0.0,0.0,0.0,0.0,0.0,0.0,0.0,0.0,0.0,0.0,0.0,0.0,0.0,0.0,0.0,0.0,0.0,0.0,0.0,0.0,0.0,0.0,0.0,0.0,0.0,0.0,2.0929,1.8838,1.7145,1.5742,1.4236,1.3982,1.4134,1.2505,1.2187,1.2232,1.0725,0.0,0.0,0.0,0.0,0.0,0.0,0.0,0.0,0.0,0.0,0.0,0.0,0.0,0.0,0.0,0.0,0.0,0.0,0.0,0.0,0.5937,0.762,0.9242,0.9469,1.1288,1.3377,1.5435,1.4728,1.4545,1.5724,1.4804,1.4601,1.573,1.5778,1.5259,1.4285,1.4189,1.3689,1.2496,1.2576,1.2603,1.256,1.2603,1.2603,1.2555,0.0,0.0,1.1807,1.1579,1.1298,1.1101,1.089,1.0795,1.078,1.0599,1.0611,1.06,1.0947,1.0968,1.0746,1.0804,1.0488,1.0001,0.0,0.0,0.0,0.0,0.0,0.0,0.0,0.0,0.0,0.0,0.0,0.0,0.0,0.0,0.0,0.0,0.0,0.0,0.0,0.0,0.0,0.0,0.0,0.0,0.0,0.0,0.0,0.0,0.0,0.0,0.0,0.0,0.0,0.0,0.0,0.0,0.0,0.0,0.0,0.0,0.0,0.0,1.6413,1.7135,1.6277,1.4601,1.3677,1.3316,1.31,1.1166,1.0949,1.124,0.9867,0.8498,0.7343,0.0,0.0,0.0,0.0,0.0,0.0,0.0,0.0,0.0,0.0,0.0,0.0,0.0,0.0,0.5662,0.0,0.0,0.7426,0.7361,0.7695,0.7966,0.7966,0.917,1.0923,1.3584,1.3301,1.3108,1.3788,1.3301,1.3204,1.3788,1.3884,1.359,1.2909,1.2909,1.2619,1.1945,1.1945,1.1945,1.1945,1.1945,1.1945,1.1945,1.1732,1.1331,1.0654,1.0552,1.0081,0.9343,0.9255,0.9213,0.92,0.9012,0.9021,0.9013,0.8915,0.9169,0.9528,0.9712,0.9252,0.8582,0.0,0.0,0.0,0.0,0.0,0.0,0.0,0.0,0.0,0.0,0.0,0.0,0.0,0.0,0.0,0.0,0.0,0.0,0.0,0.0,0.0,0.0,0.0,0.0,0.0,0.0,0.0,0.0,0.0,0.0,0.0,0.0,0.0,0.0,0.0,0.0,0.0,0.0,0.0,0.0,0.0,0.0,1.2207,1.4741,1.4835,1.3413,1.2479,1.1872,1.1298,0.9427,0.9175,0.9476,0.8618,0.7578,0.6513,0.6227,0.5501,0.0,0.0,0.0,0.0,0.0,0.0,0.0,0.0,0.0,0.5777,0.6077,0.6112,0.6444,0.7576,0.7179,0.7358,0.9461,0.873,0.7983,0.796,0.797,0.8765,1.0867,1.1365,1.1653,1.1853,1.1653,1.1653,1.1848,1.1945,1.175,1.1556,1.156,1.1365,1.1165,1.1165,1.1165,1.1165,1.1165,1.1165,1.1165,1.1165,1.0595,0.9485,0.9485,0.8837,0.7685,0.7655,0.7624,0.759,0.7465,0.7414,0.7404,0.7278,0.7741,0.8589,0.8552,0.7925,0.7139,0.0,0.0,0.0,0.0,0.0,0.0,0.0,0.0,0.0,0.0,0.0,0.0,0.0,0.0,0.0,0.0,0.0,0.0,0.0,0.0,0.0,0.0,0.0,0.0,0.0,0.0,0.0,0.0,0.0,0.0,0.0,0.0,0.0,0.0,0.0,0.0,0.0,0.0,0.0,0.0,0.0,0.0,1.104,1.1968,1.1744,1.0744,1.0237,1.0007,0.9943,0.9697,0.9503,0.9333,0.9074,0.8146,0.7196,0.7003,0.0,0.4986,0.4599,0.4483,0.4732,0.5833,0.6488,0.6819,0.0,0.0,0.6865,0.6634,0.6959,0.7217,0.7176,0.7128,0.7292,0.8147,0.8115,0.8018,0.8028,0.8028,0.8131,0.8428,0.9509,1.0681,1.175,1.0877,1.0681,1.1848,1.1945,1.1365,1.0293,1.0194,0.9706,0.8432,0.8432,0.8432,0.8432,0.8432,0.8432,0.8432,0.8432,0.8326,0.8209,0.8209,0.8103,0.7984,0.7845,0.7716,0.7597,0.758,0.7573,0.757,0.7556,0.7557,0.751,0.7368,0.7228,0.7139,0.0,0.0,0.0,0.0,0.0,0.0,0.0,0.0,0.0,0.0,0.0,0.0,0.0,0.0,0.0,0.0,0.0,0.0,0.0,0.0,0.0,0.0,0.0,0.0,0.0,0.0,0.0,0.0,0.0,0.0,0.0,0.0,0.0,0.0,0.0,0.0,0.0,0.0,0.0,0.0,0.0,0.0,0.8882,0.8996,0.7939,0.6784,0.912,0.9011,0.0,0.0,0.8029,0.8859,0.818,0.7485,0.69,0.6717,0.527,0.0,0.4345,0.4507,0.0,0.0,0.7174,0.7064,0.7053,0.699,0.6993,0.7118,0.7326,0.7533,0.7529,0.761,0.7677,0.0,0.7997,0.8038,0.8038,0.8038,0.8038,0.8038,0.8531,0.9019,0.9608,0.9118,0.9019,0.9604,0.9604,0.9454,0.9067,0.8974,0.8813,0.8296,0.8218,0.8174,0.8174,0.8082,0.8038,0.8038,0.8038,0.8038,0.8038,0.8038,0.8038,0.8035,0.797,0.7913,0.7848,0.776,0.7723,0.7716,0.7631,0.756,0.7485,0.7333,0.7275,0.7261,0.0,0.0,0.0,0.0,0.0,0.0,0.0,0.0,0.0,0.0,0.0,0.0,0.0,0.0,0.0,0.0,0.0,0.0,0.0,0.0,0.0,0.0,0.0,0.0,0.0,0.0,0.0,0.0,0.0,0.0,0.0,0.0,0.0,0.0,0.0,0.0,0.0,0.0,0.0,0.0,0.0,0.0,0.6508,0.6967,0.6067,0.4936,0.7474,0.707,0.0,0.0,0.5683,0.6823,0.6131,0.579,0.5783,0.6154,0.4225,0.215,0.3043,0.0,0.0,0.7062,0.7477,0.7351,0.733,0.7248,0.7165,0.7516,0.7655,0.776,0.7865,0.797,0.8038,0.8038,0.8038,0.8038,0.8038,0.8038,0.8038,0.8038,0.8038,0.8038,0.8038,0.8038,0.8038,0.8038,0.8079,0.815,0.8265,0.8306,0.8377,0.8479,0.8343,0.8272,0.8272,0.8116,0.8041,0.8048,0.8048,0.8048,0.7952,0.7952,0.7952,0.7952,0.7952,0.7952,0.7945,0.7933,0.7889,0.7879,0.777,0.7706,0.7655,0.7536,0.7468,0.7411,0.0,0.0,0.0,0.0,0.0,0.0,0.0,0.0,0.0,0.0,0.0,0.0,0.0,0.0,0.0,0.0,0.0,0.0,0.0,0.0,0.0,0.0,0.0,0.0,0.0,0.0,0.0,0.0,0.0,0.0,0.0,0.0,0.0,0.0,0.0,0.0,0.0,0.0,0.0,0.0,0.0,0.0,0.4295,0.6346,0.7074,0.6678,0.4568,0.0,0.0,0.0,0.261,0.2452,0.2741,0.299,0.0,0.5705,0.3336,0.0,0.0,0.0,0.551,0.6162,0.719,0.7796,0.7269,0.7432,0.7764,0.7935,0.7962,0.7962,0.7965,0.7952,0.8038,0.8038,0.8038,0.8038,0.8038,0.8038,0.8038,0.8038,0.8038,0.8038,0.0,0.8038,0.8038,0.8038,0.8177,0.8265,0.8272,0.8401,0.8476,0.8482,0.8343,0.8272,0.8272,0.8116,0.7952,0.7972,0.7972,0.7979,0.7989,0.7989,0.7989,0.7989,0.7989,0.7989,0.7989,0.7982,0.7982,0.7979,0.7965,0.797,0.7938,0.7807,0.7709,0.757,0.0,0.0,0.0,0.0,0.0,0.0,0.0,0.0,0.0,0.0,0.0,0.0,0.0,0.0,0.0,0.0,0.0,0.0,0.0,0.0,0.0,0.0,0.0,0.0,0.0,0.0,0.0,0.0,0.0,0.0,0.0,0.0,0.0,0.0,0.0,0.0,0.0,0.0,0.0,0.0,0.0,0.0,0.6158,0.1278,-0.0626,-0.0592,0.0,0.0,0.0,0.0,-0.0624,-0.0728,-0.0574,0.0,0.0,0.1617,0.1121,-0.0,0.0,0.0,0.1839,0.2078,0.2445,0.3568,0.6973,0.6459,0.5271,0.5344,0.538,0.5893,0.7662,0.8012,0.803,0.8037,0.8032,0.8024,0.8024,0.8038,0.8038,0.8038,0.8038,0.0,0.0,0.0,0.0,0.8038,0.8184,0.8313,0.8408,0.8567,0.8595,0.8804,0.869,0.8567,0.8455,0.8099,0.7975,0.7985,0.6242,0.5329,0.5331,0.5331,0.5331,0.5331,0.5331,0.5331,0.5331,0.5331,0.5331,0.5331,0.5329,0.642,0.8007,0.7902,0.7868,0.7791,0.0,0.0,0.0,0.0,0.0,0.0,0.0,0.0,0.0,0.0,0.0,0.0,0.0,0.0,0.0,0.0,0.0,0.0,0.0,0.0,0.0,0.0,0.0,0.0,0.0,0.0,0.0,0.0,0.0,0.0,0.0,0.0,0.0,0.0,0.0,0.0,0.0,0.0,0.0,0.0,0.0,0.0,0.3787,-0.1604,-0.4053,0.0,0.0,0.0,0.0,0.0,0.0,0.0,-0.303,-0.3086,-0.2947,-0.1933,-0.0875,-0.0,-0.0,-0.0,-0.0,-0.0,-0.0,0.0877,0.4309,0.5316,0.486,0.3013,0.2573,0.3082,0.4863,0.5167,0.5729,0.7416,0.7861,0.7995,0.8014,0.8014,0.8021,0.8019,0.8029,0.813,0.0,0.0,0.0,0.7959,0.8143,0.8304,0.8503,0.8665,0.8243,0.732,0.731,0.7285,0.7072,0.676,0.7068,0.8002,0.4331,0.2614,0.2614,0.2614,0.2614,0.2614,0.2614,0.2614,0.2614,0.2614,0.2614,0.2614,0.2611,0.483,0.7899,0.6965,0.6553,0.6725,0.0,0.0,0.0,0.0,0.0,0.0,0.0,0.0,0.0,0.0,0.0,0.0,0.0,0.0,0.0,0.0,0.0,0.0,0.0,0.0,0.0,0.0,0.0,0.0,0.0,0.0,0.0,0.0,0.0,0.0,0.0,0.0,0.0,0.0,0.0,0.0,0.0,0.0,0.0,0.0,0.0,0.0,-0.2333,-0.2318,0.0,0.0,0.0,0.0,0.0,0.0,0.0,0.0,0.0,-0.4709,-0.4887,-0.4616,-0.2439,-0.017,-0.0338,-0.0175,-0.0,-0.0,-0.0,-0.0,-0.0,0.3975,0.6147,0.1048,-0.0,-0.0,0.0,0.0,0.1485,0.5962,0.7212,0.7615,0.7611,0.7684,0.7803,0.0,0.0,0.0,0.0,0.0,0.0,0.8019,0.0,0.7912,0.8236,0.871,0.7672,0.4796,0.4427,0.424,0.4236,0.3954,0.5035,0.751,0.2424,-0.0,-0.0,-0.0,-0.0,-0.0,-0.0,-0.0,-0.0,-0.0,-0.0,-0.0,-0.0,0.3123,0.7299,0.4933,0.4017,0.441,0.0,0.0,0.0,0.0,0.0,0.0,0.0,0.0,0.0,0.0,0.0,0.0,0.0,0.0,0.0,0.0,0.0,0.0,0.0,0.0,0.0,0.0,0.0,0.0,0.0,0.0,0.0,0.0,0.0,0.0,0.0,0.0,0.0,0.0,0.0,0.0,0.0,0.0,0.0,0.0,0.0,0.0,-0.3921,0.0,0.0,0.0,0.0,0.0,0.0,0.0,0.0,0.0,0.0,-0.4923,-0.5027,-0.4852,-0.3269,-0.2295,-0.5172,-0.3067,-0.0,-0.0,-0.0,-0.0,-0.0,0.1059,0.1674,0.0269,-0.0,-0.0,0.0,0.0,0.0,0.1611,0.193,0.0,0.2029,0.3777,0.0,0.5047,0.0,0.8161,0.8381,0.821,0.0,0.0,0.6112,0.509,0.5092,0.7523,0.8575,0.7801,0.3425,0.1156,0.114,0.1017,0.1412,0.2019,0.0606,-0.0,-0.0,-0.0,-0.0,-0.0,-0.0,-0.0,-0.0,-0.0,-0.0,-0.0,-0.0,0.0807,0.2221,0.3536,0.4041,0.414,0.0,0.0,0.0,0.0,0.0,0.0,0.0,0.0,0.0,0.0,0.0,0.0,0.0,0.0,0.0,0.0,0.0,0.0,0.0,0.0,0.0,0.0,0.0,0.0,0.0,0.0,0.0,0.0,0.0,0.0,0.0,0.0,0.0,0.0,0.0,0.0,0.0,0.0,0.0,0.0,0.0,0.0,0.0,0.0,0.0,0.0,0.0,0.0,0.0,0.0,0.0,-0.4942,-0.5213,-0.5437,-0.5538,-0.5235,0.0,-0.4743,-0.7272,-0.583,-0.2981,-0.0602,-0.0,-0.0,-0.0,-0.0,-0.0,-0.0,-0.0,0.0,0.0,0.0,0.0,0.0,0.0,0.0,-0.0,0.1335,0.2276,0.0,0.3546,0.0,0.8006,0.8402,0.8336,0.0,0.4479,0.2292,0.2292,0.3972,0.4962,0.4988,0.1702,-0.0,-0.0,-0.0,-0.0,-0.0,-0.0,-0.0,-0.0,-0.0,-0.0,-0.0,0.0,-0.0,-0.0,-0.0,-0.0,-0.0,-0.0,-0.0,0.0202,0.1718,0.2224,0.2224,0.0,0.0,0.0,0.0,0.0,0.0,0.0,0.0,0.0,0.0,0.0,0.0,0.0,0.0,0.0,0.0,0.0,0.0,0.0,0.0,0.0,0.0,0.0,0.0,0.0,0.0,0.0,0.0,0.0,0.0,0.0,0.0,0.0,0.0,0.0,0.0,0.0,0.0,0.0,0.0,0.0,0.0,0.0,0.0,0.0,0.0,0.0,0.0,0.0,0.0,-0.5146,-0.5287,-0.5728,-0.6146,-0.626,-0.5846,-0.6178,-0.6901,-0.7727,-0.8011,-0.6782,-0.191,-0.0595,-0.0387,-0.0372,-0.0178,-0.0,-0.0,0.0,-0.0,-0.0,-0.0,-0.0,-0.0,0.0,-0.0,-0.0,-0.0,-0.0,-0.0,-0.0,0.1862,0.6496,0.8162,0.8351,0.6995,0.266,-0.0,-0.0,-0.0,-0.0,-0.0,-0.0,-0.0,-0.0,-0.0,-0.0,-0.0,-0.0,-0.0,-0.0,-0.0,-0.0,-0.0,-0.0,0.0,-0.0,-0.0,-0.0,-0.0,-0.0,-0.0,-0.0,-0.0,-0.0,-0.0,0.0,0.0,0.0,0.0,0.0,0.0,0.0,0.0,0.0,0.0,-0.6979,-0.6979,0.0,0.0,0.0,0.0,0.0,0.0,0.0,0.0,0.0,0.0,0.0,0.0,0.0,0.0,0.0,0.0,0.0,0.0,0.0,0.0,0.0,0.0,0.0,0.0,0.0,0.0,0.0,0.0,0.0,0.0,0.0,0.0,0.0,0.0,0.0,0.0,0.0,0.0,-0.5527,-0.5762,-0.6224,-0.6607,-0.6864,-0.6955,-0.7048,-0.7217,-0.7813,-0.8045,-0.7466,-0.5022,-0.3523,-0.255,-0.2268,-0.1099,0.0,0.0,0.0,-0.0,-0.0,-0.0,0.0,-0.0,0.0,0.0,0.0,0.0,-0.0,0.0,0.0,0.0,0.0,0.0,0.0,0.0,0.0,-0.0,-0.0,-0.0,-0.0,-0.0,-0.0,-0.0,-0.0,-0.0,-0.0,-0.0,-0.0,-0.0,-0.0,-0.0,-0.0,-0.0,-0.0,0.0,-0.0,-0.0,-0.0,-0.0,-0.0,-0.0,-0.0,-0.0,-0.0,-0.0,0.0,0.0,0.0,0.0,0.0,0.0,0.0,0.0,0.0,-0.8731,-0.8731,-0.8285,0.0,0.0,0.0,0.0,0.0,0.0,0.0,0.0,0.0,0.0,0.0,0.0,0.0,0.0,0.0,0.0,0.0,0.0,0.0,0.0,0.0,0.0,0.0,0.0,0.0,0.0,0.0,0.0,0.0,0.0,0.0,0.0,0.0,0.0,0.0,0.0,0.0,0.0,-0.5225,-0.5745,-0.6448,-0.687,-0.7223,-0.763,-0.763,-0.763,-0.7939,-0.7955,-0.7749,-0.6863,-0.5741,-0.4915,-0.4658,0.0,0.0,0.0,0.0,-0.2804,-0.2804,0.0,0.0,0.0,0.0,0.0,0.0,0.0,0.0,0.0,0.0,0.0,0.0,0.0,0.0,0.0,0.0,-0.0,-0.0,-0.0,-0.0,-0.0,-0.0,-0.0,-0.0,-0.0,-0.0,-0.0,-0.0,-0.0,-0.0,-0.0,-0.0,-0.0,-0.0,0.0,-0.0,-0.0,-0.0,-0.0,-0.0,-0.0,-0.0,-0.0,-0.0,-0.0,0.0,0.0,0.0,0.0,0.0,0.0,0.0,-1.0283,-1.0283,-1.0283,-0.9873,-0.8933,-0.7182,-0.6979,-0.6979,0.0,0.0,0.0,0.0,0.0,0.0,0.0,0.0,0.0,0.0,0.0,0.0,0.0,0.0,0.0,0.0,0.0,0.0,0.0,0.0,0.0,0.0,0.0,0.0,0.0,0.0,0.0,0.0,0.0,0.0,0.0,0.0,0.0,0.0,0.0,-0.5545,-0.5788,-0.6533,-0.701,-0.7295,-0.7637,-0.7879,-0.8021,-0.7963,-0.8021,-0.7928,-0.7774,-0.73,-0.677,-0.6443,-0.5983,0.0,0.0,-0.5389,-0.547,-0.5575,0.0,0.0,0.0,0.0,0.0,0.0,0.0,0.0,0.0,0.0,0.0,0.0,0.0,0.0,0.0,0.0,0.0,-0.0,-0.0,-0.0,-0.0,-0.0,-0.0,-0.0,-0.0,-0.0,-0.0,-0.0,-0.0,-0.0,-0.0,-0.0,-0.0,-0.0,0.0,0.0,-0.0,-0.0,-0.0,-0.0,-0.0,-0.0,-0.0,-0.0,-0.0,0.0,0.0,0.0,0.0,0.0,0.0,0.0,-1.0283,-1.0283,-1.0283,-0.8569,-0.7224,-0.7021,-0.6979,-0.6979,0.0,0.0,0.0,0.0,0.0,0.0,0.0,0.0,0.0,0.0,0.0,0.0,0.0,0.0,0.0,0.0,0.0,0.0,0.0,0.0,0.0,0.0,0.0,0.0,0.0,0.0,0.0,0.0,0.0,0.0,0.0,0.0,0.0,0.0,0.0,0.0,-0.6497,-0.6578,-0.6718,-0.681,-0.6989,0.0,0.0,-0.7818,-0.7902,-0.8004,-0.7851,-0.757,-0.7222,-0.6884,0.0,0.0,-0.5533,-0.5372,-0.5561,-0.613,-0.6026,0.0,0.0,0.0,0.0,0.0,0.0,0.0,0.0,0.0,0.0,0.0,0.0,0.0,0.0,0.0,0.0,-0.0,-0.0,-0.0,-0.0,-0.0,-0.0,-0.0,-0.0,-0.0,-0.0,-0.0,-0.0,-0.0,-0.0,-0.0,-0.0,-0.0,0.0,0.0,-0.0,-0.0,-0.0,-0.0,-0.0,-0.0,-0.0,-0.0,-0.0,0.0,0.0,0.0,0.0,0.0,0.0,0.0,-1.0283,-0.9834,-0.8488,-0.8691,-0.8973,-0.8973,-0.8973,-0.8973,0.0,0.0,0.0,0.0,0.0,0.0,0.0,0.0,0.0,0.0,0.0,0.0,0.0,0.0,0.0,0.0,0.0,0.0,0.0,0.0,0.0,0.0,0.0,0.0,0.0,0.0,0.0,0.0,0.0,0.0,0.0,0.0,0.0,0.0,0.0,0.0,0.0,-0.7241,-0.7037,0.0,0.0,-0.7517,-0.7959,-0.764,-0.7744,-0.7984,-0.7941,-0.7699,-0.7401,-0.707,0.0,0.0,-0.5442,-0.5432,-0.5483,-0.5855,-0.5937,-0.5945,0.0,0.0,0.0,0.0,0.0,0.0,0.0,0.0,0.0,0.0,0.0,0.0,0.0,0.0,0.0,-0.0,-0.0,-0.0,-0.0,-0.0,-0.0,-0.0,-0.0,-0.0,-0.0,-0.0,-0.1716,-0.4853,-0.4853,-0.3027,-0.0101,-0.1935,0.0,0.0,-0.1732,-0.1431,-0.0,-0.0,-0.0,-0.0,-0.0,-0.0,-0.0,0.0,0.0,0.0,0.0,0.0,-1.0283,-1.0283,-1.0283,-0.9746,-0.8162,-0.9341,-1.0283,-1.0283,-1.0283,-1.0283,-1.0283,0.0,0.0,0.0,0.0,0.0,0.0,0.0,0.0,0.0,0.0,0.0,0.0,0.0,0.0,0.0,0.0,0.0,0.0,0.0,0.0,0.0,0.0,0.0,0.0,0.0,0.0,0.0,0.0,0.0,0.0,0.0,0.0,0.0,0.0,0.0,0.0,0.0,0.0,0.0,0.0,-0.7491,-0.7815,-0.7567,-0.7705,-0.8035,-0.802,-0.7857,-0.7647,0.0,0.0,-0.5428,-0.5428,-0.5466,-0.5531,-0.5641,-0.5887,-0.6019,0.0,0.0,0.0,0.0,0.0,0.0,0.0,0.0,0.0,0.0,0.0,0.0,0.0,0.0,0.0,-0.1223,-0.1189,-0.0862,-0.0,-0.0,-0.0848,-0.2651,-0.2665,-0.2217,-0.1287,-0.1241,-0.3151,-0.6833,-0.7623,-0.5959,-0.2414,-0.3769,0.0,0.0,-0.3568,-0.3359,-0.2319,-0.1509,-0.1207,-0.1109,-0.0303,-0.0,-0.0,0.0,0.0,0.0,0.0,0.0,0.0,0.0,-1.0283,-1.0283,-1.0283,-1.0283,-1.0283,-1.0283,-1.0283,-1.0283,-1.0283,0.0,0.0,0.0,0.0,0.0,0.0,0.0,0.0,0.0,0.0,0.0,0.0,0.0,0.0,0.0,0.0,0.0,0.0,0.0,0.0,0.0,0.0,0.0,0.0,0.0,0.0,0.0,0.0,0.0,0.0,0.0,0.0,0.0,0.0,0.0,0.0,0.0,0.0,0.0,0.0,-0.7218,-0.7701,-0.7632,-0.776,-0.8013,-0.7964,-0.8026,-0.7874,0.0,0.0,-0.5428,-0.5428,-0.5552,-0.5731,-0.5731,-0.583,-0.6027,-0.603,0.0,0.0,0.0,0.0,0.0,0.0,0.0,0.0,0.0,0.0,0.0,0.0,0.0,0.0,-0.3924,-0.3962,-0.2762,-0.0107,-0.0,-0.2829,-0.8701,-0.8807,-0.7333,-0.4463,-0.4096,-0.4025,-0.4126,-0.6816,-0.7989,0.0,0.0,0.0,0.0,-0.5231,-0.5536,-0.7682,-0.5027,-0.3915,-0.3613,-0.1005,-0.0,-0.0,0.0,0.0,0.0,0.0,0.0,0.0,0.0,-1.0283,-1.0283,-1.0283,-1.0283,-1.0283,-1.0283,-1.0283,-1.0283,-1.0283,0.0,0.0,0.0,0.0,0.0,0.0,0.0,0.0,0.0,0.0,0.0,0.0,0.0,0.0,0.0,0.0,0.0,0.0,0.0,0.0,0.0,0.0,0.0,0.0,0.0,0.0,0.0,0.0,0.0,0.0,0.0,0.0,0.0,0.0,0.0,0.0,0.0,0.0,0.0,0.0,0.0,0.0,-0.7,-0.7356,-0.791,-0.7501,-0.7135,-0.6666,-0.6075,0.0,-0.5403,-0.5401,-0.5466,-0.5535,-0.5641,-0.5667,-0.583,-0.6139,-0.6271,0.0,0.0,0.0,0.0,0.0,0.0,0.0,0.0,0.0,0.0,0.0,0.0,0.0,-0.7116,-0.6883,-0.553,-0.2868,-0.2784,-0.3731,-0.5852,-0.7861,-0.8424,-0.7551,-0.718,-0.7047,-0.6927,-0.7629,-0.7979,0.0,0.0,0.0,0.0,-0.7244,-0.7336,-0.7889,-0.7056,-0.6751,-0.6656,-0.5744,-0.4323,-0.2711,0.0,0.0,0.0,0.0,0.0,0.0,0.0,-1.0283,-1.0283,-1.0283,-1.0283,-1.0283,-1.0283,-1.0283,-1.0283,-1.0283,0.0,0.0,0.0,0.0,0.0,0.0,0.0,0.0,0.0,0.0,0.0,0.0,0.0,0.0,0.0,0.0,0.0,0.0,0.0,0.0,0.0,0.0,0.0,0.0,0.0,0.0,-1.195,0.0,0.0,0.0,0.0,0.0,0.0,0.0,0.0,0.0,0.0,0.0,0.0,0.0,-0.8808,0.0,0.0,-0.7769,-0.818,-0.7816,-0.7864,0.0,0.0,0.0,-0.6574,-0.6125,-0.6,-0.5854,-0.5562,-0.5644,-0.5827,-0.6051,-0.623,0.0,0.0,0.0,0.0,0.0,0.0,0.0,0.0,0.0,0.0,0.0,0.0,0.0,-0.8565,-0.8203,-0.7348,-0.5613,-0.5496,-0.5646,-0.5982,-0.7764,-0.8675,-0.8862,-0.8556,-0.8429,-0.8353,-0.8153,-0.7959,0.0,0.0,0.0,0.0,-0.8153,-0.814,-0.7969,-0.7962,-0.7965,-0.7972,-0.7979,-0.6956,-0.5529,0.0,0.0,0.0,0.0,0.0,0.0,0.0,0.0,0.0,-1.0283,-1.0283,-1.0283,-1.0283,-1.0283,-1.0283,-1.0283,0.0,0.0,0.0,0.0,0.0,0.0,0.0,0.0,0.0,0.0,0.0,0.0,-1.2881,-1.2881,-1.2881,0.0,0.0,0.0,0.0,0.0,0.0,0.0,0.0,0.0,0.0,0.0,0.0,0.0,0.0,0.0,0.0,0.0,0.0,0.0,0.0,0.0,0.0,0.0,0.0,0.0,0.0,0.0,0.0,0.0,0.0,0.0,0.0,0.0,0.0,0.0,0.0,0.0,0.0,-0.6607,-0.5614,-0.5725,-0.5969,-0.5881,0.0,0.0,0.0,0.0,0.0,0.0,0.0,0.0,0.0,0.0,0.0,0.0,0.0,0.0,-0.8476,-0.8343,-0.8201,-0.8045,-0.7969,-0.8052,-0.8286,-0.8286,-0.8425,-0.8693,-0.8408,-0.834,-0.8459,-0.817,-0.8038,0.0,0.0,0.0,0.0,-0.8038,-0.8038,-0.8038,-0.8038,-0.8038,-0.8041,-0.7962,-0.7972,-0.7972,0.0,0.0,0.0,0.0,0.0,0.0,0.0,0.0,0.0,0.0,-1.0283,-1.0283,-1.0283,-1.0283,-1.0283,0.0,0.0,0.0,0.0,0.0,0.0,0.0,0.0,0.0,0.0,0.0,0.0,-1.2881,-1.2881,-1.2881,-1.2881,-1.2881,0.0,0.0,0.0,0.0,0.0,0.0,0.0,0.0,0.0,0.0,0.0,0.0,0.0,0.0,-1.0981,-1.0618,0.0,0.0,0.0,0.0,0.0,0.0,0.0,0.0,-0.8804,-0.8798,-0.8793,0.0,-0.8789,-0.8783,-0.9367,0.0,0.0,0.0,0.0,0.0,0.0,0.0,0.0,0.0,0.0,0.0,0.0,0.0,0.0,0.0,0.0,0.0,0.0,0.0,0.0,0.0,0.0,0.0,0.0,-0.8598,-0.8333,-0.8289,-0.8201,-0.8045,-0.8048,-0.8123,-0.8275,-0.8275,-0.8364,-0.8533,-0.8353,-0.8289,-0.8316,-0.8126,-0.8038,0.0,0.0,0.0,-0.8038,-0.8038,-0.8038,-0.8038,-0.8038,-0.8038,-0.8038,-0.8045,-0.8048,-0.8048,0.0,0.0,0.0,0.0,0.0,0.0,0.0,0.0,0.0,0.0,0.0,0.0,0.0,0.0,0.0,0.0,0.0,0.0,0.0,0.0,0.0,0.0,0.0,0.0,0.0,0.0,0.0,0.0,0.0,-1.2881,0.0,0.0,0.0,0.0,0.0,0.0,0.0,0.0,0.0,0.0,-1.2881,0.0,0.0,0.0,0.0,0.0,-1.1434,-1.1023,0.0,-1.0182,-0.9798,-0.9475,0.0,0.0,0.0,0.0,-0.8804,-0.8804,-0.8804,-0.9025,-0.9228,-0.9302,-0.9749,-0.9993,0.0,0.0,0.0,0.0,0.0,0.0,0.0,0.0,0.0,0.0,0.0,0.0,0.0,0.0,0.0,0.0,0.0,0.0,0.0,0.0,0.0,0.0,0.0,-0.8438,-0.8279,-0.8204,-0.8126,-0.8041,-0.8038,-0.8079,-0.8163,-0.8163,-0.8238,-0.8384,-0.8235,-0.8201,-0.8265,-0.8109,-0.8038,0.0,0.0,0.0,-0.8038,-0.8038,-0.8038,-0.8038,-0.8038,-0.8038,-0.8038,-0.8038,-0.8038,-0.8038,0.0,0.0,0.0,0.0,0.0,0.0,0.0,0.0,0.0,0.0,0.0,0.0,0.0,0.0,0.0,0.0,0.0,0.0,0.0,0.0,0.0,0.0,0.0,0.0,0.0,0.0,0.0,0.0,0.0,0.0,0.0,0.0,0.0,0.0,0.0,0.0,0.0,0.0,0.0,0.0,-1.2881,0.0,0.0,0.0,0.0,0.0,0.0,0.0,0.0,-1.0426,-0.9764,-0.9061,-0.8857,0.0,0.0,0.0,0.0,0.0,-0.8864,-0.9275,-0.9743,-0.9886,-1.0203,-1.0526,0.0,0.0,0.0,0.0,0.0,0.0,0.0,0.0,0.0,0.0,0.0,0.0,0.0,0.0,0.0,0.0,0.0,0.0,0.0,0.0,0.0,0.0,0.0,-0.8258,-0.8238,-0.8109,-0.8038,-0.8038,-0.8038,-0.8038,-0.8038,-0.8038,-0.8106,-0.8235,-0.8102,-0.8109,-0.8231,-0.8099,-0.8038,-0.8038,0.0,0.0,-0.8038,-0.8038,-0.8038,-0.8038,-0.8038,-0.8038,-0.8038,-0.8038,-0.8038,-0.8038,0.0,0.0,0.0,0.0,0.0,0.0,0.0,0.0,0.0,0.0,0.0,0.0,0.0,0.0,0.0,0.0,0.0,0.0,0.0,0.0,0.0,0.0,0.0,0.0,0.0,0.0,0.0,0.0,0.0,0.0,-1.2881,-1.2881,-1.2881,0.0,0.0,0.0,0.0,-1.2881,-1.2881,-1.2881,-1.2881,0.0,0.0,0.0,0.0,0.0,0.0,0.0,0.0,-1.0923,-1.0629,-1.0312,-0.9159,0.0,0.0,0.0,0.0,0.0,-0.9234,-0.9518,-0.9694,-0.9547,-0.9849,-1.0194,0.0,0.0,0.0,0.0,0.0,0.0,0.0,0.0,0.0,0.0,0.0,0.0,0.0,0.0,0.0,0.0,0.0,0.0,0.0,0.0,0.0,0.0,0.0,-0.8214,-0.8082,-0.8052,-0.8038,-0.8038,-0.8038,-0.8038,-0.8038,-0.8038,-0.8052,-0.8075,-0.8052,-0.8052,-0.8075,-0.8052,-0.8038,-0.8038,0.0,-0.8038,-0.8038,-0.8038,-0.8038,-0.8038,-0.8038,-0.8038,-0.8038,-0.8038,-0.8038,-0.8038,0.0,0.0,0.0,0.0,0.0,0.0,0.0,0.0,0.0,0.0,0.0,0.0,0.0,0.0,0.0,0.0,0.0,0.0,0.0,0.0,0.0,0.0,0.0,0.0,0.0,0.0,0.0,0.0,0.0,-1.2881,-1.2881,-1.2881,-1.2881,-1.2881,0.0,0.0,0.0,-1.2881,-1.2881,-1.2881,0.0,0.0,0.0,0.0,0.0,0.0,0.0,0.0,0.0,0.0,-1.0746,-1.0096,-0.9127,0.0,0.0,0.0,0.0,0.0,-0.9032,-0.9401,-0.9613,-0.9381,-0.9806,0.0,0.0,0.0,0.0,0.0,0.0,0.0,0.0,0.0,0.0,0.0,0.0,0.0,0.0,0.0,0.0,0.0,0.0,0.0,0.0,0.0,0.0,0.0,0.0,0.0,-0.8041,-0.8038,-0.8038,-0.8038,-0.8038,-0.8038,-0.8038,-0.8038,-0.8038,-0.8038,-0.8038,-0.8038,-0.8038,-0.8038,-0.8038,-0.8038,0.0,-0.8038,-0.8038,-0.8038,-0.8038,-0.8038,-0.8038,-0.8038,-0.8038,-0.8038,-0.8038,-0.8038,0.0,0.0,0.0,0.0,0.0,0.0,0.0,0.0,0.0,0.0,0.0,0.0,0.0,0.0,0.0,0.0,0.0,0.0,0.0,0.0,0.0,0.0,0.0,0.0,0.0,0.0,0.0,-1.2881,-1.2881,-1.2881,-1.2881,-1.2881,-1.2881,0.0,0.0,0.0,0.0,-1.2881,-1.2881,-1.2881,0.0,0.0,0.0,0.0,0.0,0.0,0.0,0.0,0.0,0.0,0.0,0.0,0.0,0.0,0.0,-0.8804,-0.8804,-0.8824,-0.8891,-0.9239,-0.9559,-0.9466,0.0,0.0,0.0,0.0,0.0,0.0,0.0,0.0,0.0,0.0,0.0,0.0,0.0,0.0,0.0,0.0,0.0,0.0,0.0,0.0,0.0,0.0,0.0,0.0,0.0,0.0,-0.8038,-0.8038,-0.8038,-0.8038,-0.8038,-0.8038,-0.8038,-0.8038,-0.8038,-0.8038,-0.8038,-0.8038,-0.8038,-0.8038,-0.8038,-0.8038,-0.8038,-0.8038,-0.8038,-0.8038,-0.8038,-0.8038,-0.8038,-0.8038,-0.8038,-0.8038,-0.8038,-0.8038,0.0,0.0,0.0,0.0,0.0,0.0,0.0,0.0,0.0,0.0,0.0,0.0,0.0,0.0,0.0,0.0,0.0,0.0,0.0,0.0,0.0,0.0,0.0,0.0,0.0,-1.2881,-1.2881,-1.2881,-1.2881,-1.2881,-1.2881,-1.2881,-1.2881,-1.2881,0.0,0.0,0.0,-1.2881,-1.2881,-1.2881,-1.2881,0.0,0.0,0.0,0.0,0.0,0.0,0.0,0.0,0.0,0.0,0.0,0.0,0.0,-0.8804,-0.8804,-0.8804,-0.8864,-0.9084,-0.9183,-0.9342,-0.992,0.0,0.0,0.0,0.0,0.0,0.0,0.0,0.0,0.0,0.0,0.0,0.0,0.0,0.0,0.0,0.0,0.0,0.0,0.0,0.0,0.0,0.0,0.0,0.0,0.0,0.0,-0.8038,-0.8038,-0.8038,-0.8038,-0.8038,-0.8038,-0.8038,-0.8038,-0.8038,-0.8038,-0.8038,-0.8038,-0.8038,-0.8038,-0.8038,-0.8038,-0.8038,-0.8038,-0.8038,-0.8038,-0.8038,-0.8038,-0.8038,-0.8038,-0.8038,-0.8038,-0.8038,-0.8038,0.0,0.0,0.0,0.0,0.0,0.0,0.0,0.0,0.0,0.0,0.0,0.0,0.0,0.0,0.0,0.0,0.0,0.0,0.0,0.0,0.0,0.0,0.0,-1.2881,-1.2881,-1.2881,-1.2881,-1.2881,-1.2881,-1.2881,-1.2881,-1.2881,0.0,0.0,0.0,0.0,0.0,-1.2881,-1.2881,-1.2881,-1.2881,-1.2881,0.0,0.0,0.0,0.0,0.0,0.0,0.0,0.0,-1.1527,-1.125,0.0,-0.9629,-0.9361,-0.891,-0.8804,-0.8831,-0.8938,-0.9239,-0.9526,-0.9559,0.0,0.0,0.0,0.0,0.0,0.0,0.0,0.0,0.0,0.0,0.0,0.0,0.0,0.0,0.0,0.0,0.0,0.0,0.0,0.0,0.0,0.0,0.0,0.0,0.0,0.0,-0.9217,-0.8432,-0.8038,-0.8038,-0.8038,-0.8038,-0.8038,-0.8038,-0.8038,-0.8038,-0.8038,-0.8038,-0.8038,-0.8038,-0.8038,-0.8038,-0.8038,-0.8038,-0.8038,-0.8038,-0.8038,-0.8038,-0.8038,-0.8038,-0.8038,-0.8038,-0.8038,-0.8038,0.0,0.0,0.0,0.0,0.0,0.0,0.0,0.0,0.0,0.0,0.0,0.0,0.0,0.0,0.0,0.0,0.0,0.0,0.0,0.0,0.0,0.0,0.0,-1.2881,-1.2881,-1.2881,-1.2881,-1.2881,-1.2881,-1.2881,-1.2881,0.0,0.0,0.0,0.0,0.0,0.0,0.0,-1.2881,-1.2881,-1.2881,-1.2881,0.0,0.0,0.0,0.0,0.0,0.0,0.0,0.0,-1.1737,0.0,0.0,0.0,0.0,-0.8956,-0.8804,-0.8804,-0.8804,-0.9165,-0.9519,0.0,0.0,0.0,0.0,0.0,0.0,0.0,0.0,0.0,0.0,0.0,0.0,0.0,0.0,0.0,0.0,0.0,0.0,0.0,0.0,0.0,0.0,0.0,0.0,0.0,0.0,0.0,0.0,-0.9702,-0.919,-0.9131,-0.9186,-0.8992,-0.8456,-0.8605,-0.8432,-0.8038,-0.8038,-0.8038,-0.8038,-0.8038,-0.8038,-0.8038,-0.8038,-0.8038,-0.8038,-0.8038,-0.8038,-0.8038,-0.8038,-0.8038,-0.8038,-0.8038,-0.8038,-0.8038,0.0,0.0,0.0,0.0,0.0,0.0,0.0,0.0,0.0,0.0,0.0,0.0,0.0,0.0,0.0,0.0,0.0,0.0,0.0,0.0,0.0,0.0,0.0,-1.2881,-1.2881,-1.2881,-1.2881,-1.2881,-1.2881,-1.2881,-1.2881,0.0,0.0,0.0,0.0,0.0,0.0,0.0,0.0,-1.2881,-1.2881,-1.2881,-1.2881,0.0,0.0,0.0,0.0,0.0,0.0,0.0,-1.195,-1.0813,0.0,0.0,0.0,-0.8804,-0.8804,-0.8804,-0.8804,-0.9018,0.0,0.0,0.0,0.0,0.0,0.0,0.0,0.0,0.0,0.0,0.0,0.0,0.0,0.0,0.0,0.0,0.0,0.0,0.0,0.0,0.0,0.0,0.0,0.0,0.0,0.0,0.0,0.0,0.0,-1.194,-1.1737,-1.1507,-1.1722,-1.1158,-0.9531,-0.9807,-0.9312,-0.8038,-0.8038,-0.8038,-0.8038,-0.8038,-0.8038,-0.8038,-0.8038,-0.8038,-0.8038,-0.8038,-0.8038,-0.8038,-0.8038,-0.8038,-0.8038,-0.8038,-0.8038,-0.8038,0.0,0.0,0.0,0.0,0.0,0.0,0.0,0.0,0.0,0.0,0.0,0.0,0.0,0.0,0.0,0.0,0.0,0.0,0.0,0.0,0.0,0.0,0.0,0.0,0.0,0.0,-1.2881,-1.2881,-1.2881,-1.2881,0.0,0.0,0.0,-1.2881,0.0,0.0,0.0,0.0,0.0,-1.2881,-1.2881,-1.2881,-1.2881,0.0,0.0,0.0,0.0,0.0,0.0,0.0,0.0,0.0,0.0,0.0,0.0,-0.8956,-0.8804,-0.8804,-0.8804,-0.9172,0.0,0.0,0.0,0.0,0.0,0.0,0.0,0.0,0.0,0.0,0.0,0.0,0.0,0.0,0.0,0.0,0.0,0.0,0.0,0.0,0.0,0.0,0.0,0.0,0.0,0.0,0.0,0.0,0.0,-1.1932,-1.1341,-1.1184,-1.1341,-1.1062,-1.0631,-1.0929,-1.0838,-1.0459,-1.0608,-0.9801,-0.8038,-0.8038,-0.8038,-0.8038,-0.8038,-0.8038,-0.8038,-0.8038,-0.8038,-0.8038,-0.8038,-0.8038,-0.8038,-0.8038,-0.8038,-0.8038,0.0,0.0,0.0,0.0,0.0,0.0,0.0,0.0,0.0,0.0,0.0,0.0,0.0,0.0,0.0,0.0,0.0,0.0,0.0,0.0,0.0,0.0,0.0,0.0,0.0,-1.2881,-1.2881,0.0,0.0,0.0,0.0,0.0,0.0,-1.2881,0.0,-1.2881,0.0,0.0,0.0,-1.2881,-1.2881,-1.2881,-1.2881,0.0,0.0,0.0,0.0,0.0,0.0,0.0,0.0,0.0,0.0,0.0,0.0,-0.9309,-0.9008,-0.8804,-0.8804,0.0,0.0,0.0,0.0,0.0,0.0,0.0,0.0,0.0,0.0,0.0,0.0,0.0,0.0,0.0,0.0,0.0,0.0,0.0,0.0,0.0,0.0,0.0,0.0,0.0,0.0,0.0,0.0,0.0,0.0,-1.3191,-1.2604,-1.2417,-1.2598,-1.2326,-1.1685,-1.2005,-1.1885,-1.1502,-1.1642,-1.0988,-0.9505,-0.9505,-0.9312,-0.8726,-0.8233,-0.8333,-0.8726,-0.8237,-0.8627,-0.9509,-0.9019,-0.8825,-0.8825,-0.8825,-0.8432,-0.8038,0.0,0.0,0.0,0.0,0.0,0.0,0.0,0.0,0.0,0.0,0.0,0.0,0.0,0.0,0.0,0.0,0.0,0.0,0.0,0.0,0.0,0.0,0.0,0.0,0.0,0.0,0.0,0.0,0.0,0.0,0.0,0.0,-1.2881,-1.2881,0.0,-1.2881,0.0,0.0,0.0,-1.2881,-1.2881,-1.2881,-1.2881,-1.2881,0.0,0.0,0.0,0.0,0.0,0.0,0.0,0.0,-1.1724,0.0,-0.9814,-0.9814,-0.9309,-0.8804,0.0,0.0,0.0,0.0,0.0,0.0,0.0,0.0,0.0,0.0,0.0,0.0,0.0,0.0,0.0,0.0,0.0,0.0,0.0,0.0,0.0,0.0,0.0,0.0,0.0,0.0,0.0,0.0,0.0,0.0,0.0,-1.4897,-1.4763,-1.4489,-1.4743,-1.4205,-1.2786,-1.3034,-1.2637,-1.1723,-1.1838,-1.1962,-1.218,-1.2027,-1.1268,-1.0096,-0.8924,-0.9019,-1.0096,-0.8821,-0.9801,-1.175,-1.0583,-1.0194,-1.0194,-1.0194,-0.941,-0.8333,0.0,0.0,0.0,0.0,0.0,0.0,0.0,0.0,0.0,0.0,0.0,0.0,0.0,0.0,0.0,0.0,0.0,0.0,0.0,0.0,0.0,0.0,0.0,0.0,0.0,0.0,0.0,0.0,0.0,0.0,0.0,0.0,0.0,-1.2881,0.0,-1.2881,0.0,0.0,0.0,-1.2881,-1.2881,-1.2881,-1.2881,-1.2881,-1.2881,0.0,0.0,0.0,0.0,0.0,0.0,0.0,-1.1166,-1.0466,-0.9814,-0.9814,-0.9309,-0.8804,0.0,0.0,0.0,0.0,0.0,0.0,0.0,0.0,0.0,0.0,0.0,0.0,0.0,0.0,0.0,0.0,0.0,0.0,0.0,0.0,0.0,0.0,0.0,0.0,0.0,0.0,0.0,0.0,0.0,0.0,-1.4616,-1.4402,-1.4249,-1.4182,-1.4242,-1.4156,-1.3743,-1.4022,-1.4102,0.0,-1.4109,-1.4248,-1.4232,-1.265,-1.175,-1.1458,-1.1165,-1.1263,-1.1458,-1.117,-1.1361,-1.1853,-1.1556,-1.1463,-1.1463,-1.1463,-1.1263,-1.1072,0.0,0.0,0.0,0.0,0.0,0.0,0.0,0.0,0.0,0.0,0.0,0.0,0.0,0.0,0.0,0.0,0.0,0.0,0.0,0.0,0.0,0.0,0.0,0.0,0.0,0.0,0.0,0.0,0.0,0.0,0.0,0.0,0.0,-1.2881,0.0,-1.2881,0.0,0.0,0.0,0.0,-1.2881,-1.2881,-1.2881,-1.2881,-1.2881,-1.2881,-1.2881,0.0,0.0,0.0,0.0,0.0,0.0,0.0,-1.0261,-1.0261,-0.9562,-0.8804,0.0,0.0,0.0,0.0,0.0,0.0,0.0,0.0,0.0,0.0,0.0,0.0,0.0,0.0,0.0,0.0,0.0,0.0,0.0,0.0,0.0,0.0,0.0,0.0,0.0,0.0,0.0,0.0,0.0,-1.4102,-1.4102,-1.3955,-1.3941,-1.4082,-1.4088,-1.4021,-1.3874,-1.4162,-1.4315,-1.4315,-1.4609,-1.4823,-1.497,-1.3205,-1.2476,-1.2388,-1.1924,-1.2009,-1.2393,-1.1929,-1.2453,-1.3512,-1.2835,-1.2715,-1.2813,-1.2813,-1.2425,-1.1945,0.0,0.0,0.0,0.0,0.0,0.0,0.0,0.0,0.0,0.0,0.0,0.0,0.0,0.0,0.0,0.0,0.0,0.0,0.0,0.0,0.0,0.0,0.0,0.0,0.0,0.0,0.0,0.0,0.0,0.0,0.0,0.0,0.0,-1.2881,0.0,0.0,0.0,0.0,0.0,0.0,0.0,0.0,-1.2881,-1.2881,-1.2881,-1.2881,-1.2881,-1.2881,-1.2881,-1.2881,0.0,0.0,0.0,0.0,-1.0965,-1.0813,-1.0012,-0.9106,0.0,0.0,0.0,0.0,0.0,0.0,0.0,0.0,0.0,0.0,0.0,0.0,0.0,0.0,0.0,0.0,0.0,0.0,0.0,0.0,0.0,0.0,0.0,0.0,0.0,0.0,0.0,0.0,0.0,-1.3567,-1.3567,-1.3567,-1.3701,-1.4001,-1.3961,-1.3841,-1.3566,-1.3888,-1.4008,-1.4015,-1.4255,-1.4496,-1.473,-1.3591,-1.3123,-1.3308,-1.2488,-1.2559,-1.3308,-1.2494,-1.3426,-1.5232,-1.4136,-1.3908,-1.4201,-1.425,-1.3494,-1.2528,0.0,0.0,0.0,0.0,0.0,0.0,0.0,0.0,0.0,0.0,0.0,0.0,0.0,0.0,0.0,0.0,0.0,0.0,0.0,0.0,0.0,0.0,0.0,0.0,0.0,0.0,0.0,0.0,0.0,0.0,0.0,0.0,0.0,0.0,0.0,0.0,0.0,0.0,0.0,0.0,0.0,0.0,0.0,-1.2881,-1.2881,-1.2881,-1.2881,-1.2881,-1.2881,-1.2881,-1.2881,0.0,0.0,0.0,-1.1566,-1.0965,-1.0661,0.0,0.0,0.0,0.0,0.0,0.0,0.0,0.0,0.0,0.0,0.0,0.0,0.0,0.0,0.0,0.0,0.0,0.0,0.0,0.0,0.0,0.0,0.0,0.0,0.0,0.0,0.0,0.0,0.0,-1.3247,-1.3267,-1.3267,-1.3267,-1.34,-1.3694,-1.346,-1.3427,-1.3641,-1.3599,-1.3701,-1.3701,-1.3658,-1.3698,-1.3808,-1.3391,-1.3736,-1.4687,-1.463,-1.4624,-1.4687,-1.463,-1.474,-1.5044,-1.5107,-1.5133,-1.5199,-1.5448,-1.5439,-1.5248,0.0,0.0,0.0,0.0,0.0,0.0,0.0,0.0,0.0,0.0,0.0,0.0,0.0,0.0,0.0,0.0,0.0,0.0,0.0,0.0,0.0,0.0,-1.2881,0.0,0.0,0.0,0.0,0.0,0.0,0.0,0.0,-1.2881,-1.2881,0.0,0.0,0.0,0.0,0.0,0.0,0.0,0.0,0.0,0.0,0.0,-1.2881,-1.2881,-1.2881,-1.2881,-1.2881,-1.2881,-1.2881,-1.2881,-1.2881,0.0,0.0,0.0,0.0,0.0,0.0,0.0,0.0,0.0,0.0,0.0,0.0,0.0,0.0,0.0,0.0,0.0,0.0,0.0,0.0,0.0,0.0,0.0,0.0,0.0,0.0,0.0,0.0,0.0,0.0,0.0,0.0,0.0,-1.2859,-1.2953,-1.2953,-1.2953,-1.3093,-1.3394,-1.3273,-1.3186,-1.314,-1.3313,-1.34,-1.34,-1.34,-1.34,-1.34,-1.3267,-1.3667,-1.4476,-1.4476,-1.4476,-1.4482,-1.4649,-1.4716,-1.473,-1.4856,-1.511,-1.5411,-1.5538,-1.5691,-1.5832,0.0,0.0,0.0,0.0,0.0,0.0,0.0,0.0,0.0,0.0,0.0,0.0,0.0,0.0,0.0,0.0,0.0,0.0,0.0,0.0,0.0,-1.2929,-1.2881,-1.2881,-1.2881,0.0,0.0,0.0,0.0,0.0,-1.2881,-1.2881,-1.2881,0.0,-1.2881,0.0,0.0,0.0,0.0,0.0,0.0,0.0,0.0,0.0,0.0,0.0,0.0,-1.2881,-1.2881,-1.2881,-1.2881,-1.2881,-1.2881,-1.251,0.0,0.0,0.0,0.0,0.0,0.0,0.0,0.0,0.0,0.0,0.0,0.0,0.0,0.0,0.0,0.0,0.0,0.0,0.0,0.0,0.0,0.0,0.0,0.0,0.0,0.0,0.0,0.0,0.0,0.0,0.0,0.0,-1.2358,-1.26,-1.26,-1.2667,-1.2739,-1.2973,-1.2979,-1.2866,-1.2632,-1.2939,-1.3093,-1.3093,-1.3093,-1.3093,-1.3093,-1.3013,-1.33,-1.3868,-1.3941,-1.4015,-1.4108,-1.4322,-1.4409,-1.4422,-1.4489,-1.479,-1.5184,-1.5257,-1.5424,-1.5611,0.0,0.0,0.0,0.0,0.0,0.0,0.0,0.0,0.0,0.0,0.0,0.0,0.0,0.0,0.0,-1.6522,0.0,0.0,0.0,0.0,0.0,-1.3027,-1.2881,0.0,-1.2881,0.0,0.0,0.0,0.0,0.0,-1.2881,-1.2881,-1.2881,-1.2881,-1.2881,-1.2881,-1.2881,0.0,0.0,0.0,0.0,-1.2881,0.0,0.0,0.0,0.0,0.0,0.0,-1.2881,-1.2881,-1.2881,-1.2881,-1.2881,-1.2881,-1.2715,0.0,0.0,0.0,0.0,0.0,0.0,0.0,0.0,0.0,0.0,0.0,0.0,0.0,0.0,0.0,0.0,0.0,0.0,0.0,0.0,0.0,0.0,0.0,0.0,0.0,0.0,0.0,0.0,0.0,0.0,0.0,-1.175,-1.1982,-1.1982,-1.2178,-1.2331,-1.2351,-1.2351,-1.2345,-1.2325,-1.2694,-1.2849,-1.2849,-1.2849,-1.2849,-1.2835,-1.2478,-1.2679,-1.3273,-1.3547,-1.3828,-1.4088,-1.4108,-1.4108,-1.4135,-1.4409,-1.4536,-1.4603,-1.4883,-1.4997,-1.501,0.0,0.0,0.0,0.0,0.0,0.0,0.0,0.0,0.0,0.0,0.0,0.0,0.0,0.0,-1.6522,-1.6522,-1.6522,0.0,0.0,0.0,0.0,-1.3017,-1.2881,-1.2881,-1.2881,0.0,0.0,0.0,0.0,-1.2881,-1.2881,-1.2881,-1.2881,-1.2881,-1.2881,-1.2881,-1.2881,-1.2881,0.0,0.0,-1.2881,-1.2881,0.0,0.0,0.0,0.0,0.0,0.0,0.0,-1.2881,-1.2881,-1.2881,-1.2881,-1.2881,-1.2832,0.0,0.0,0.0,0.0,0.0,0.0,0.0,0.0,0.0,0.0,0.0,0.0,0.0,0.0,0.0,0.0,0.0,0.0,0.0,0.0,0.0,0.0,0.0,0.0,0.0,0.0,0.0,0.0,0.0,0.0,0.0,0.0,-1.1583,-1.1583,-1.1683,-1.1737,-1.1737,-1.1737,-1.1737,-1.1737,-1.2037,-1.2257,-1.2184,-1.2371,-1.2458,-1.2458,-1.2351,-1.2525,-1.2919,-1.3019,-1.3347,-1.3814,-1.4008,-1.4088,-1.4095,-1.4202,-1.4355,-1.4529,-1.4636,-1.4803,-1.4963,0.0,0.0,0.0,0.0,0.0,0.0,0.0,0.0,0.0,0.0,0.0,0.0,0.0,0.0,-1.6522,-1.6522,-1.6522,-1.6522,-1.6522,-1.6522,-1.5611,-1.361,-1.3515,-1.3515,0.0,0.0,0.0,0.0,0.0,0.0,0.0,0.0,-1.2881,-1.2881,-1.2881,-1.2881,0.0,0.0,0.0,-1.2881,0.0,-1.2881,-1.2881,0.0,0.0,0.0,0.0,0.0,0.0,0.0,-1.2881,-1.2881,0.0,0.0,0.0,0.0,0.0,0.0,0.0,0.0,0.0,0.0,0.0,0.0,0.0,0.0,0.0,0.0,0.0,0.0,0.0,0.0,0.0,0.0,0.0,0.0,0.0,0.0,0.0,0.0,0.0,0.0,0.0,0.0,0.0,0.0,0.0,0.0,-1.1283,-1.1369,-1.1423,-1.1423,-1.1329,-1.1329,-1.1423,-1.1623,-1.1724,-1.1724,-1.2017,-1.2158,-1.2164,-1.2258,-1.2412,-1.2605,-1.2812,-1.3186,-1.3661,-1.3854,-1.4001,-1.4088,-1.4088,-1.4208,-1.4376,-1.4376,-1.4502,-1.4669,0.0,0.0,0.0,0.0,0.0,0.0,0.0,0.0,0.0,0.0,0.0,0.0,0.0,0.0,0.0,-1.6522,-1.6522,-1.6522,-1.6522,-1.6522,-1.5976,-1.4789,0.0,0.0,0.0,0.0,0.0,0.0,0.0,0.0,0.0,0.0,-1.2881,0.0,-1.2881,-1.2929,-1.3027,0.0,-1.2881,-1.2881,0.0,-1.2881,-1.2881,0.0,0.0,0.0,-1.2881,-1.2881,0.0,-1.2881,0.0,0.0,0.0,0.0,0.0,0.0,0.0,0.0,0.0,0.0,0.0,0.0,0.0,0.0,0.0,0.0,0.0,0.0,0.0,0.0,0.0,0.0,0.0,0.0,0.0,0.0,0.0,0.0,0.0,0.0,0.0,0.0,0.0,0.0,0.0,0.0,-1.0822,-1.0982,-1.0982,-1.1243,-1.1403,-1.1403,-1.1129,-1.1116,-1.1396,-1.141,-1.141,-1.1416,-1.1717,-1.1864,-1.1877,-1.2164,-1.2291,-1.2331,-1.2926,-1.3347,-1.3621,-1.3552,-1.3814,-1.4075,-1.4075,-1.4075,-1.4075,-1.4082,-1.4088,-1.4088,0.0,0.0,0.0,0.0,0.0,0.0,0.0,0.0,0.0,0.0,0.0,0.0,0.0,0.0,0.0,-1.6522,-1.6522,-1.6522,-1.6522,-1.6522,-1.6337,-1.602,-1.5152,0.0,0.0,0.0,0.0,0.0,0.0,0.0,0.0,0.0,0.0,0.0,-1.2881,-1.3884,-1.5377,-1.3658,0.0,0.0,-1.2881,-1.2881,0.0,0.0,0.0,0.0,0.0,-1.2881,-1.2881,0.0,-1.2881,-1.2881,0.0,0.0,0.0,0.0,0.0,0.0,-1.2881,0.0,0.0,0.0,0.0,0.0,0.0,0.0,0.0,0.0,0.0,0.0,0.0,0.0,0.0,0.0,0.0,0.0,0.0,0.0,0.0,0.0,0.0,0.0,0.0,0.0,0.0,0.0,-1.0698,-1.0681,-1.0681,-1.0755,-1.0795,-1.0795,-1.0722,-1.0722,-1.0795,-1.1009,-1.1109,-1.1116,-1.141,-1.1663,-1.187,-1.1951,-1.2104,-1.2311,-1.2478,-1.2719,-1.3026,-1.3467,-1.3687,-1.3768,-1.3768,-1.3768,-1.3794,-1.4008,-1.4088,-1.4088,0.0,0.0,0.0,0.0,0.0,0.0,0.0,0.0,0.0,0.0,0.0,0.0,0.0,0.0,0.0,-1.6522,-1.6522,-1.6522,-1.6522,-1.6522,-1.6522,-1.6522,-1.5844,-1.4789,0.0,0.0,0.0,0.0,0.0,0.0,0.0,0.0,0.0,0.0,0.0,0.0,0.0,0.0,0.0,0.0,-1.3017,0.0,0.0,-1.2881,-1.2881,0.0,0.0,0.0,-1.2881,-1.2881,-1.2881,0.0,0.0,0.0,0.0,0.0,0.0,0.0,0.0,0.0,0.0,0.0,0.0,0.0,-1.1366,-1.1015,0.0,0.0,0.0,0.0,0.0,0.0,0.0,0.0,0.0,0.0,0.0,0.0,0.0,0.0,0.0,0.0,0.0,-1.0438,-1.0671,-1.0436,-1.0488,-1.0624,-1.0624,-1.0624,-1.0624,-1.0624,-1.0624,-1.0624,-1.0624,-1.0728,-1.0815,-1.0815,-1.1102,-1.1396,-1.169,-1.1817,-1.2031,-1.2311,-1.2432,-1.2585,-1.2849,-1.3126,-1.342,-1.3559,-1.3559,-1.3721,-1.3848,-1.4021,-1.4088,-1.4088,0.0,0.0,0.0,0.0,0.0,0.0,0.0,0.0,0.0,0.0,0.0,0.0,0.0,0.0,0.0,0.0,-1.6522,-1.6522,-1.6522,-1.6522,-1.6522,-1.6522,-1.6522,-1.5832,-1.4422,0.0,0.0,0.0,0.0,0.0,0.0,0.0,0.0,0.0,0.0,0.0,0.0,0.0,0.0,-1.4086,-1.3238,-1.2881,0.0,0.0,-1.2881,-1.2881,-1.2881,-1.2881,-1.2881,-1.2881,-1.2881,0.0,0.0,0.0,0.0,0.0,-1.2881,0.0,0.0,0.0,0.0,0.0,0.0,0.0,-1.208,-1.1475,-1.1023,0.0,0.0,0.0,0.0,0.0,0.0,0.0,0.0,0.0,0.0,0.0,0.0,0.0,0.0,0.0,-0.9914,-1.0631,-1.0871,-1.0241,-1.0403,-1.0591,-1.0744,-1.0744,-1.0744,-1.0744,-1.0744,-1.0681,-1.0624,-1.0624,-1.0624,-1.0624,-1.0822,-1.1109,-1.143,-1.1697,-1.1997,-1.2318,-1.2585,-1.2775,-1.2775,-1.2775,-1.3033,-1.3547,-1.3499,-1.3754,-1.4001,-1.4062,-1.4088,-1.4088,0.0,0.0,0.0,0.0,0.0,0.0,0.0,0.0,0.0,0.0,0.0,0.0,0.0,0.0,0.0,0.0,0.0,-1.6522,-1.6522,-1.6522,-1.6522,-1.6522,-1.6522,-1.6337,-1.6064,-1.3978,0.0,0.0,0.0,0.0,0.0,0.0,0.0,0.0,0.0,0.0,0.0,0.0,0.0,-1.4473,-1.3341,0.0,-1.2881,-1.2881,-1.2881,-1.2881,-1.2881,-1.2881,-1.2881,-1.2881,-1.2881,-1.2881,0.0,0.0,0.0,0.0,0.0,0.0,0.0,0.0,0.0,0.0,0.0,0.0,-1.2725,-1.2569,-1.2304,0.0,0.0,0.0,0.0,0.0,0.0,0.0,0.0,0.0,0.0,0.0,0.0,0.0,0.0,0.0,-1.0934,-1.1352,-1.1275,-1.061,-1.0327,-1.0609,-1.1516,-1.1593,-1.1593,-1.1593,-1.1593,-1.1226,-1.0624,-1.0624,-1.0624,-1.0624,-1.0678,-1.0915,-1.143,-1.1483,-1.1804,-1.2305,-1.2365,-1.2385,-1.2385,-1.2385,-1.2599,-1.2946,-1.32,-1.3333,-1.344,-1.3915,-1.4088,-1.4088,0.0,0.0,0.0,0.0,0.0,0.0,0.0,0.0,0.0,0.0,0.0,0.0,0.0,0.0,0.0,0.0,0.0,0.0,0.0,0.0,-1.6522,-1.6522,-1.6522,-1.6293,-1.5888,-1.5119,-1.4118,0.0,0.0,0.0,0.0,0.0,0.0,0.0,0.0,0.0,0.0,0.0,-1.4687,-1.5028,-1.3515,0.0,-1.2881,-1.2881,-1.2881,-1.2881,-1.2881,-1.2881,-1.2881,-1.2881,-1.2881,0.0,0.0,-1.2881,-1.2881,0.0,-1.2881,-1.293,0.0,0.0,0.0,-1.3145,0.0,0.0,0.0,-1.2608,-1.2344,0.0,0.0,0.0,0.0,0.0,0.0,0.0,0.0,0.0,0.0,0.0,0.0,0.0,0.0,0.0,-1.1034,-1.1637,-1.1768,-1.1223,-1.0719,-1.0894,-1.2062,-1.1768,-1.1783,-1.2381,-1.2389,-1.202,-1.1233,-1.1226,-1.0982,-1.0624,-1.0624,-1.0788,-1.1216,-1.1363,-1.167,-1.2091,-1.2238,-1.2305,-1.2305,-1.2305,-1.2392,-1.2552,-1.2859,-1.3073,-1.3247,-1.354,-1.3741,-1.3868,0.0,0.0,0.0,0.0,0.0,0.0,0.0,0.0,0.0,0.0,0.0,0.0,0.0,0.0,0.0,0.0,0.0,0.0,0.0,0.0,-1.6522,-1.6522,-1.6522,-1.6207,-1.5534,-1.6163,-1.5567,0.0,0.0,0.0,0.0,0.0,0.0,0.0,0.0,0.0,0.0,0.0,0.0,-1.5457,0.0,-1.3182,-1.3066,-1.3084,-1.3074,-1.3094,-1.32,-1.3248,-1.3248,-1.3104,-1.3065,-1.3065,-1.2929,-1.2939,0.0,0.0,0.0,0.0,0.0,0.0,0.0,0.0,0.0,-1.2881,0.0,0.0,0.0,0.0,0.0,0.0,0.0,0.0,0.0,0.0,0.0,0.0,0.0,0.0,0.0,0.0,0.0,0.0,0.0,-1.1824,-1.2114,-1.1826,-1.1193,-1.1324,-1.2572,-1.2046,-1.2206,-1.3174,-1.3243,-1.2818,-1.202,-1.2012,-1.1717,-1.1052,-1.0926,-1.0958,-1.1252,-1.1296,-1.1503,-1.1797,-1.2091,-1.2218,-1.2225,-1.2278,-1.2305,-1.2331,-1.2708,-1.2899,-1.3126,-1.3186,-1.3394,-1.3559,-1.6023,-1.6636,0.0,0.0,0.0,0.0,0.0,0.0,0.0,0.0,0.0,0.0,0.0,0.0,0.0,0.0,0.0,0.0,-1.6522,0.0,0.0,-1.6522,-1.6522,-1.6479,-1.638,-1.6436,-1.638,-1.6107,0.0,0.0,0.0,0.0,0.0,0.0,-1.6064,0.0,0.0,0.0,-1.5536,0.0,-1.4812,-1.4168,0.0,-1.3721,-1.3704,-1.3752,-1.4318,-1.4479,-1.4422,0.0,-1.3684,-1.3589,0.0,-1.3135,-1.3359,0.0,0.0,0.0,0.0,0.0,0.0,0.0,-1.3193,0.0,0.0,0.0,-1.2774,-1.2881,0.0,0.0,0.0,0.0,0.0,0.0,0.0,0.0,0.0,0.0,0.0,0.0,0.0,0.0,0.0,-1.2175,-1.1957,-1.2219,-1.1592,-1.1894,-1.3363,-1.3398,-1.3566,-1.4076,-1.4085,-1.3666,-1.2879,-1.2887,-1.2826,-1.2704,-1.202,-1.1818,-1.2064,-1.1345,-1.1202,-1.149,-1.179,-1.1917,-1.1937,-1.2198,-1.2305,-1.2331,-1.2708,-1.2842,-1.2909,-1.3113,-1.3394,-1.3559,0.0,0.0,0.0,0.0,0.0,0.0,0.0,0.0,0.0,0.0,0.0,0.0,0.0,0.0,0.0,0.0,0.0,-1.6522,0.0,0.0,0.0,0.0,-1.6522,-1.6522,-1.6522,-1.6522,-1.6522,-1.6522,-1.6522,0.0,0.0,0.0,0.0,0.0,-1.638,0.0,-1.6139,0.0,0.0,0.0,0.0,0.0,0.0,-1.4457,-1.4334,-1.4343,-1.4595,-1.4698,-1.4663,0.0,-1.4097,0.0,0.0,0.0,0.0,0.0,0.0,0.0,0.0,0.0,0.0,0.0,0.0,0.0,-1.2968,0.0,-1.2881,0.0,0.0,0.0,0.0,0.0,0.0,0.0,-1.2764,0.0,0.0,0.0,0.0,0.0,0.0,0.0,0.0,0.0,0.0,0.0,-1.1983,-1.2164,-1.3462,-1.3387,-1.369,-1.4506,-1.4751,-1.451,-1.3726,-1.3726,-1.3485,-1.3009,-1.2634,-1.2591,-1.2672,-1.1983,-1.176,-1.1829,-1.1682,-1.161,-1.1637,-1.1931,-1.2051,-1.2078,-1.2371,-1.2485,-1.2525,-1.2826,-1.3133,-1.3414,0.0,0.0,0.0,0.0,0.0,0.0,0.0,0.0,0.0,0.0,0.0,0.0,-1.6522,-1.6522,0.0,0.0,-1.6522,-1.6522,0.0,0.0,-1.6522,0.0,0.0,0.0,0.0,-1.6522,-1.6522,-1.6522,-1.6522,0.0,0.0,0.0,0.0,0.0,-1.6522,-1.6522,-1.6522,0.0,0.0,-1.6454,-1.6022,-1.584,-1.578,-1.5199,-1.504,-1.5197,-1.5197,-1.5197,-1.5152,-1.4926,-1.4695,0.0,-1.4769,0.0,0.0,0.0,0.0,0.0,-1.5014,0.0,0.0,0.0,0.0,0.0,0.0,0.0,0.0,0.0,0.0,0.0,0.0,0.0,0.0,0.0,0.0,0.0,0.0,0.0,0.0,0.0,0.0,0.0,0.0,0.0,0.0,-1.2881,-1.2393,-1.2523,-1.3435,-1.3317,-1.3714,-1.4766,-1.5078,-1.5003,-1.451,-1.451,-1.4273,-1.3666,-1.3425,-1.3312,-1.3321,-1.2704,-1.2434,-1.2393,-1.1822,-1.1634,-1.1654,-1.1693,-1.1797,-1.1891,-1.2098,-1.2231,-1.2338,-1.2714,-1.2946,-1.3253,-1.969,-1.963,0.0,0.0,0.0,0.0,0.0,0.0,0.0,0.0,0.0,0.0,0.0,0.0,0.0,0.0,0.0,-1.6522,-1.6522,0.0,-1.6522,0.0,0.0,-1.6522,0.0,0.0,-1.6522,-1.6522,-1.6522,0.0,0.0,0.0,0.0,0.0,-1.6522,-1.6522,-1.6522,-1.6522,-1.6522,-1.6522,-1.6466,-1.6466,-1.6405,0.0,-1.5949,-1.6423,-1.6423,0.0,0.0,-1.5534,-1.5751,0.0,0.0,0.0,0.0,0.0,0.0,0.0,0.0,0.0,0.0,-1.4389,0.0,0.0,0.0,0.0,-1.2881,0.0,0.0,0.0,0.0,0.0,0.0,0.0,0.0,0.0,0.0,0.0,0.0,0.0,0.0,0.0,0.0,0.0,0.0,-1.2881,-1.2881,-1.3066,-1.3486,-1.3464,-1.3916,-1.4756,-1.4795,-1.5,-1.5352,-1.5352,-1.5352,-1.5294,-1.451,-1.4154,-1.4145,-1.3321,-1.2964,-1.292,-1.2386,-1.2136,-1.2101,-1.1648,-1.161,-1.187,-1.1877,-1.2051,-1.2338,-1.2714,-1.2946,-1.3253,0.0,0.0,0.0,0.0,0.0,0.0,0.0,-1.7544,0.0,0.0,0.0,0.0,0.0,-1.6522,-1.6522,0.0,0.0,-1.6522,-1.6522,-1.6522,0.0,0.0,0.0,-1.6522,0.0,0.0,-1.6522,-1.6522,-1.6522,-1.6522,0.0,0.0,0.0,0.0,-1.6522,-1.6522,0.0,0.0,0.0,0.0,0.0,-1.6522,-1.6479,0.0,0.0,-1.6522,-1.6522,-1.6522,0.0,-1.6207,-1.5921,-1.5867,-1.6872,-1.6921,-1.6751,-1.7663,-1.7763,0.0,0.0,0.0,-1.6407,-1.5122,0.0,0.0,0.0,0.0,0.0,0.0,0.0,0.0,0.0,0.0,0.0,0.0,0.0,0.0,0.0,0.0,0.0,0.0,0.0,0.0,0.0,0.0,0.0,-1.2881,-1.2881,-1.2939,-1.3086,-1.3359,-1.3769,-1.4336,-1.4639,-1.498,-1.541,-1.541,-1.541,-1.541,-1.5108,-1.4991,-1.4991,-1.4154,-1.3786,-1.3734,-1.3063,-1.2749,-1.2718,-1.2158,-1.2105,-1.2419,-1.2002,-1.2044,-1.2338,-1.2714,-1.2946,-1.328,-1.998,0.0,0.0,0.0,0.0,0.0,0.0,0.0,0.0,0.0,-1.7907,0.0,-1.7118,0.0,-1.7229,0.0,-1.7146,-1.6909,-1.6522,-1.668,0.0,-1.6522,-1.6522,0.0,0.0,0.0,0.0,-1.6522,-1.6522,-1.6522,0.0,0.0,0.0,0.0,-1.6522,-1.6522,-1.6522,0.0,-1.6522,0.0,0.0,-1.6522,0.0,0.0,-1.6522,-1.6522,0.0,-1.6522,-1.6522,-1.6522,-1.6323,-1.6423,-1.8223,-1.8252,-1.7775,-1.8821,-1.8548,-1.79,-1.7774,-1.7392,0.0,-1.5531,-1.5077,0.0,-1.346,0.0,0.0,0.0,0.0,0.0,0.0,0.0,0.0,0.0,0.0,0.0,0.0,-1.2881,0.0,0.0,0.0,0.0,0.0,0.0,-1.2881,-1.2881,-1.2881,-1.2881,0.0,0.0,-1.3545,-1.4058,-1.4404,-1.4824,-1.54,-1.541,-1.541,-1.541,-1.541,-1.541,-1.5352,-1.4874,-1.4628,-1.4569,-1.3786,-1.3433,-1.3381,-1.275,-1.2744,-1.3124,-1.2462,-1.2451,-1.2774,-1.2783,-1.3006,-1.342,0.0,0.0,0.0,0.0,-1.969,0.0,0.0,0.0,-1.9207,0.0,-1.8817,-1.9244,-1.8302,-1.8419,-1.8574,-1.8612,-1.8302,-1.7666,-1.6637,-1.7076,0.0,0.0,-1.6552,-1.6552,-1.6522,0.0,0.0,0.0,0.0,0.0,0.0,0.0,0.0,0.0,-1.6522,0.0,-1.6522,-1.6522,-1.6522,-1.6522,-1.6522,-1.6522,-1.6522,-1.6522,-1.6522,-1.6522,-1.6522,-1.6522,-1.6522,-1.6522,-1.6986,-1.7802,-1.9196,-1.971,-1.9798,-1.9798,-1.9309,-1.8647,-1.8133,-1.7573,-1.6881,-1.5669,0.0,0.0,0.0,0.0,-1.3815,0.0,0.0,0.0,0.0,0.0,0.0,0.0,0.0,0.0,0.0,0.0,0.0,0.0,0.0,0.0,0.0,-1.2881,-1.2881,-1.2881,-1.2881,-1.2881,0.0,0.0,-1.3281,-1.4058,-1.4107,-1.4515,-1.54,-1.541,-1.541,-1.541,-1.541,-1.541,-1.541,-1.541,-1.541,-1.5352,-1.4569,-1.4273,-1.4213,-1.3364,-1.3492,-1.409,-1.3109,-1.3177,-1.371,-1.301,-1.312,-1.3546,-2.0483,-1.9965,-1.969,0.0,-1.969,-1.9639,0.0,0.0,0.0,0.0,-1.8779,-1.8688,-1.9244,-1.865,-1.8341,-1.8574,-1.8302,0.0,0.0,0.0,0.0,-1.7105,-1.7463,-1.7312,-1.6522,-1.7034,0.0,-1.6522,0.0,0.0,-1.6522,0.0,0.0,0.0,0.0,0.0,-1.6522,-1.6522,-1.6522,-1.6522,-1.6522,-1.6522,0.0,0.0,-1.6522,-1.6522,-1.6522,-1.6522,-1.6522,-1.6522,-1.6647,-1.6861,-1.7237,-1.8493,-1.9798,-1.9798,-1.9673,-1.9484,-1.9368,-1.8648,-1.7761,-1.6966,-1.6139,-1.5336,0.0,0.0,0.0,0.0,0.0,0.0,0.0,0.0,0.0,0.0,0.0,0.0,0.0,0.0,0.0,-1.2881,0.0,0.0,-1.2881,-1.2881,-1.2881,-1.2881,-1.2881,-1.2881,-1.2881,0.0,0.0,-1.4058,-1.4453,-1.4873,-1.54,-1.541,-1.541,-1.541,-1.541,-1.541,-1.541,-1.541,-1.541,-1.541,-1.5167,-1.5108,-1.505,-1.4213,-1.4303,-1.4932,-1.409,-1.4187,-1.4641,-1.3304,-1.2986,-1.3353,-2.0748,0.0,0.0,-1.969,0.0,0.0,-1.969,0.0,0.0,-1.9639,-1.9169,0.0,-1.9639,-1.9169,-1.8893,-1.9043,-1.8893,0.0,-1.8458,0.0,0.0,-1.7666,-1.7947,-1.7827,-1.7188,-1.7463,0.0,-1.6522,0.0,0.0,-1.6522,0.0,0.0,0.0,0.0,-1.6522,0.0,-1.6522,-1.6522,-1.6522,-1.6522,0.0,0.0,-1.6522,-1.6522,-1.6522,-1.6522,-1.6522,-1.6522,-1.6522,-1.6522,-1.6685,-1.7652,-1.8807,-1.9798,-1.9798,-1.9472,-1.9158,-1.9397,-1.8719,-1.7834,-1.7454,-1.6642,-1.582,-1.5231,-1.5096,-1.5096,0.0,0.0,0.0,0.0,0.0,0.0,0.0,0.0,0.0,0.0,0.0,0.0,0.0,-1.2881,0.0,-1.2881,-1.2881,-1.2881,-1.2881,-1.2881,-1.2881,0.0,0.0,0.0,-1.4068,-1.4736,-1.5176,-1.541,-1.5596,-1.5596,-1.541,-1.541,-1.541,-1.541,-1.541,-1.541,-1.541,-1.541,-1.541,-1.5352,-1.4923,-1.507,-1.5612,-1.5112,-1.5002,-1.5117,-1.4159,-1.3798,-1.3838,0.0,0.0,0.0,0.0,0.0,0.0,0.0,-1.969,0.0,-1.969,0.0,-1.969,-1.969,-1.969,-1.969,-1.969,0.0,-1.9479,-1.9043,-1.9006,-1.8765,-1.8224,-1.8263,-1.8263,-1.8185,-1.7987,-1.7544,0.0,0.0,0.0,0.0,0.0,0.0,0.0,0.0,0.0,0.0,-1.6522,-1.6522,-1.6522,-1.6522,-1.6522,-1.6522,-1.6522,-1.6522,-1.6522,-1.6522,-1.6522,-1.6522,-1.6522,-1.6522,-1.6861,-1.8769,-1.9472,-1.9585,-1.9535,-1.8857,-1.8242,-1.8769,-1.8267,-1.7551,-1.7413,-1.6948,-1.638,-1.582,-1.572,-1.572,-1.572,-1.5287,-1.5242,0.0,0.0,0.0,0.0,0.0,0.0,0.0,0.0,0.0,0.0,0.0,0.0,-1.2929,-1.2881,-1.2881,-1.2881,-1.2881,-1.2881,0.0,0.0,0.0,-1.4068,-1.4912,-1.5381,-1.5498,0.0,-1.5811,-1.5498,-1.5439,-1.541,-1.541,-1.541,-1.541,-1.541,-1.541,-1.541,-1.541,-1.541,-1.5703,-1.6159,-1.6151,-1.5875,-1.5587,-1.5587,-1.53,-1.4888,0.0,0.0,0.0,0.0,0.0,-2.0532,-1.9818,-1.969,-1.969,-1.969,-1.969,-1.969,-1.969,-1.969,-1.969,-1.969,-1.969,0.0,0.0,0.0,0.0,-1.8779,-1.9169,-1.9132,-1.8535,-1.9043,-1.9281,0.0,0.0,0.0,0.0,0.0,0.0,0.0,0.0,0.0,-1.6522,-1.6522,0.0,-1.6522,-1.6522,-1.6522,-1.6522,-1.6522,-1.6522,-1.6522,-1.6522,-1.6522,-1.6522,-1.6522,-1.6522,-1.6584,-1.6974,-1.7727,-1.843,-1.8091,-1.7865,-1.7802,-1.8229,-1.7903,-1.7413,-1.7388,-1.6948,-1.6466,-1.638,-1.6337,-1.6337,-1.6337,-1.625,-1.6107,-1.582,0.0,0.0,0.0,0.0,0.0,0.0,0.0,0.0,0.0,0.0,-1.3467,0.0,-1.2881,-1.2881,0.0,0.0,0.0,0.0,0.0,0.0,0.0,-1.4629,0.0,0.0,0.0,-1.5664,-1.5947,-1.5586,-1.541,-1.541,-1.541,-1.541,-1.541,-1.541,-1.541,-1.541,-1.541,-1.5889,-1.6597,-1.6973,-1.7283,-1.751,-1.751,-1.7095,-1.6512,0.0,0.0,0.0,0.0,0.0,0.0,0.0,-1.969,0.0,-1.969,-1.969,-1.969,-1.969,-1.969,-1.969,-1.969,-1.969,-1.969,-1.969,-1.969,-1.9566,-1.9332,-1.9566,0.0,-1.9169,-1.953,-1.969,-1.969,0.0,0.0,0.0,0.0,0.0,0.0,0.0,-1.6522,0.0,0.0,0.0,-1.6522,-1.6522,-1.6522,-1.6522,-1.6522,-1.6522,-1.6522,-1.6522,-1.6522,-1.6522,-1.6522,-1.6522,-1.6572,-1.6873,-1.7338,-1.7802,-1.789,-1.7777,-1.7702,-1.8091,-1.7589,-1.6999,-1.73,-1.6948,-1.6522,-1.6522,-1.6522,-1.6522,-1.6522,-1.6522,-1.6337,-1.572,-1.5644,0.0,0.0,0.0,0.0,0.0,0.0,0.0,0.0,0.0,0.0,0.0,0.0,0.0,0.0,0.0,0.0,0.0,0.0,0.0,0.0,0.0,0.0,0.0,0.0,0.0,-1.5723,-1.5508,-1.541,-1.541,-1.541,-1.541,-1.541,-1.541,-1.541,-1.541,-1.541,-1.5937,-1.6694,-1.6963,-1.7441,-1.8008,-1.8008,-1.7781,-1.7441,0.0,-2.1197,0.0,0.0,-2.115,0.0,-1.9747,-2.0015,-2.012,-1.9747,-1.969,-1.969,-1.969,-1.969,-1.969,-1.969,-1.969,-1.969,-1.969,-1.969,-1.969,-1.969,-1.969,-1.969,-1.969,-1.969,-1.969,0.0,0.0,0.0,0.0,0.0,0.0,0.0,0.0,0.0,0.0,0.0,-1.6837,-1.6756,-1.6812,-1.6832,-1.6832,-1.6832,-1.6832,-1.6863,-1.6833,-1.6748,-1.667,-1.665,-1.6595,-1.6597,-1.7049,-1.72,-1.7287,-1.7714,-1.7626,-1.7451,-1.7752,-1.7187,-1.666,-1.7237,-1.7036,-1.6697,-1.6697,-1.6697,-1.666,-1.6547,-1.6522,-1.6337,-1.5864,-1.6194,0.0,0.0,0.0,0.0,0.0,0.0,0.0,0.0,0.0,0.0,-1.405,0.0,0.0,0.0,0.0,0.0,0.0,0.0,0.0,0.0,0.0,-1.5371,-1.5547,0.0,-1.5801,-1.5547,-1.5459,-1.541,-1.541,-1.541,-1.541,-1.541,-1.541,-1.5469,-1.5537,-1.5449,-1.5986,-1.6865,-1.6768,-1.7256,-1.8008,-1.8008,-1.8008,-1.791,0.0,0.0,0.0,0.0,0.0,0.0,-1.9945,-2.1023,-2.1493,-1.9925,-1.969,-1.969,-1.969,-1.969,-1.969,-1.969,-1.969,-1.969,-1.969,-1.969,-1.969,-1.969,-1.969,-1.969,-1.969,-1.969,-1.969,0.0,0.0,0.0,0.0,0.0,0.0,0.0,0.0,0.0,0.0,-1.8152,-1.8028,-1.7531,-1.7845,-1.7968,-1.7968,-1.7968,-1.7968,-1.7945,-1.795,-1.7664,-1.7218,-1.7238,-1.6909,-1.6522,-1.6584,-1.6597,-1.6609,-1.666,-1.6647,-1.6622,-1.6672,-1.6597,-1.666,-1.7237,-1.7338,-1.73,-1.73,-1.73,-1.7149,-1.6622,-1.6522,-1.6466,-1.6423,-1.6479,-1.6466,0.0,0.0,0.0,0.0,0.0,0.0,0.0,0.0,0.0,0.0,-1.4097,0.0,0.0,0.0,0.0,0.0,0.0,0.0,-1.4068,0.0,-1.5215,-1.6056,-1.5654,-1.5654,-1.6056,-1.5596,-1.541,-1.541,-1.541,-1.541,-1.541,-1.541,-1.5635,-1.5977,-1.5576,-1.6162,-1.7285,-1.6885,-1.7256,-1.8008,-1.8008,-1.8008,-1.8018,0.0,0.0,0.0,0.0,0.0,0.0,0.0,-2.1857,-2.2049,-2.1354,-2.0345,-1.969,-1.969,-1.969,-1.969,-1.969,-1.969,-1.969,-1.969,-1.969,-1.969,-1.969,-1.969,-1.969,-1.969,-1.969,-1.969,0.0,0.0,0.0,0.0,0.0,0.0,0.0,0.0,-1.7666,-1.8893,-1.9168,-1.8852,-1.8186,-1.8142,-1.8096,-1.8096,-1.8096,-1.8096,-1.8107,-1.8087,-1.7977,-1.7787,-1.7773,-1.7196,-1.6522,-1.6522,-1.6522,-1.6522,-1.6522,-1.6522,-1.6522,-1.6522,-1.6522,-1.666,-1.7237,-1.7124,-1.6961,-1.73,-1.7112,-1.6798,-1.6572,-1.6522,-1.6522,-1.6522,-1.6522,-1.6522,0.0,0.0,0.0,0.0,0.0,0.0,0.0,0.0,0.0,0.0,0.0,0.0,0.0,0.0,0.0,0.0,0.0,0.0,-1.4111,0.0,-1.4805,-1.5664,-1.5498,-1.5498,-1.5674,-1.5498,-1.5547,-1.5791,-1.5527,-1.541,-1.541,-1.541,-1.5664,-1.6086,-1.5586,-1.6191,-1.7344,-1.6904,-1.7256,-1.8008,-1.8008,-1.8008,-1.8008,-2.231,0.0,-2.231,0.0,-2.231,-2.231,-2.231,-2.231,-2.231,-2.231,-2.1229,-2.0465,-2.0465,-2.0465,-2.0243,-1.9747,-1.969,-1.969,-1.969,-1.969,-1.969,-1.969,-1.969,0.0,-1.969,-1.969,-1.969,-1.969,-1.969,0.0,0.0,0.0,0.0,0.0,-1.8145,-1.8302,-1.969,-1.969,-1.9403,-1.8905,-1.8665,-1.8571,-1.8571,-1.8571,-1.8571,-1.8571,-1.8571,-1.8467,-1.8359,-1.8355,-1.7747,-1.697,-1.698,-1.6879,-1.6752,-1.6752,-1.6637,-1.6522,-1.6522,-1.6522,-1.6697,-1.7438,-1.72,-1.6923,-1.7488,-1.7187,-1.6722,-1.6559,-1.6522,-1.6522,-1.6522,-1.6522,-1.6522,-1.6522,0.0,0.0,0.0,0.0,0.0,0.0,-1.6522,-1.6324,-1.5908,-1.572,0.0,0.0,0.0,0.0,0.0,0.0,0.0,0.0,0.0,0.0,0.0,-1.54,-1.541,-1.541,-1.541,-1.5566,-1.5869,-1.5684,-1.5674,-1.5801,-1.5801,-1.5977,-1.623,-1.5928,-1.6426,-1.7353,-1.7051,-1.7363,-1.8008,-1.8008,-1.8008,-1.8008,-2.231,-2.231,-2.231,-2.231,-2.231,-2.231,-2.231,-2.231,-2.231,-2.231,-2.2282,-2.2282,-2.2282,-2.2282,-2.1584,-1.9854,-1.969,-1.969,-1.969,-1.969,-1.969,0.0,0.0,-1.969,-1.969,-1.969,-1.969,-1.969,0.0,0.0,-1.969,0.0,-1.969,-1.969,-1.969,-1.969,-1.969,-1.969,-1.9675,-1.9675,-1.9675,-1.9675,-1.9675,-1.9675,-1.9675,-1.9675,-1.9675,-1.9337,-1.8905,-1.8905,-1.851,-1.8079,-1.809,-1.7706,-1.7312,-1.7312,-1.6909,-1.6522,-1.6522,-1.6522,-1.6785,-1.7915,-1.7777,-1.7513,-1.8078,-1.7765,-1.7212,-1.6635,-1.6522,-1.6522,-1.6522,-1.6522,-1.6522,-1.6522,0.0,0.0,0.0,0.0,0.0,-1.6522,-1.6522,-1.6522,-1.6479,-1.5964,0.0,0.0,0.0,0.0,0.0,0.0,0.0,-1.5282,-1.551,0.0,-1.5704,-1.5481,-1.541,-1.541,-1.541,-1.541,-1.543,-1.5859,-1.6299,-1.6655,-1.6655,-1.6719,-1.6719,-1.6719,-1.6982,-1.7383,-1.7373,-1.7637,-1.8008,-1.8008,-1.8008,-1.8008,-2.247,-2.231,-2.231,-2.231,-2.231,-2.231,-2.231,-2.231,-2.231,-2.231,-2.231,-2.231,-2.231,-2.231,-2.2077,0.0,-2.1462,-2.1462,0.0,-2.1462,-2.0926,-1.9747,-2.0085,-2.012,-1.9726,-2.0085,-2.012,-1.969,0.0,0.0,0.0,-2.0572,-2.0752,-2.1021,-2.0094,-1.969,-1.969,-1.969,-1.969,-1.969,-1.969,-1.969,-1.969,-1.969,-1.969,-1.969,-1.969,-1.9579,-1.9468,-1.9468,-1.9339,-1.917,-1.9192,-1.8574,-1.7867,-1.7867,-1.7463,-1.7034,-1.7034,-1.6795,-1.6697,-1.7451,-1.7212,-1.6936,-1.7513,-1.72,-1.6735,-1.6559,-1.6522,-1.6522,-1.6522,-1.6522,-1.6522,-1.6522,-1.6522,0.0,0.0,0.0,0.0,0.0,-1.6522,-1.6522,0.0,-1.6337,0.0,0.0,0.0,0.0,0.0,0.0,0.0,0.0,-1.6001,0.0,-1.6262,-1.6193,-1.5921,-1.541,-1.541,-1.5566,-1.5879,-1.6621,-1.6875,-1.6665,-1.6665,-1.6665,-1.6709,-1.6406,-1.6533,-1.6914,-1.6602,-1.6934,-1.7578,-1.7578,-1.7764,-1.8008,-2.3188,-2.3017,-2.2859,-2.2377,-2.231,-2.231,-2.231,-2.231,-2.231,-2.231,-2.231,-2.231,-2.231,-2.231,0.0,-2.231,-2.231,-2.231,-2.231,-2.231,-2.1811,-2.0731,-2.0812,-2.0681,-2.0208,-2.0832,0.0,-2.0309,-2.1007,-2.1181,-2.0868,-2.1121,-2.1141,-2.0946,-2.1096,-2.0602,-1.969,-1.969,-1.969,-1.969,-1.969,-1.969,-1.969,-1.969,-1.969,-1.969,-1.969,-1.969,-1.969,-1.969,-1.969,-1.969,-1.969,-1.9244,-1.865,-1.8458,-1.8027,-1.7585,-1.7585,-1.7353,-1.7248,-1.7804,-1.7505,-1.7125,-1.7342,-1.7111,-1.6773,-1.6559,-1.6685,-1.6773,-1.6559,-1.6522,-1.6522,-1.6522,-1.6522,-1.6522,-1.6522,0.0,0.0,0.0,0.0,0.0,0.0,-1.6522,-1.6672,0.0,0.0,0.0,0.0,0.0,0.0,-1.6631,-1.6584,0.0,-1.6599,-1.6567,-1.6151,-1.541,-1.5576,-1.5889,-1.6338,-1.7051,-1.7236,-1.6982,-1.7148,-1.7031,-1.6738,-1.6777,-1.6865,-1.6963,-1.6836,-1.7139,-1.7617,-1.7617,-1.7783,-1.8008,-2.419,-2.419,-2.3831,0.0,-2.2432,0.0,-2.231,-2.231,-2.231,-2.231,-2.231,-2.231,-2.231,-2.231,-2.231,-2.231,0.0,0.0,0.0,-2.231,-2.231,-2.231,-2.1764,-2.1306,-2.1007,-2.1778,-2.1961,-2.1435,-2.2077,-2.1853,-2.0816,-2.1485,-2.1105,-1.9929,-2.2473,-2.2143,-1.969,-1.969,-1.969,-1.969,-1.969,-1.969,-1.969,-1.969,-1.969,-1.969,-1.969,-1.969,-1.969,-1.969,-1.969,-1.969,-1.969,-1.969,-1.9603,-1.9095,-1.8574,-1.8185,-1.8185,-1.8145,-1.823,-1.8714,-1.848,-1.7987,-1.7463,-1.742,-1.7295,-1.6708,-1.7024,-1.7238,-1.6653,-1.6522,-1.6522,-1.6522,-1.6522,-1.6522,-1.6522,0.0,0.0,0.0,0.0,0.0,0.0,-1.6522,-1.6522,0.0,0.0,0.0,0.0,0.0,-1.7438,-1.7438,-1.7266,-1.712,-1.6938,-1.6708,-1.6218,-1.5459,-1.5928,-1.6377,-1.6787,-1.7227,-1.7432,-1.7451,-1.7842,-1.7519,-1.6733,-1.7598,-1.7656,-1.7285,-1.7715,-1.79,-1.792,-1.7959,-1.7988,-1.8008,0.0,0.0,-2.4094,-2.3792,-2.375,-2.3422,-2.246,-2.231,-2.231,-2.231,-2.231,-2.231,-2.231,-2.231,-2.231,-2.231,-2.231,-2.231,-2.231,-2.231,-2.231,-2.231,-2.2163,-2.1751,-2.1039,-2.2566,-2.3177,-2.2671,-2.2639,-2.2595,-2.2586,-2.2833,-2.2321,-2.1291,-2.2892,-2.2143,-1.969,-1.969,-1.969,-1.969,-1.969,-1.969,-1.969,-1.969,-1.969,-1.969,-1.969,-1.969,-1.969,-1.969,-1.969,-1.969,-1.969,-1.969,-1.969,-1.9566,-1.9132,-1.8688,-1.8688,-1.8419,-1.8133,-1.8245,-1.8202,-1.8066,-1.7947,-1.7936,-1.7882,-1.7733,-1.75,-1.7287,-1.7144,-1.6795,-1.6522,-1.6522,-1.6522,-1.6522,-1.6522,-1.6522,0.0,0.0,-1.6522,-1.6522,-1.6522,-1.6522,-1.6522,0.0,0.0,0.0,0.0,-1.7463,-1.8003,-1.8003,-1.7974,-1.8031,-1.826,-1.762,-1.6878,-1.5918,-1.6699,-1.7129,-1.7246,-1.7666,-1.7861,-1.7871,-1.7969,-1.7519,-1.6748,-1.6953,-1.6572,-1.5918,-1.6357,-1.6738,-1.708,-1.7412,-1.7734,-1.8008,-2.419,-2.419,-2.419,-2.419,-2.419,-2.3955,-2.3265,-2.3164,-2.3164,-2.3164,-2.2668,-2.231,-2.231,-2.231,-2.231,-2.231,-2.231,-2.231,-2.231,-2.231,-2.231,-2.231,-2.231,-2.2077,-2.1615,-2.2597,-2.3217,-2.3424,-2.2932,-2.2735,-2.2815,-2.3296,-2.2962,-2.1985,-2.2294,-2.1408,-1.969,-1.969,-1.969,-1.969,-1.969,-1.969,-1.969,-1.969,-1.969,-1.969,-1.969,-1.969,-1.969,-1.969,-1.969,-1.969,-1.969,-1.969,-1.969,-1.969,-1.9479,-1.9281,-1.9281,-1.9043,-1.8817,-1.8817,-1.865,-1.8458,-1.8458,-1.8472,-1.8466,-1.8547,-1.8522,-1.8422,-1.8166,-1.7666,-1.7218,-1.6918,-1.668,-1.6522,-1.6522,-1.6522,0.0,-1.6522,-1.6522,-1.6522,-1.6522,-1.6522,-1.6522,-1.6522,-1.681,0.0,-1.6911,-1.7501,-1.794,-1.8191,-1.8455,-1.861,-1.8715,-1.795,-1.7431,-1.7183,-1.7481,-1.7738,-1.795,-1.8004,-1.791,-1.7734,-1.793,-1.7519,-1.6748,-1.6943,-1.6631,-1.6055,-1.6494,-1.6816,-1.708,-1.751,-1.7812,-1.8008,-2.419,-2.419,-2.419,-2.419,-2.419,-2.419,-2.419,-2.419,-2.419,-2.419,-2.3259,-2.2588,-2.2588,-2.2588,-2.2497,-2.231,-2.231,-2.231,-2.231,-2.231,-2.231,-2.231,-2.231,-2.231,-2.231,-2.231,-2.2784,-2.3812,-2.3025,-2.2514,-2.2327,-2.3173,-2.3076,-2.2152,-2.1531,-2.0758,-1.9945,-2.005,-2.0015,-1.9925,-2.005,-1.9945,-1.9711,-1.9854,-1.9899,-1.9873,-1.9848,-1.9822,-1.9771,-1.9726,-1.969,-1.969,-1.969,-1.969,-1.969,-1.969,-1.969,-1.969,-1.969,-1.969,-1.969,-1.969,-1.9369,-1.9006,-1.9006,-1.9024,-1.9098,-1.9277,-1.9628,-1.9809,-1.9433,-1.8863,-1.8238,-1.7671,-1.7024,-1.662,-1.6635,0.0,-1.6522,-1.6522,-1.6522,-1.6559,-1.6635,-1.6647,-1.6685,-1.676,-1.6773,-1.6986,-1.7476,-1.7589,-1.784,-1.8317,-1.8781,-1.8906,-1.8715,-1.8219,-1.8182,-1.8564,-1.8358,-1.8396,-1.8721,-1.8348,-1.7908,-1.7402,-1.7764,-1.7422,-1.666,-1.7031,-1.6924,-1.6582,-1.7012,-1.7178,-1.7236,-1.7656,-1.7812,-1.7812,-2.419,-2.419,-2.419,-2.419,-2.419,-2.419,-2.419,-2.419,-2.419,-2.419,-2.4034,-2.3915,-2.3915,-2.3915,-2.3468,-2.2377,-2.231,-2.231,-2.231,-2.231,-2.231,-2.231,-2.231,-2.231,-2.231,-2.231,-2.2784,-2.3812,-2.2832,-2.2332,-2.231,-2.2462,-2.2182,-2.157,-2.2183,-2.1956,-2.1181,-2.1675,-2.1462,-2.0862,-2.1584,-2.0991,-1.9782,-2.0514,-2.0797,-2.0766,-2.0547,-2.0354,-2.0125,-1.9822,-1.969,-1.969,-1.969,-1.969,-1.969,-1.969,-1.969,-1.969,-1.969,-1.969,-1.969,-1.969,-1.9639,-1.9566,-1.9566,-1.9568,-1.9753,-2.033,-2.0157,-2.0065,-2.0536,-1.9698,-1.8932,-1.8831,-1.7916,-1.7216,-1.7264,0.0,-1.6522,-1.6522,-1.6522,-1.671,-1.72,-1.725,-1.7438,-1.7903,-1.794,-1.799,-1.8078,-1.8518,-1.8819,-1.8845,-1.8933,-1.8906,-1.8715,-1.9427,-1.9506,-1.9011,-1.9805,-1.9824,-1.9194,-1.9135,-1.8487,-1.7393,-1.7451,-1.6982,-1.6172,-1.624,-1.6006,-1.5664,-1.6094,-1.6331,-1.6318,-1.6768,-1.6934,-1.6934,-2.419,-2.419,-2.419,-2.419,-2.419,-2.419,-2.419,-2.419,-2.419,-2.419,-2.419,-2.419,-2.419,-2.419,-2.3955,-2.3359,-2.3312,-2.3312,-2.3312,-2.2694,-2.231,-2.231,-2.231,-2.231,-2.231,-2.231,-2.253,-2.2987,-2.253,-2.231,-2.231,-2.231,-2.2152,-2.1886,-2.2305,-2.2255,-2.1899,-2.218,-2.2077,-2.1751,-2.2152,-2.1827,-2.1134,-2.1554,-2.1703,-2.1697,-2.1577,-2.1173,-2.0645,-2.0288,-2.0288,-2.037,-2.0095,-2.0014,-1.9999,-1.9756,-1.969,-1.969,-1.969,-1.969,-1.969,-1.969,-1.969,-1.969,-1.969,-1.969,-1.9884,-2.0572,-2.0783,-2.0847,-2.0789,-2.0388,-1.985,-1.9114,-1.8303,0.0,0.0,-1.7402,-1.7196,-1.6547,-1.7061,-1.7413,-1.7388,-1.7652,-1.7928,-1.8191,-1.8204,-1.8342,-1.8631,-1.8894,-1.9108,-1.9434,-1.9447,-1.9407,-1.9307,-1.9756,-1.9982,-1.9948,-2.0228,-2.0362,-2.0176,-1.9734,-1.9136,-1.8405,-1.8106,-1.7376,-1.6426,-1.6426,-1.6162,-1.5811,-1.625,-1.6572,-1.6826,-1.7256,-1.7422,-1.7422,-2.4459,-2.4321,-2.419,-2.419,-2.419,-2.419,-2.419,-2.419,-2.419,-2.419,-2.419,-2.419,-2.419,-2.419,-2.419,-2.419,-2.419,-2.419,-2.419,-2.3283,-2.2615,-2.231,-2.231,-2.231,-2.231,-2.231,-2.231,-2.231,-2.231,-2.231,-2.231,-2.231,-2.231,-2.231,-2.231,-2.231,-2.231,-2.231,-2.231,-2.231,-2.231,-2.231,-2.231,-2.231,-2.231,-2.231,-2.231,-2.188,-2.1242,-2.0825,-2.0829,-2.0955,-2.0584,-2.045,-2.0385,-1.9948,-1.9756,-1.969,-1.969,-1.969,-1.969,-1.969,-1.969,-1.969,-1.969,-1.969,-1.9884,-2.0572,-2.1111,-2.1365,-2.1006,-2.0887,-2.0535,-1.9508,0.0,0.0,0.0,-1.8097,-1.7931,-1.7186,-1.7756,-1.8091,-1.779,-1.8141,-1.8442,-1.8568,-1.8581,-1.8756,-1.9183,-1.9208,-1.9384,-1.9798,-1.9798,-1.9861,-1.9999,-2.0125,-2.0476,-2.1054,-2.0945,-2.0985,-2.1199,-2.0504,-1.9902,-1.9436,-1.8839,-1.8135,-1.7264,-1.7163,-1.691,-1.6536,-1.6775,-1.7026,-1.7256,-1.748,-1.7627,-1.7715,-2.5222,-2.4682,-2.419,-2.419,-2.419,-2.419,-2.419,-2.419,-2.419,-2.419,-2.419,-2.419,-2.419,-2.419,-2.419,-2.419,-2.419,-2.419,-2.419,-2.4094,-2.3535,-2.2349,-2.231,-2.231,-2.231,-2.231,-2.231,-2.231,-2.231,-2.231,-2.231,-2.231,-2.231,-2.231,-2.231,-2.231,-2.231,-2.231,-2.231,-2.231,-2.231,-2.231,-2.231,-2.231,-2.231,-2.231,-2.231,-2.2271,-2.2086,-2.1246,-2.0983,-2.099,-2.0957,-2.0959,-2.0855,-2.0385,-1.9999,-1.969,-1.969,-1.969,-1.969,-1.969,-1.969,-1.969,-1.969,-1.969,-1.9884,-2.0572,-2.0752,-2.0961,-2.1515,-2.1132,-2.0685,-2.0604,0.0,0.0,-1.9611,-1.8849,-1.8394,-1.8856,-1.849,-1.8392,-1.8869,-1.8895,-1.9171,-1.9648,-1.9685,-1.9698,-1.9748,-1.9748,-1.9761,-1.9798,-1.9798,-2.0062,-2.0655,-2.1104,-2.1644,-2.2196,-2.2689,-2.253,-2.1818,-2.1756,-2.1063,-1.9812,-1.932,-1.9097,-1.9089,-1.8572,-1.8169,-1.784,-1.749,-1.7093,-1.6738,-1.6348,-1.6465,-1.6826,-2.5303,-2.5072,-2.4877,-2.4877,-2.4877,-2.4723,-2.4266,-2.419,-2.419,-2.419,-2.419,-2.419,-2.419,-2.419,-2.419,-2.419,-2.419,-2.419,-2.419,-2.419,-2.3976,-2.3491,-2.2703,-2.231,-2.231,-2.231,-2.231,-2.231,-2.231,-2.231,-2.231,-2.231,-2.231,-2.231,-2.231,-2.231,-2.231,-2.231,-2.231,-2.231,-2.231,-2.231,-2.231,-2.231,-2.231,-2.231,-2.231,-2.231,-2.2254,-2.1915,-2.1795,-2.1765,-2.1463,-2.1361,-2.131,-2.0866,-2.0627,-2.045,-2.017,-1.9874,-1.969,-1.969,-1.969,-1.969,-1.969,-1.969,-1.9765,-2.0019,-2.0423,-2.0662,-2.0483,-2.0932,-2.1183,-2.0754,0.0,-2.0596,-2.0513,-2.0414,-2.0051,-1.9176,-1.9512,-1.959,-1.9032,-1.9321,-1.9585,-1.9786,-1.9798,-1.9798,-1.9798,-1.9798,-1.9798,-1.9798,-1.9798,-1.9911,-2.0125,-2.069,-2.1091,-2.1305,-2.2196,-2.2259,-2.1645,-2.1977,-2.1584,-2.0563,-2.0366,-2.0056,-1.9682,-1.943,-1.9104,-1.8704,-1.8885,-1.8497,-1.7816,-1.8045,-1.781,-1.7519,-2.5303,-2.5303,-2.5303,-2.5303,-2.5303,-2.5138,-2.462,-2.4559,-2.4459,-2.4228,-2.419,-2.419,-2.419,-2.5107,-2.5713,-2.5713,-2.5713,-2.5273,-2.4263,-2.419,-2.419,-2.419,-2.4325,-2.3938,-2.2927,-2.291,-2.2694,-2.231,-2.248,-2.2561,-2.248,-2.2544,-2.2571,-2.2571,-2.248,-2.2426,-2.2426,-2.2349,-2.231,-2.231,-2.231,-2.231,-2.231,-2.231,-2.231,-2.231,-2.231,-2.231,-2.231,-2.231,-2.231,-2.2231,-2.1911,-2.1703,-2.1545,-2.1274,-2.1119,-2.0941,-2.0602,-2.0317,-2.005,-1.9747,-1.969,-1.969,-1.969,-1.969,-1.969,-1.969,-2.0064,-2.0243,-1.9765,-2.0617,-2.1246,-2.0782,-2.1261,-2.1634,-2.1486,-2.1585,-2.1338,-2.0329,-2.0582,-2.0552,-1.9915,-1.9826,-1.9901,-2.0105,-1.9901,-1.9798,-1.9798,-1.9798,-1.9798,-1.9798,-1.9798,-1.9798,-1.9798,-2.0376,-2.0752,-2.0941,-2.1694,-2.1857,-2.1506,-2.1882,-2.1832,-2.1367,-2.1257,-2.1069,-2.0868,-2.0705,-2.041,-2.0018,-2.0202,-1.9691,-1.8793,-1.9026,-1.8598,-1.7988,-2.5303,-2.5303,-2.5303,-2.5303,-2.5303,-2.5303,-2.5303,-2.5303,-2.5037,-2.4303,-2.4209,-2.4209,-2.419,-2.7071,-2.8994,-2.8994,-2.8994,-2.7658,-2.4447,-2.4245,-2.4226,-2.419,-2.7273,-2.7475,-2.4263,-2.419,-2.358,-2.231,-2.2908,-2.3111,-2.2908,-2.3111,-2.3189,-2.3189,-2.2848,-2.2695,-2.2669,-2.2398,-2.231,-2.231,-2.231,-2.231,-2.231,-2.231,-2.231,-2.231,-2.231,-2.231,-2.231,-2.231,-2.231,-2.231,-2.231,-2.199,-2.1608,-2.1608,-2.1325,-2.1,-2.1,-2.1005,-2.0797,-1.9909,-1.9711,-1.9711,-1.969,-1.969,-1.969,-1.969,-1.969,-1.969,-1.969,-2.0258,-2.0737,-2.0737,-2.1276,-2.1934,-2.2634,-2.2132,-2.1959,-2.2622,-2.1561,-2.1028,-2.1649,-2.0557,-2.0093,-2.0759,-2.0207,-1.9798,-1.9798,-1.9798,-1.9798,-1.9798,-1.9798,-1.9798,-1.9798,-2.0376,-2.0995,-2.1481,-2.1493,-2.1493,-2.1493,-2.1493,-2.1794,-2.2284,-2.1732,-2.2121,-2.3027,-2.2535,-2.2149,-2.188,-2.1416,-2.0466,-1.9236,-1.8774,-1.8389,-1.7949,-2.5303,-2.5303,-2.5303,-2.5303,-2.5303,-2.5303,-2.5303,-2.5303,-2.5233,-2.5012,-2.4968,-2.4766,-2.4247,-2.7071,-2.8994,-2.8994,-2.8994,-2.859,-2.764,-2.7585,-2.6557,-2.43,-2.5126,-2.5181,-2.4226,-2.419,-2.4014,-2.3624,-2.3795,-2.3628,-2.3093,-2.3323,-2.3346,-2.3189,-2.294,-2.2695,-2.2398,-2.2321,-2.231,-2.231,-2.231,-2.231,-2.231,-2.231,-2.231,-2.231,-2.231,-2.231,-2.231,-2.231,-2.231,-2.231,-2.231,-2.2215,-2.2102,-2.2102,-2.2005,-2.184,-2.152,-2.1414,-2.1197,-2.0364,-2.0124,-2.007,-1.9747,-1.969,-1.9824,-2.0303,-2.0408,-2.0557,-2.1006,-2.1635,-2.2084,-2.2084,-2.2622,-2.3101,-2.3295,-2.3182,-2.2937,-2.2725,-2.236,-2.2021,-2.1758,-2.0966,-2.0597,-2.0795,-2.0207,-1.9798,-1.9798,-1.9798,-1.9798,-1.9798,-1.9798,-1.9798,-1.9798,-2.0376,-2.0806,-2.097,-2.1305,-2.1493,-2.1506,-2.1895,-2.2159,-2.2322,-2.2548,-2.2611,-2.2573,-2.2799,-2.2346,-2.1687,-2.2281,-2.168,-2.0476,-2.0327,-1.9493,-1.8366,-2.5303,-2.5303,-2.5303,-2.5303,-2.5303,-2.5303,-2.5303,-2.5303,-2.5303,-2.5303,-2.5303,-2.5138,-2.4678,-2.7581,-2.9008,-2.766,-2.8426,-2.8994,-2.8994,-2.7824,-2.6227,-2.4281,-2.419,-2.419,-2.419,-2.419,-2.419,-2.419,-2.419,-2.3996,-2.3606,-2.4386,-2.431,-2.3588,-2.3455,-2.3289,-2.3042,-2.2867,-2.266,-2.2535,-2.2535,-2.2443,-2.231,-2.231,-2.231,-2.231,-2.231,-2.231,-2.231,-2.231,-2.231,-2.231,-2.231,-2.231,-2.231,-2.231,-2.231,-2.2231,-2.1945,-2.1898,-2.1705,-2.1007,-2.0682,-2.0527,-2.037,-2.0324,-2.0464,-2.1,-2.1111,-2.1231,-2.162,-2.2233,-2.2724,-2.2724,-2.3191,-2.3595,-2.3595,-2.3595,-2.3465,-2.3113,-2.2844,-2.2634,-2.2469,-2.1677,-2.1161,-2.1161,-2.0756,-2.0471,-2.0194,-2.0207,-2.0042,-1.9798,-1.9798,-1.9798,-1.9798,-2.015,-2.0326,-2.0326,-2.0891,-2.1041,-2.084,-2.1405,-2.1656,-2.1681,-2.202,-2.2096,-2.202,-2.2347,-2.2096,-2.1556,-2.2221,-2.1722,-2.0689,-2.0689,-1.9841,-1.8623,-2.5293,-2.5303,-2.5303,-2.5303,-2.5303,-2.5303,-2.5303,-2.5303,-2.5303,-2.5303,-2.5303,-2.5303,-2.5303,-2.8071,-2.8687,-2.5572,-2.7375,-2.8647,-2.8594,-2.5841,-2.419,-2.419,-2.419,-2.419,-2.419,-2.419,-2.419,-2.419,-2.419,-2.419,-2.4245,-2.5988,-2.6025,-2.4612,-2.4337,-2.419,-2.417,-2.3735,-2.3346,-2.3007,-2.3007,-2.279,-2.2405,-2.2377,-2.2377,-2.2377,-2.2349,-2.2349,-2.2321,-2.231,-2.231,-2.231,-2.231,-2.231,-2.231,-2.231,-2.231,-2.231,-2.231,-2.231,-2.2209,-2.1764,-2.1433,-2.1247,-2.1358,-2.1357,-2.1445,-2.1801,-2.1849,-2.1879,-2.1859,-2.2353,-2.2798,-2.2798,-2.3236,-2.3595,-2.3595,-2.3595,-2.3595,-2.3595,-2.3098,-2.3009,-2.3551,-2.25,-2.1744,-2.1697,-2.1697,-2.1472,-2.0894,-2.0894,-2.0597,-1.9991,-1.9901,-1.9901,-1.9901,-1.985,-1.9798,-1.9811,-2.0338,-2.0338,-1.9899,-2.0426,-2.0743,-2.0794,-2.0794,-2.0991,-2.1418,-2.1468,-2.1455,-2.1418,-2.1468,-2.1006,-2.0284,-2.0237,-1.968,-1.8896,-2.5348,-2.5303,-2.5303,-2.5303,-2.5303,-2.5303,-2.5303,-2.5303,-2.5303,-2.5303,-2.5303,-2.5303,-2.5303,-2.5956,-2.611,-2.536,-2.5788,-2.5857,-2.5295,-2.4593,-2.419,-2.419,-2.419,-2.419,-2.419,-2.419,-2.419,-2.419,-2.419,-2.419,-2.4263,-2.7145,-2.8278,-2.786,-2.5328,-2.419,-2.419,-2.4094,-2.3996,-2.3935,-2.3935,-2.3646,-2.3224,-2.3063,-2.2989,-2.2965,-2.273,-2.2625,-2.2573,-2.236,-2.231,-2.231,-2.231,-2.231,-2.231,-2.231,-2.231,-2.231,-2.231,-2.231,-2.2282,-2.2163,-2.2526,-2.272,-2.2083,-2.1913,-2.2141,-2.2879,-2.3025,-2.306,-2.317,-2.331,-2.34,-2.34,-2.3505,-2.3595,-2.3595,-2.3595,-2.3595,-2.3595,-2.3465,-2.3465,-2.3595,-2.2905,-2.2253,-2.1744,-2.1697,-2.1649,-2.152,-2.152,-2.1424,-2.128,-2.0818,-2.0597,-2.0597,-2.0055,-1.9798,-1.9798,-1.9924,-2.0162,-2.0489,-2.0655,-2.0903,-2.1305,-2.1305,-2.1129,-2.0932,-2.1305,-2.123,-2.0945,-2.1317,-2.1369,-2.1194,-2.0772,-2.0091,-1.927,-2.5522,-2.5498,-2.5453,-2.5331,-2.5303,-2.5303,-2.5303,-2.5303,-2.5303,-2.5303,-2.5303,-2.5303,-2.5303,-2.5303,-2.5303,-2.5303,-2.5303,-2.5149,-2.4752,-2.4723,-2.4723,-2.4723,-2.4392,-2.419,-2.419,-2.419,-2.419,-2.419,-2.419,-2.419,-2.4263,-2.7471,-2.8191,-2.6649,-2.4942,-2.419,-2.419,-2.419,-2.419,-2.419,-2.419,-2.3917,-2.35,-2.3392,-2.3282,-2.3165,-2.2996,-2.2925,-2.2885,-2.2579,-2.2474,-2.2474,-2.2344,-2.231,-2.231,-2.231,-2.231,-2.231,-2.231,-2.231,-2.231,-2.231,-2.284,-2.3315,-2.2965,-2.3125,-2.3538,-2.4135,-2.4241,-2.4194,-2.4013,-2.3991,-2.3921,-2.3638,-2.3595,-2.3595,-2.3595,-2.3595,-2.3595,-2.3595,-2.3595,-2.3595,-2.3595,-2.3334,-2.2995,-2.2651,-2.2606,-2.2469,-2.2193,-2.2193,-2.2039,-2.1697,-2.139,-2.1064,-2.0795,-2.0458,-2.0105,-1.9811,-2.0355,-2.0494,-2.0275,-2.0815,-2.0928,-2.069,-2.069,-2.0526,-2.0275,-2.0564,-2.0514,-2.0288,-2.0577,-2.069,-2.0652,-2.0363,-2.0026,-1.9604,-2.5703,-2.5703,-2.5633,-2.5413,-2.5371,-2.5346,-2.5303,-2.5303,-2.5303,-2.5303,-2.5303,-2.5303,-2.5303,-2.5303,-2.5303,-2.5303,-2.5303,-2.5303,-2.5303,-2.5303,-2.5303,-2.5303,-2.4708,-2.4392,-2.4392,-2.4266,-2.419,-2.419,-2.419,-2.419,-2.4263,-2.6943,-2.6759,-2.419,-2.419,-2.419,-2.419,-2.419,-2.419,-2.419,-2.419,-2.3976,-2.361,-2.361,-2.3522,-2.3369,-2.3323,-2.323,-2.3107,-2.2865,-2.276,-2.2683,-2.2457,-2.2361,-2.2361,-2.231,-2.231,-2.231,-2.231,-2.231,-2.2327,-2.2457,-2.3033,-2.3671,-2.3982,-2.4497,-2.502,-2.5266,-2.5335,-2.5182,-2.4632,-2.4552,-2.4389,-2.3948,-2.3794,-2.3767,-2.3767,-2.3681,-2.3595,-2.3595,-2.3595,-2.3655,-2.3759,-2.367,-2.3595,-2.3595,-2.3595,-2.3377,-2.2875,-2.283,-2.2589,-2.2025,-2.1946,-2.1629,-2.114,-2.0917,-2.0508,-1.9991,-2.0901,-2.0794,-1.9845,-2.0749,-2.069,-1.9798,-1.9798,-1.9798,-1.9798,-1.9798,-1.9798,-1.9798,-1.9798,-1.9798,-1.9798,-1.9798,-1.9798,-1.9798,-2.5703,-2.5703,-2.5683,-2.5658,-2.5657,-2.5561,-2.533,-2.5303,-2.5303,-2.5303,-2.5303,-2.5303,-2.5303,-2.5303,-2.5303,-2.5303,-2.5303,-2.5303,-2.5303,-2.5303,-2.5303,-2.5303,-2.5192,-2.516,-2.516,-2.4543,-2.419,-2.419,-2.419,-2.419,-2.4208,-2.4649,-2.4612,-2.419,-2.419,-2.419,-2.419,-2.419,-2.419,-2.419,-2.419,-2.417,-2.4094,-2.4094,-2.4094,-2.4016,-2.3753,-2.3343,-2.2976,-2.3093,-2.3016,-2.283,-2.2683,-2.2666,-2.2587,-2.2361,-2.231,-2.231,-2.231,-2.231,-2.2457,-2.3073,-2.3824,-2.4522,-2.52,-2.5421,-2.5564,-2.5848,-2.5888,-2.5726,-2.5182,-2.5105,-2.5067,-2.4989,-2.4576,-2.4266,-2.4266,-2.3879,-2.3595,-2.3595,-2.3595,-2.3834,-2.4388,-2.3954,-2.3595,-2.3595,-2.3595,-2.3551,-2.3465,-2.3465,-2.3465,-2.3363,-2.2815,-2.2512,-2.2466,-2.1368,-2.0742,-2.069,-2.0784,-2.0453,-1.9812,-1.994,-1.9949,-1.9798,-1.9798,-1.9798,-1.9798,-1.9798,-1.9798,-1.9798,-1.9798,-1.9798,-1.9798,-1.9798,-1.9798,-1.9798,-2.5703,-2.5703,-2.5703,-2.5703,-2.5703,-2.566,-2.5543,-2.5526,-2.5477,-2.5322,-2.5303,-2.5303,-2.5303,-2.5303,-2.5303,-2.5303,-2.5303,-2.5303,-2.5303,-2.5303,-2.5303,-2.5303,-2.5303,-2.5303,-2.5303,-2.4968,-2.4809,-2.4809,-2.4409,-2.419,-2.419,-2.419,-2.419,-2.419,-2.419,-2.419,-2.419,-2.419,-2.419,-2.419,-2.419,-2.419,-2.419,-2.419,-2.419,-2.417,-2.4016,-2.3821,-2.3627,-2.3515,-2.3414,-2.33,-2.3058,-2.2979,-2.2943,-2.283,-2.2666,-2.2536,-2.2536,-2.27,-2.3005,-2.33,-2.4266,-2.5198,-2.5541,-2.593,-2.6236,-2.6369,-2.6401,-2.6245,-2.5726,-2.5652,-2.554,-2.5259,-2.5012,-2.4871,-2.4871,-2.4389,-2.4058,-2.4162,-2.4507,-2.4702,-2.4582,-2.4358,-2.4014,-2.3625,-2.3595,-2.3595,-2.3595,-2.3595,-2.3595,-2.3595,-2.3334,-2.3054,-2.2688,-2.2112,-2.1643,-2.1319,-2.0912,-2.0424,-1.9797,-2.0159,-2.0129,-1.9798,-1.9798,-1.9798,-1.9798,-1.9798,-1.9798,-1.9798,-1.9798,-1.9798,-1.9798,-1.9798,-1.9798,-1.9798]},{"header":{"parameterUnit":"m.s-1","parameterCategory":1,"la1":30.6,"la2":28.766,"lo1":-90.7593,"lo2":-88.6598,"dy":0.0162,"dx":0.0183,"nx":116,"ny":114,"refTime":"2023-04-30T12:00:00:Z","depth":0,"parameterNumber":3,"parameterNumberName":"V-component_of_WINDS"},"data":[0.0,0.0,0.0,0.0,0.0,0.0,0.0,0.0,0.0,0.0,0.0,0.0,0.0,0.0,0.0,0.0,0.0,0.0,0.0,0.0,0.0,0.0,0.0,0.0,0.0,0.0,0.0,0.0,0.0,0.0,0.0,0.0,0.0,0.0,0.0,0.0,0.0,0.0,0.0,0.0,0.0,0.0,0.0,0.0,0.0,0.0,0.0,0.0,0.0,0.0,0.0,0.0,0.0,0.0,0.0,0.0,0.0,0.0,0.0,0.0,0.0,0.0,0.0,0.0,0.0,0.0,0.0,0.0,0.0,0.0,0.0,0.0,0.0,0.0,0.0,0.0,0.0,0.0,0.0,0.0,0.0,0.0,0.0,0.0,0.0,0.0,0.0,0.0,0.0,0.0,0.0,0.0,0.0,0.0,0.0,0.0,0.0,0.0,0.0,0.0,0.0,0.0,0.0,0.0,0.0,0.0,0.0,0.0,0.0,0.0,0.0,0.0,0.0,0.0,0.0,0.0,0.0,0.0,0.0,0.0,0.0,0.0,0.0,0.0,0.0,0.0,0.0,0.0,0.0,0.0,0.0,0.0,0.0,0.0,0.0,0.0,0.0,0.0,0.0,0.0,0.0,0.0,0.0,0.0,0.0,0.0,0.0,0.0,0.0,0.0,0.0,0.0,0.0,0.0,0.0,0.0,0.0,0.0,0.0,0.0,0.0,0.0,0.0,0.0,0.0,0.0,0.0,0.0,0.0,0.0,0.0,0.0,0.0,0.0,0.0,0.0,0.0,0.0,0.0,0.0,0.0,0.0,0.0,0.0,0.0,0.0,0.0,0.0,0.0,0.0,0.0,0.0,0.0,0.0,0.0,0.0,0.0,0.0,0.0,0.0,0.0,0.0,0.0,0.0,0.0,0.0,0.0,0.0,0.0,0.0,0.0,0.0,0.0,0.0,0.0,0.0,0.0,0.0,0.0,0.0,0.0,0.0,0.0,0.0,0.0,0.0,0.0,0.0,0.0,0.0,0.0,0.0,0.0,0.0,0.0,0.0,0.0,0.0,0.0,0.0,0.0,0.0,0.0,0.0,0.0,0.0,0.0,0.0,0.0,0.0,0.0,0.0,0.0,0.0,0.0,0.0,0.0,0.0,0.0,0.0,0.0,0.0,0.0,0.0,0.0,0.0,0.0,0.0,0.0,0.0,0.0,0.0,0.0,0.0,0.0,0.0,0.0,0.0,0.0,0.0,0.0,0.0,0.0,0.0,0.0,0.0,0.0,0.0,0.0,0.0,0.0,0.0,0.0,0.0,0.0,0.0,0.0,0.0,0.0,0.0,0.0,0.0,0.0,0.0,0.0,0.0,0.0,0.0,0.0,0.0,0.0,0.0,0.0,0.0,0.0,0.0,0.0,0.0,0.0,0.0,0.0,0.0,0.0,0.0,0.0,0.0,0.0,0.0,0.0,0.0,0.0,0.0,0.0,0.0,0.0,0.0,0.0,0.0,0.0,0.0,0.0,0.0,0.0,0.0,0.0,0.0,0.0,0.0,0.0,0.0,0.0,0.0,0.0,0.0,0.0,0.0,0.0,0.0,0.0,0.0,0.0,0.0,0.0,0.0,0.0,0.0,0.0,0.0,0.0,0.0,0.0,0.0,0.0,0.0,0.0,0.0,0.0,0.0,0.0,0.0,0.0,0.0,0.0,0.0,0.0,0.0,0.0,0.0,0.0,0.0,0.0,0.0,0.0,0.0,0.0,0.0,0.0,0.0,0.0,0.0,0.0,0.0,0.0,0.0,0.0,0.0,0.0,0.0,0.0,0.0,0.0,0.0,0.0,0.0,0.0,0.0,0.0,0.0,0.0,0.0,0.0,0.0,0.0,0.0,0.0,0.0,0.0,0.0,0.0,0.0,0.0,0.0,0.0,0.0,0.0,0.0,0.0,0.0,0.0,0.0,0.0,0.0,0.0,0.0,0.0,0.0,0.0,0.0,0.0,0.0,0.0,0.0,0.0,0.0,0.0,0.0,0.0,0.0,0.0,0.0,0.0,0.0,0.0,0.0,0.0,0.0,0.0,0.0,0.0,0.0,0.0,0.0,0.0,0.0,0.0,0.0,0.0,0.0,0.0,0.0,0.0,0.0,0.0,0.0,0.0,0.0,0.0,0.0,0.0,0.0,0.0,0.0,0.0,0.0,0.0,0.0,0.0,0.0,0.0,0.0,0.0,0.0,0.0,0.0,0.0,0.0,0.0,0.0,0.0,0.0,0.0,0.0,0.0,0.0,0.0,0.0,0.0,0.0,0.0,0.0,0.0,0.0,0.0,0.0,0.0,0.0,0.0,0.0,0.0,0.0,0.0,0.0,0.0,0.0,0.0,0.0,0.0,0.0,0.0,0.0,0.0,0.0,0.0,0.0,0.0,0.0,0.0,0.0,0.0,0.0,0.0,0.0,0.0,0.0,0.0,0.0,0.0,0.0,0.0,0.0,0.0,0.0,0.0,0.0,0.0,0.0,0.0,0.0,0.0,0.0,0.0,0.0,0.0,0.0,0.0,0.0,0.0,0.0,0.0,0.0,0.0,0.0,0.0,0.0,0.0,0.0,0.0,0.0,0.0,0.0,0.0,0.0,0.0,0.0,0.0,0.0,0.0,0.0,0.0,0.0,0.0,0.0,0.0,0.0,0.0,0.0,0.0,0.0,0.0,0.0,0.0,0.0,0.0,0.0,0.0,0.0,0.0,0.0,0.0,0.0,0.0,0.0,0.0,0.0,0.0,0.0,0.0,0.0,0.0,0.0,0.0,0.0,0.0,0.0,0.0,0.0,0.0,0.0,0.0,0.0,0.0,0.0,0.0,0.0,0.0,0.0,0.0,0.0,0.0,0.0,0.0,0.0,0.0,0.0,0.0,0.0,0.0,0.0,0.0,0.0,0.0,0.0,0.0,0.0,0.0,0.0,0.0,0.0,0.0,0.0,0.0,0.0,0.0,0.0,0.0,0.0,0.0,0.0,0.0,0.0,0.0,0.0,0.0,0.0,0.0,0.0,0.0,0.0,0.0,0.0,0.0,0.0,0.0,0.0,0.0,0.0,0.0,0.0,0.0,0.0,0.0,0.0,0.0,0.0,0.0,0.0,0.0,0.0,0.0,0.0,0.0,0.0,0.0,0.0,0.0,0.0,0.0,0.0,0.0,0.0,0.0,0.0,0.0,0.0,0.0,0.0,0.0,0.0,0.0,0.0,0.0,0.0,0.0,0.0,0.0,0.0,0.0,0.0,0.0,0.0,0.0,0.0,0.0,0.0,0.0,0.0,0.0,0.0,0.0,0.0,0.0,0.0,0.0,0.0,0.0,0.0,0.0,0.0,0.0,0.0,0.0,0.0,0.0,0.0,0.0,0.0,0.0,0.0,0.0,0.0,0.0,0.0,0.0,0.0,0.0,0.0,0.0,0.0,0.0,0.0,0.0,0.0,0.0,0.0,0.0,0.0,0.0,0.0,0.0,0.0,0.0,0.0,0.0,0.0,0.0,0.0,0.0,0.0,0.0,0.0,0.0,0.0,0.0,0.0,0.0,0.0,0.0,0.0,0.0,0.0,0.0,0.0,0.0,0.0,0.0,0.0,0.0,0.0,0.0,0.0,0.0,0.0,0.0,0.0,0.0,0.0,0.0,0.0,0.0,0.0,0.0,0.0,0.0,0.0,0.0,0.0,0.0,0.0,0.0,0.0,0.0,0.0,0.0,0.0,0.0,0.0,0.0,0.0,0.0,0.0,0.0,0.0,0.0,0.0,0.0,0.0,0.0,0.0,0.0,0.0,0.0,0.0,0.0,0.0,0.0,0.0,0.0,0.0,0.0,0.0,0.0,0.0,0.0,0.0,0.0,0.0,0.0,0.0,0.0,0.0,0.0,0.0,0.0,0.0,0.0,0.0,0.0,0.0,0.0,0.0,0.0,0.0,0.0,0.0,0.0,0.0,0.0,0.0,0.0,0.0,0.0,0.0,0.0,0.0,0.0,0.0,0.0,0.0,0.0,0.0,0.0,0.0,0.0,0.0,0.0,0.0,0.0,0.0,0.0,0.0,0.0,0.0,0.0,0.0,0.0,0.0,0.0,0.0,0.0,0.0,0.0,0.0,0.0,0.0,0.0,0.0,0.0,0.0,0.0,0.0,0.0,0.0,0.0,0.0,0.0,0.0,0.0,0.0,0.0,0.0,0.0,0.0,0.0,0.0,0.0,0.0,0.0,0.0,0.0,0.0,0.0,0.0,0.0,0.0,0.0,0.0,0.0,0.0,0.0,0.0,0.0,0.0,0.0,0.0,0.0,0.0,0.0,0.0,0.0,0.0,0.0,0.0,0.0,0.0,0.0,0.0,0.0,0.0,0.0,0.0,0.0,0.0,0.0,0.0,0.0,0.0,0.0,0.0,0.0,0.0,0.0,0.0,0.0,0.0,0.0,0.0,0.0,0.0,0.0,0.0,0.0,0.0,0.0,0.0,0.0,0.0,0.0,0.0,0.0,0.0,0.0,0.0,0.0,0.0,0.0,0.0,0.0,0.0,0.0,0.0,0.0,0.0,0.0,0.0,0.0,0.0,0.0,0.0,0.0,0.0,0.0,0.0,0.0,0.0,0.0,0.0,0.0,0.0,0.0,0.0,0.0,0.0,0.0,0.0,0.0,0.0,0.0,0.0,0.0,0.0,0.0,0.0,0.0,0.0,0.0,0.0,0.0,0.0,0.0,0.0,0.0,0.0,0.0,0.0,0.0,0.0,0.0,0.0,0.0,0.0,0.0,0.0,0.0,0.0,0.0,0.0,0.0,0.0,0.0,0.0,0.0,0.0,0.0,0.0,0.0,0.0,0.0,0.0,0.0,0.0,0.0,0.0,0.0,0.0,0.0,0.0,0.0,0.0,0.0,0.0,0.0,0.0,0.0,0.0,0.0,0.0,0.0,0.0,0.0,0.0,0.0,0.0,0.0,0.0,0.0,0.0,0.0,0.0,0.0,0.0,0.0,0.0,0.0,0.0,0.0,0.0,0.0,0.0,0.0,0.0,0.0,0.0,0.0,0.0,0.0,0.0,0.0,0.0,0.0,0.0,0.0,0.0,0.0,0.0,0.0,0.0,0.0,0.0,0.0,0.0,0.0,0.0,0.0,0.0,0.0,0.0,0.0,0.0,0.0,0.0,0.0,0.0,0.0,0.0,0.0,0.0,0.0,0.0,0.0,0.0,0.0,0.0,0.0,0.0,0.0,0.0,0.0,0.0,0.0,0.0,0.0,0.0,0.0,0.0,0.0,0.0,0.0,0.0,0.0,0.0,0.0,0.0,0.0,0.0,0.0,0.0,0.0,0.0,0.0,0.0,0.0,0.0,0.0,0.0,0.0,0.0,0.0,0.0,0.0,0.0,0.0,0.0,0.0,0.0,0.0,0.0,0.0,0.0,0.0,0.0,0.0,0.0,0.0,0.0,0.0,0.0,0.0,0.0,0.0,0.0,0.0,0.0,0.0,0.0,0.0,0.0,0.0,0.0,0.0,0.0,0.0,0.0,0.0,0.0,0.0,0.0,0.0,0.0,0.0,0.0,0.0,0.0,0.0,0.0,0.0,0.0,0.0,0.0,0.0,0.0,0.0,0.0,0.0,0.0,0.0,0.0,0.0,0.0,0.0,0.0,0.0,0.0,0.0,0.0,0.0,0.0,0.0,0.0,0.0,0.0,0.0,0.0,0.0,0.0,0.0,0.0,0.0,0.0,0.0,0.0,0.0,0.0,0.0,0.0,0.0,0.0,0.0,0.0,0.0,0.0,0.0,0.0,0.0,0.0,0.0,0.0,0.0,0.0,0.0,0.0,0.0,0.0,0.0,0.0,0.0,0.0,0.0,0.0,0.0,0.0,0.0,0.0,0.0,0.0,0.0,0.0,0.0,0.0,0.0,0.0,0.0,0.0,0.0,0.0,0.0,0.0,0.0,0.0,0.0,0.0,0.0,0.0,0.0,0.0,0.0,0.0,0.0,0.0,0.0,0.0,0.0,0.0,0.0,0.0,0.0,0.0,0.0,0.0,0.0,0.0,0.0,0.0,0.0,0.0,0.0,0.0,0.0,0.0,0.0,0.0,-2.1495,0.0,0.0,0.0,0.0,0.0,0.0,0.0,0.0,0.0,0.0,0.0,0.0,0.0,0.0,0.0,0.0,0.0,0.0,0.0,0.0,0.0,0.0,0.0,0.0,0.0,0.0,0.0,0.0,0.0,0.0,0.0,0.0,0.0,0.0,0.0,0.0,0.0,0.0,0.0,0.0,0.0,0.0,0.0,0.0,0.0,0.0,0.0,0.0,0.0,0.0,0.0,0.0,0.0,0.0,0.0,0.0,0.0,0.0,0.0,0.0,0.0,0.0,0.0,0.0,0.0,0.0,0.0,0.0,0.0,0.0,0.0,0.0,0.0,0.0,0.0,0.0,0.0,0.0,0.0,0.0,0.0,0.0,0.0,0.0,0.0,0.0,0.0,0.0,0.0,0.0,0.0,0.0,0.0,0.0,0.0,0.0,0.0,0.0,0.0,0.0,0.0,0.0,0.0,0.0,0.0,0.0,0.0,0.0,0.0,0.0,0.0,0.0,0.0,0.0,0.0,0.0,-2.1915,0.0,0.0,0.0,0.0,0.0,0.0,0.0,0.0,0.0,0.0,0.0,0.0,0.0,0.0,0.0,0.0,0.0,0.0,0.0,0.0,0.0,0.0,0.0,0.0,0.0,0.0,0.0,0.0,0.0,0.0,0.0,0.0,0.0,0.0,0.0,0.0,0.0,0.0,0.0,0.0,0.0,0.0,0.0,0.0,0.0,0.0,0.0,0.0,0.0,0.0,0.0,0.0,0.0,0.0,0.0,0.0,0.0,0.0,0.0,0.0,0.0,0.0,0.0,0.0,0.0,0.0,0.0,0.0,0.0,0.0,0.0,0.0,0.0,0.0,0.0,0.0,0.0,0.0,0.0,0.0,0.0,0.0,0.0,0.0,0.0,0.0,0.0,0.0,0.0,0.0,0.0,0.0,0.0,0.0,0.0,0.0,0.0,0.0,0.0,0.0,0.0,0.0,0.0,0.0,0.0,0.0,0.0,0.0,-2.4547,-2.4945,-2.559,-2.5866,-2.5816,-2.5378,-2.3748,-2.2651,-2.2038,-2.2358,0.0,0.0,0.0,0.0,0.0,0.0,0.0,0.0,0.0,0.0,0.0,0.0,0.0,0.0,0.0,0.0,0.0,0.0,0.0,0.0,0.0,0.0,0.0,0.0,0.0,0.0,0.0,0.0,0.0,0.0,0.0,0.0,0.0,0.0,0.0,0.0,0.0,0.0,0.0,0.0,0.0,0.0,0.0,0.0,0.0,0.0,0.0,0.0,0.0,0.0,0.0,0.0,0.0,0.0,0.0,0.0,0.0,0.0,0.0,0.0,0.0,0.0,0.0,0.0,0.0,0.0,0.0,0.0,0.0,0.0,0.0,0.0,0.0,0.0,0.0,0.0,0.0,0.0,0.0,0.0,0.0,0.0,0.0,0.0,0.0,0.0,-2.2032,-2.1568,0.0,0.0,0.0,0.0,0.0,0.0,0.0,0.0,0.0,0.0,0.0,0.0,0.0,-2.4509,-2.5169,-2.5762,-2.6285,-2.6783,-2.7123,-2.7492,-2.7864,-2.7631,-2.7485,-2.7365,-2.6488,0.0,-2.3571,-2.3362,0.0,0.0,0.0,0.0,0.0,0.0,0.0,0.0,0.0,0.0,0.0,0.0,0.0,0.0,0.0,0.0,0.0,0.0,0.0,0.0,0.0,0.0,0.0,0.0,0.0,0.0,0.0,0.0,0.0,0.0,0.0,0.0,0.0,0.0,0.0,0.0,0.0,0.0,0.0,0.0,0.0,0.0,0.0,0.0,0.0,0.0,0.0,0.0,0.0,0.0,0.0,0.0,0.0,0.0,0.0,0.0,0.0,0.0,0.0,0.0,0.0,0.0,0.0,0.0,0.0,0.0,0.0,0.0,0.0,0.0,0.0,0.0,0.0,0.0,0.0,0.0,0.0,0.0,0.0,0.0,0.0,0.0,0.0,0.0,0.0,-2.1886,-2.1675,-2.1974,-2.1928,-2.2003,0.0,0.0,0.0,0.0,0.0,0.0,0.0,0.0,0.0,-2.5845,-2.6201,-2.6725,-2.7486,-2.7824,-2.848,-2.9475,-2.9627,-3.0015,-3.0532,-3.0386,-3.0108,-2.9668,-2.9178,-2.8254,-2.6926,-2.4876,-2.3579,-2.2885,0.0,0.0,0.0,0.0,-2.322,-2.4116,0.0,0.0,0.0,0.0,0.0,0.0,0.0,0.0,0.0,0.0,0.0,0.0,0.0,0.0,0.0,0.0,0.0,0.0,0.0,0.0,0.0,0.0,0.0,0.0,0.0,0.0,0.0,0.0,0.0,0.0,0.0,0.0,0.0,0.0,0.0,0.0,0.0,0.0,0.0,0.0,0.0,0.0,0.0,0.0,0.0,0.0,0.0,0.0,0.0,0.0,0.0,0.0,0.0,0.0,0.0,0.0,0.0,0.0,0.0,0.0,0.0,0.0,0.0,0.0,0.0,0.0,0.0,0.0,0.0,0.0,0.0,0.0,0.0,0.0,0.0,0.0,0.0,-2.195,-2.1767,-2.2242,-2.217,-2.2128,0.0,0.0,0.0,0.0,0.0,0.0,-2.549,-2.607,-2.7093,-2.8716,-2.8956,-2.942,-3.0228,-3.0434,-3.1153,-3.2419,-3.2419,-3.2814,-3.3573,-3.3328,-3.2934,-3.2406,-3.1949,-3.1358,-3.0415,-2.7085,-2.5261,-2.454,-2.399,-2.4095,-2.4515,-2.4216,-2.4864,-2.5896,0.0,0.0,0.0,0.0,0.0,0.0,0.0,0.0,0.0,0.0,0.0,0.0,0.0,0.0,0.0,0.0,0.0,0.0,0.0,0.0,0.0,0.0,0.0,0.0,0.0,0.0,0.0,0.0,0.0,0.0,0.0,0.0,0.0,0.0,0.0,0.0,0.0,0.0,0.0,0.0,0.0,0.0,0.0,0.0,0.0,0.0,0.0,0.0,0.0,0.0,0.0,0.0,0.0,0.0,0.0,0.0,0.0,0.0,0.0,0.0,0.0,0.0,0.0,0.0,0.0,0.0,0.0,0.0,0.0,0.0,0.0,0.0,0.0,0.0,0.0,0.0,0.0,0.0,0.0,-2.2367,-2.289,0.0,0.0,0.0,0.0,-2.4354,-2.5067,-2.6326,-2.8282,-2.8436,-2.9372,-3.1346,-3.2097,-3.2811,-3.3541,-3.4234,-3.4978,-3.5755,-3.5755,-3.618,-3.694,-3.6162,-3.5791,-3.572,-3.4996,-3.425,-3.3344,-3.0237,-2.8525,-2.786,-2.7824,-2.7977,-2.8211,-2.7942,-2.824,-2.8745,0.0,0.0,0.0,0.0,0.0,0.0,0.0,0.0,0.0,0.0,0.0,0.0,0.0,0.0,0.0,0.0,0.0,0.0,0.0,0.0,0.0,0.0,0.0,0.0,0.0,0.0,0.0,0.0,0.0,0.0,0.0,0.0,0.0,0.0,0.0,0.0,0.0,0.0,0.0,0.0,0.0,0.0,0.0,0.0,0.0,0.0,0.0,0.0,0.0,0.0,0.0,0.0,0.0,0.0,0.0,0.0,0.0,0.0,0.0,0.0,0.0,0.0,0.0,0.0,0.0,0.0,0.0,0.0,0.0,0.0,0.0,0.0,0.0,0.0,0.0,0.0,0.0,0.0,0.0,-2.5621,-2.5985,0.0,-2.676,-2.6753,-2.7,-2.7543,-2.8737,-2.9976,-3.1161,-3.1691,-3.273,-3.4374,-3.4711,-3.519,-3.5989,-3.6236,-3.6502,-3.6785,-3.6785,-3.6945,-3.7173,-3.6909,-3.6502,-3.5988,-3.604,-3.5639,-3.4842,-3.3495,-3.1614,-2.9472,-2.8503,-2.8255,-2.8489,-2.8386,-2.9286,-3.0467,0.0,0.0,0.0,0.0,0.0,0.0,0.0,0.0,0.0,0.0,0.0,0.0,0.0,0.0,0.0,0.0,0.0,0.0,0.0,0.0,0.0,0.0,0.0,0.0,0.0,0.0,0.0,0.0,0.0,0.0,0.0,0.0,0.0,0.0,0.0,0.0,0.0,0.0,0.0,0.0,0.0,0.0,-1.7565,0.0,0.0,0.0,0.0,0.0,0.0,0.0,0.0,0.0,0.0,0.0,0.0,0.0,0.0,0.0,0.0,0.0,0.0,0.0,0.0,0.0,0.0,0.0,0.0,0.0,0.0,0.0,0.0,0.0,0.0,0.0,0.0,0.0,0.0,0.0,-2.7597,-2.8767,-2.901,-2.9443,-3.0422,-3.0216,-3.0366,-3.1207,-3.2157,-3.3241,-3.4411,-3.4947,-3.5751,-3.6859,-3.7451,-3.7864,-3.8097,-3.8367,-3.8367,-3.8097,-3.8097,-3.8097,-3.8097,-3.7828,-3.7559,-3.7307,-3.7362,-3.7112,-3.6612,-3.6058,-3.4645,-3.2613,-3.0738,-3.0125,-3.0283,-3.0283,-3.1287,-3.254,0.0,0.0,0.0,0.0,0.0,0.0,0.0,0.0,0.0,0.0,0.0,0.0,0.0,0.0,0.0,0.0,0.0,0.0,0.0,0.0,0.0,0.0,0.0,0.0,0.0,0.0,0.0,0.0,0.0,0.0,0.0,0.0,0.0,0.0,0.0,0.0,0.0,0.0,0.0,0.0,0.0,0.0,-1.9522,0.0,0.0,0.0,0.0,0.0,0.0,0.0,0.0,0.0,0.0,0.0,0.0,0.0,0.0,0.0,0.0,0.0,0.0,0.0,0.0,0.0,0.0,0.0,0.0,0.0,0.0,0.0,0.0,0.0,0.0,0.0,0.0,0.0,-2.7477,-2.8558,-3.0033,-3.1684,-3.1844,-3.2166,-3.3042,-3.3037,-3.363,-3.513,-3.5221,-3.6055,-3.8013,-3.8104,-3.8307,-3.875,-4.0304,-4.0726,-3.9937,-4.0726,-4.0726,-3.9937,-3.99,-3.99,-3.9863,-3.9074,-3.9129,-3.9808,-3.9038,-3.8707,-3.8634,-3.7826,-3.7507,-3.7239,-3.4816,-3.388,-3.3862,-3.3844,-3.4339,-3.5009,0.0,0.0,0.0,0.0,0.0,0.0,0.0,0.0,0.0,0.0,0.0,0.0,0.0,0.0,0.0,0.0,0.0,0.0,0.0,0.0,0.0,0.0,0.0,0.0,0.0,0.0,0.0,0.0,0.0,0.0,0.0,0.0,0.0,0.0,0.0,0.0,0.0,0.0,0.0,0.0,0.0,0.0,-1.9801,0.0,0.0,0.0,0.0,0.0,0.0,0.0,0.0,0.0,0.0,0.0,0.0,0.0,0.0,0.0,0.0,0.0,0.0,0.0,0.0,0.0,0.0,0.0,0.0,0.0,0.0,0.0,0.0,0.0,0.0,0.0,0.0,-3.0513,-3.0749,-3.2517,-3.4408,-3.6158,-3.6486,-3.6951,-3.7908,-3.7645,-3.776,-3.8514,-3.9079,-3.9659,-4.0215,-4.0251,-4.0317,-4.0451,-4.0873,-4.1001,-4.0781,-4.1001,-4.1001,-4.0763,-4.0175,-3.99,-3.9863,-3.9074,-3.8817,-3.9019,-3.8799,-3.8707,-3.8634,-3.7826,-3.7507,-3.7349,-3.6101,-3.5605,-3.5532,-3.4908,-3.4807,-3.5211,0.0,0.0,0.0,0.0,0.0,0.0,0.0,0.0,0.0,0.0,0.0,0.0,0.0,0.0,0.0,0.0,0.0,0.0,0.0,0.0,0.0,0.0,0.0,0.0,0.0,0.0,0.0,0.0,0.0,0.0,0.0,0.0,0.0,0.0,0.0,0.0,0.0,0.0,0.0,0.0,0.0,0.0,-2.2637,-2.3311,-2.3755,-2.4072,-2.4185,-2.5085,-2.608,-2.5088,0.0,0.0,0.0,0.0,0.0,0.0,0.0,0.0,0.0,0.0,0.0,0.0,0.0,0.0,0.0,0.0,0.0,0.0,0.0,0.0,0.0,0.0,0.0,0.0,-3.2477,-3.435,-3.589,-3.653,-3.7582,-3.9626,-3.9695,-4.0074,-4.1299,-4.0839,-4.0732,-4.1368,-4.1534,-4.1607,-4.1607,-4.1607,-4.146,-4.113,-4.1754,-4.1937,-4.1625,-4.1937,-4.1937,-4.1607,-4.113,-4.0804,-4.0572,-3.9741,-3.9441,-3.9547,-3.924,-3.9091,-3.9054,-3.8571,-3.8366,0.0,0.0,0.0,0.0,0.0,-3.6107,-3.6131,0.0,0.0,0.0,0.0,0.0,0.0,0.0,0.0,0.0,0.0,0.0,0.0,0.0,0.0,0.0,0.0,0.0,0.0,0.0,0.0,0.0,0.0,0.0,0.0,0.0,0.0,0.0,0.0,0.0,0.0,0.0,0.0,0.0,0.0,0.0,0.0,0.0,0.0,0.0,0.0,0.0,0.0,-2.6825,-2.6757,-2.6976,-2.7411,-2.7837,-2.771,-2.7343,-2.7077,0.0,0.0,0.0,0.0,0.0,0.0,0.0,0.0,0.0,0.0,0.0,0.0,0.0,0.0,0.0,0.0,0.0,0.0,0.0,0.0,0.0,0.0,0.0,0.0,-3.6345,-3.8596,-4.1411,-4.0379,-4.0115,-4.2179,-4.1842,-4.1985,-4.3351,-4.2904,-4.2776,-4.3442,-4.2837,-4.2466,-4.2481,0.0,0.0,0.0,0.0,-4.3281,-4.258,-4.3281,-4.3281,-4.2562,-4.247,-4.2199,-4.1763,-4.0905,-4.0675,-4.0915,-4.0108,-3.975,-3.9731,-3.9637,-3.9599,-3.9402,-3.7458,-3.6629,-3.6657,-3.7705,-3.777,-3.7457,0.0,0.0,0.0,0.0,0.0,0.0,0.0,0.0,0.0,0.0,0.0,0.0,0.0,0.0,0.0,0.0,0.0,0.0,0.0,0.0,0.0,0.0,0.0,0.0,0.0,0.0,0.0,0.0,0.0,0.0,0.0,0.0,0.0,0.0,0.0,0.0,0.0,0.0,0.0,0.0,0.0,0.0,-2.9478,-2.887,-2.9252,-2.992,-2.8868,-2.9814,-3.1377,-3.0378,-2.8712,-2.6686,-2.4813,0.0,0.0,0.0,0.0,0.0,0.0,0.0,0.0,0.0,0.0,0.0,0.0,0.0,0.0,0.0,0.0,0.0,0.0,0.0,0.0,-3.6453,-3.875,-4.0842,-4.2713,-4.3258,-4.3415,-4.3287,-4.3389,-4.3471,-4.3495,-4.361,-4.3638,-4.3513,-4.3351,-4.3391,-4.3639,-4.367,-4.3748,-4.3941,-4.4223,-4.4317,-4.4167,-4.4317,-4.4317,-4.4148,0.0,0.0,-4.2937,-4.2109,-4.1801,-4.1793,-4.1,-4.0641,-4.0585,-3.9905,-3.9599,-3.9561,-3.9142,-3.8568,-3.8103,-3.8959,-3.8803,-3.8326,0.0,0.0,0.0,0.0,0.0,0.0,0.0,0.0,0.0,0.0,0.0,0.0,0.0,0.0,0.0,0.0,0.0,0.0,0.0,0.0,0.0,0.0,0.0,0.0,0.0,0.0,0.0,0.0,0.0,0.0,0.0,0.0,0.0,0.0,0.0,0.0,0.0,0.0,0.0,0.0,0.0,0.0,-3.4411,-3.3092,-3.2826,-3.2987,-3.2026,-3.2347,-3.3045,-3.2428,-3.1573,-3.0265,-2.7482,-2.6749,-2.6704,0.0,0.0,0.0,0.0,0.0,0.0,0.0,0.0,0.0,0.0,0.0,0.0,0.0,0.0,-3.1309,0.0,0.0,-3.7335,-3.9714,-4.1519,-4.2979,-4.4051,-4.4574,-4.464,-4.4087,-4.4194,-4.4252,-4.4065,-4.4194,-4.4223,-4.4065,-4.4035,-4.4106,-4.429,-4.429,-4.4373,-4.458,-4.458,-4.458,-4.458,-4.458,-4.458,-4.458,-4.4171,-4.3812,-4.354,-4.3122,-4.2813,-4.2581,-4.218,-4.1989,-4.1932,-4.1074,-4.0692,-4.0653,-4.0215,-3.9717,-3.9311,-3.9688,-3.9678,-3.9528,0.0,0.0,0.0,0.0,0.0,0.0,0.0,0.0,0.0,0.0,0.0,0.0,0.0,0.0,0.0,0.0,0.0,0.0,0.0,0.0,0.0,0.0,0.0,0.0,0.0,0.0,0.0,0.0,0.0,0.0,0.0,0.0,0.0,0.0,0.0,0.0,0.0,0.0,0.0,0.0,0.0,0.0,-3.9014,-3.7185,-3.6262,-3.5875,-3.5239,-3.4478,-3.3765,-3.3707,-3.4241,-3.4463,-3.1883,-3.0679,-2.9684,-2.6705,-2.5607,0.0,0.0,0.0,0.0,0.0,0.0,0.0,0.0,0.0,-3.1168,-3.4032,-3.4661,-3.5196,-3.6826,-3.8735,-4.0688,-4.2675,-4.3886,-4.4703,-4.5143,-4.5201,-4.5093,-4.4834,-4.4751,-4.4657,-4.4624,-4.4657,-4.4657,-4.4606,-4.458,-4.4631,-4.4682,-4.4701,-4.4751,-4.4781,-4.4781,-4.4781,-4.4781,-4.4781,-4.4781,-4.4781,-4.4781,-4.4558,-4.4149,-4.4149,-4.3925,-4.3585,-4.3412,-4.3239,-4.3047,-4.2335,-4.2047,-4.1989,-4.1277,-4.0775,-4.0406,-4.0234,-4.0302,-4.0489,0.0,0.0,0.0,0.0,0.0,0.0,0.0,0.0,0.0,0.0,0.0,0.0,0.0,0.0,0.0,0.0,0.0,0.0,0.0,0.0,0.0,0.0,0.0,0.0,0.0,0.0,0.0,0.0,0.0,0.0,0.0,0.0,0.0,0.0,0.0,0.0,0.0,0.0,0.0,0.0,0.0,0.0,-4.0495,-3.8842,-3.8115,-3.7779,-3.6299,-3.5187,-3.4392,-3.4381,-3.6417,-3.8876,-3.8536,-3.6744,-3.3853,-2.9171,0.0,-2.5653,-2.6419,-2.7152,-2.7902,-2.867,-2.957,-3.1077,0.0,0.0,-3.5315,-3.7147,-3.9469,-4.0931,-4.0185,-4.1482,-4.2999,-4.3958,-4.4878,-4.547,-4.5528,-4.5528,-4.553,-4.5475,-4.5222,-4.4919,-4.4631,-4.4872,-4.4919,-4.4606,-4.458,-4.4751,-4.503,-4.5052,-4.518,-4.5495,-4.5495,-4.5495,-4.5495,-4.5495,-4.5495,-4.5495,-4.5495,-4.5475,-4.5396,-4.5396,-4.5376,-4.5278,-4.4489,-4.3758,-4.3085,-4.2989,-4.2951,-4.2931,-4.2854,-4.2319,-4.1533,-4.0745,-4.0473,-4.0489,0.0,0.0,0.0,0.0,0.0,0.0,0.0,0.0,0.0,0.0,0.0,0.0,0.0,0.0,0.0,0.0,0.0,0.0,0.0,0.0,0.0,0.0,0.0,0.0,0.0,0.0,0.0,0.0,0.0,0.0,0.0,0.0,0.0,0.0,0.0,0.0,0.0,0.0,0.0,0.0,0.0,0.0,-4.1342,-3.9757,-3.8167,-3.6603,-3.5265,-3.4224,0.0,0.0,-3.3444,-3.4566,-3.7677,-3.7204,-3.509,-3.3015,-2.989,0.0,-2.7431,-2.8454,0.0,0.0,-3.2699,-3.4718,-3.7149,-3.7717,-3.8193,-3.9858,-4.1546,-4.272,-4.2701,-4.3717,-4.4677,0.0,-4.5355,-4.5586,-4.5586,-4.5586,-4.5586,-4.5586,-4.5476,-4.5342,-4.5201,-4.5322,-4.5342,-4.5182,-4.5182,-4.5453,-4.6109,-4.6167,-4.6417,-4.7048,-4.6605,-4.6355,-4.6355,-4.5836,-4.5586,-4.5586,-4.5586,-4.5586,-4.5586,-4.5586,-4.5586,-4.5566,-4.5201,-4.4874,-4.4509,-4.4008,-4.3797,-4.3758,-4.3278,-4.2874,-4.245,-4.1585,-4.1258,-4.1181,0.0,0.0,0.0,0.0,0.0,0.0,0.0,0.0,0.0,0.0,0.0,0.0,0.0,0.0,0.0,0.0,0.0,0.0,0.0,0.0,0.0,0.0,0.0,0.0,0.0,0.0,0.0,0.0,0.0,0.0,0.0,0.0,0.0,0.0,0.0,0.0,0.0,0.0,0.0,0.0,0.0,0.0,-4.1089,-3.9012,-3.6749,-3.4571,-3.3713,-3.2562,0.0,0.0,-2.9934,-2.9555,-3.3903,-3.4141,-3.2795,-3.2807,-3.0549,-2.8101,-2.8353,0.0,0.0,-3.3582,-3.5949,-3.8265,-4.0038,-4.0588,-4.1158,-4.2624,-4.3412,-4.4008,-4.4605,-4.5201,-4.5586,-4.5586,-4.5586,-4.5586,-4.5586,-4.5586,-4.5586,-4.5586,-4.5586,-4.5586,-4.5586,-4.5586,-4.5586,-4.5586,-4.5817,-4.622,-4.6874,-4.7105,-4.7509,-4.8086,-4.7317,-4.6913,-4.6913,-4.6028,-4.5605,-4.5643,-4.5643,-4.5643,-4.568,-4.568,-4.568,-4.568,-4.568,-4.568,-4.5642,-4.4989,-4.4739,-4.4682,-4.4066,-4.3701,-4.3412,-4.2739,-4.2354,-4.2027,0.0,0.0,0.0,0.0,0.0,0.0,0.0,0.0,0.0,0.0,0.0,0.0,0.0,0.0,0.0,0.0,0.0,0.0,0.0,0.0,0.0,0.0,0.0,0.0,0.0,0.0,0.0,0.0,0.0,0.0,0.0,0.0,0.0,0.0,0.0,0.0,0.0,0.0,0.0,0.0,0.0,0.0,-3.9219,-3.5988,-3.3639,-3.2106,-3.2,0.0,0.0,0.0,-2.7101,-2.6057,-2.7834,-2.7298,0.0,-2.6003,-2.6687,0.0,0.0,0.0,-3.3832,-3.6337,-3.8792,-4.1063,-4.2864,-4.3827,-4.4603,-4.5584,-4.5738,-4.5738,-4.5757,-4.568,-4.5586,-4.5586,-4.5586,-4.5586,-4.5586,-4.5586,-4.5586,-4.5586,-4.5586,-4.5586,0.0,-4.5586,-4.5586,-4.5586,-4.6374,-4.6874,-4.6913,-4.7644,-4.8067,-4.8105,-4.7317,-4.6913,-4.6913,-4.6028,-4.568,-4.5796,-4.5796,-4.5834,-4.5892,-4.5892,-4.5892,-4.5892,-4.5892,-4.5892,-4.5892,-4.5853,-4.5853,-4.5834,-4.5757,-4.5201,-4.4453,-4.4278,-4.372,-4.2931,0.0,0.0,0.0,0.0,0.0,0.0,0.0,0.0,0.0,0.0,0.0,0.0,0.0,0.0,0.0,0.0,0.0,0.0,0.0,0.0,0.0,0.0,0.0,0.0,0.0,0.0,0.0,0.0,0.0,0.0,0.0,0.0,0.0,0.0,0.0,0.0,0.0,0.0,0.0,0.0,0.0,0.0,-3.8337,-3.4429,-3.1869,-3.017,0.0,0.0,0.0,0.0,-2.6008,-2.5654,-2.6302,0.0,0.0,-2.847,-3.0214,-3.1601,0.0,0.0,-3.6614,-3.9653,-4.1451,-4.2938,-4.4654,-4.5244,-4.5378,-4.5153,-4.4618,-4.4021,-4.3451,-4.3229,-4.3325,-4.3899,-4.4416,-4.4934,-4.5509,-4.5586,-4.5586,-4.5586,-4.5586,0.0,0.0,0.0,0.0,-4.5586,-4.6413,-4.7144,-4.7682,-4.8586,-4.9375,-4.9933,-4.8664,-4.7971,-4.7952,-4.6527,-4.5815,-4.5873,-4.5866,-4.5883,-4.5902,-4.5902,-4.5902,-4.5902,-4.5902,-4.5902,-4.5902,-4.5902,-4.5902,-4.5902,-4.5883,-4.5684,-4.5413,-4.5391,-4.5199,-4.4757,0.0,0.0,0.0,0.0,0.0,0.0,0.0,0.0,0.0,0.0,0.0,0.0,0.0,0.0,0.0,0.0,0.0,0.0,0.0,0.0,0.0,0.0,0.0,0.0,0.0,0.0,0.0,0.0,0.0,0.0,0.0,0.0,0.0,0.0,0.0,0.0,0.0,0.0,0.0,0.0,0.0,0.0,-3.5286,-3.1932,-2.9784,0.0,0.0,0.0,0.0,0.0,0.0,0.0,-2.5602,-2.5596,-2.6379,-3.0505,-3.3406,-3.5371,-3.5898,-3.7305,-3.9355,-4.2383,-4.3769,-4.4659,-4.5794,-4.5766,-4.5287,-4.4488,-4.3635,-4.274,-4.1867,-4.1338,-4.1422,-4.2601,-4.2939,-4.3669,-4.5451,-4.5451,-4.549,-4.6065,-4.6123,-4.6105,0.0,0.0,0.0,-4.5719,-4.6777,-4.7701,-4.8221,-4.9144,-4.9929,-5.0488,-4.891,-4.8025,-4.8037,-4.6622,-4.5924,-4.5969,-4.6027,-4.6039,-4.6039,-4.6039,-4.6039,-4.6039,-4.6039,-4.6039,-4.6039,-4.6039,-4.6039,-4.6039,-4.5981,-4.5958,-4.5967,-4.592,-4.5902,-4.5679,0.0,0.0,0.0,0.0,0.0,0.0,0.0,0.0,0.0,0.0,0.0,0.0,0.0,0.0,0.0,0.0,0.0,0.0,0.0,0.0,0.0,0.0,0.0,0.0,0.0,0.0,0.0,0.0,0.0,0.0,0.0,0.0,0.0,0.0,0.0,0.0,0.0,0.0,0.0,0.0,0.0,0.0,-3.0497,-2.8656,0.0,0.0,0.0,0.0,0.0,0.0,0.0,0.0,0.0,-2.5407,-2.6367,-3.1835,-3.6011,-3.8847,-3.8787,-4.0058,-4.1973,-4.4433,-4.5586,-4.6133,-4.6211,-4.5432,-4.444,-4.3679,-4.2734,-4.1777,0.0,0.0,-4.0011,-4.1764,-4.1428,-4.211,-4.5481,-4.531,-4.5409,0.0,0.0,0.0,0.0,0.0,0.0,-4.6065,0.0,-4.8579,-4.8564,-4.9394,-4.9843,-4.9809,-4.8176,-4.7271,-4.7232,-4.6355,-4.5975,-4.6111,-4.6245,-4.6308,-4.6308,-4.6308,-4.6308,-4.6308,-4.6308,-4.6308,-4.6308,-4.6308,-4.6308,-4.6289,-4.6152,-4.6105,-4.6086,-4.5966,-4.5918,-4.5804,0.0,0.0,0.0,0.0,0.0,0.0,0.0,0.0,0.0,0.0,0.0,0.0,0.0,0.0,0.0,0.0,0.0,0.0,0.0,0.0,0.0,0.0,0.0,0.0,0.0,0.0,0.0,0.0,0.0,0.0,0.0,0.0,0.0,0.0,0.0,0.0,0.0,0.0,0.0,0.0,0.0,0.0,-3.0294,0.0,0.0,0.0,0.0,0.0,0.0,0.0,0.0,0.0,0.0,-2.5327,-2.6798,-3.4524,-3.9337,-4.2027,-4.1377,-4.2526,-4.4199,-4.5508,-4.6035,-4.6094,-4.5469,-4.4128,-4.2604,-4.1171,-3.9648,-3.8301,0.0,0.0,0.0,-4.1003,-4.2104,0.0,-4.6479,-4.6683,0.0,-4.8017,0.0,-4.8121,-4.8143,-4.841,0.0,0.0,-4.8897,-4.9465,-4.9485,-5.0339,-5.0567,-4.9961,-4.8982,-4.815,-4.7506,-4.6629,-4.6209,-4.6245,-4.6285,-4.6308,-4.6308,-4.6308,-4.6308,-4.6308,-4.6308,-4.6308,-4.6308,-4.6308,-4.6308,-4.6308,-4.6269,-4.6243,-4.6236,-4.6212,-4.6191,-4.6162,0.0,0.0,0.0,0.0,0.0,0.0,0.0,0.0,0.0,0.0,0.0,0.0,0.0,0.0,0.0,0.0,0.0,0.0,0.0,0.0,0.0,0.0,0.0,0.0,0.0,0.0,0.0,0.0,0.0,0.0,0.0,0.0,0.0,0.0,0.0,0.0,0.0,0.0,0.0,0.0,0.0,0.0,0.0,0.0,0.0,0.0,0.0,0.0,0.0,0.0,0.0,-2.5423,-2.6205,-2.7972,-3.1013,-3.7251,0.0,-4.4199,-4.3458,-4.4286,-4.5488,-4.5973,-4.5918,-4.5391,-4.4141,-4.2539,-4.0703,-3.8613,-3.7109,0.0,0.0,0.0,0.0,0.0,0.0,0.0,-4.6797,-4.7051,-4.7387,0.0,-4.9169,0.0,-4.9157,-4.9546,-4.9815,0.0,-4.9936,-4.9986,-4.9986,-5.0469,-5.0381,-4.9535,-4.874,-4.791,-4.7031,-4.6543,-4.6308,-4.6308,-4.6308,-4.6308,-4.6308,-4.6308,-4.6308,-4.6308,0.0,-4.6308,-4.6308,-4.6308,-4.6308,-4.6308,-4.6308,-4.6308,-4.6308,-4.6296,-4.6294,-4.6294,0.0,0.0,0.0,0.0,0.0,0.0,0.0,0.0,0.0,0.0,0.0,0.0,0.0,0.0,0.0,0.0,0.0,0.0,0.0,0.0,0.0,0.0,0.0,0.0,0.0,0.0,0.0,0.0,0.0,0.0,0.0,0.0,0.0,0.0,0.0,0.0,0.0,0.0,0.0,0.0,0.0,0.0,0.0,0.0,0.0,0.0,0.0,0.0,0.0,0.0,-2.8107,-2.6887,-2.8154,-3.2371,-3.7409,-4.032,-4.3272,-4.5495,-4.4966,-4.5432,-4.6066,-4.6054,-4.5426,-4.4334,-4.2596,-4.0722,-3.8652,-3.6133,0.0,-3.4101,-3.3359,-3.3516,-3.4844,-3.8223,0.0,-4.1094,-4.6797,-4.7051,-4.748,-4.9766,-5.0117,-5.018,-5.0187,-5.0813,-5.1277,-5.1401,-5.0751,-5.0351,-5.0351,-5.0351,-4.9902,-4.8926,-4.7949,-4.7129,-4.6484,-4.6367,-4.6367,-4.6465,-4.6367,-4.6308,-4.6308,-4.6308,-4.6308,-4.6308,-4.6308,0.0,-4.6308,-4.6308,-4.6367,-4.6465,-4.6348,-4.6367,-4.6465,-4.6348,-4.6308,-4.6308,0.0,0.0,0.0,0.0,0.0,0.0,0.0,0.0,0.0,0.0,-1.9305,-1.9305,0.0,0.0,0.0,0.0,0.0,0.0,0.0,0.0,0.0,0.0,0.0,0.0,0.0,0.0,0.0,0.0,0.0,0.0,0.0,0.0,0.0,0.0,0.0,0.0,0.0,0.0,0.0,0.0,0.0,0.0,0.0,0.0,0.0,0.0,0.0,0.0,0.0,0.0,-3.1749,-3.3532,-3.2396,-3.7469,-4.3959,-4.4538,-4.5137,-4.5565,-4.5466,-4.5624,-4.5841,-4.5859,-4.4764,-4.3245,-4.154,-3.8754,0.0,0.0,0.0,-3.2422,-3.2266,-3.4043,0.0,-3.9219,0.0,0.0,0.0,0.0,-4.8887,0.0,0.0,0.0,0.0,0.0,0.0,0.0,0.0,-5.1191,-5.1191,-5.1191,-5.0488,-4.8945,-4.7363,-4.6797,-4.7363,-4.666,-4.666,-4.7363,-4.6641,-4.6308,-4.6308,-4.6308,-4.6308,-4.6308,-4.6308,0.0,-4.6308,-4.6308,-4.6719,-4.7305,-4.6582,-4.6738,-4.7285,-4.6562,-4.6308,-4.6308,0.0,0.0,0.0,0.0,0.0,0.0,0.0,0.0,0.0,-1.8513,-1.8513,-1.8717,0.0,0.0,0.0,0.0,0.0,0.0,0.0,0.0,0.0,0.0,0.0,0.0,0.0,0.0,0.0,0.0,0.0,0.0,0.0,0.0,0.0,0.0,0.0,0.0,0.0,0.0,0.0,0.0,0.0,0.0,0.0,0.0,0.0,0.0,0.0,0.0,0.0,0.0,-3.0017,-3.3,-3.3964,-3.9465,-4.5603,-4.5596,-4.5596,-4.5596,-4.5603,-4.5699,-4.5695,-4.5244,-4.3608,-4.1526,-3.9354,0.0,0.0,0.0,0.0,-3.1261,-3.1261,0.0,0.0,0.0,0.0,0.0,0.0,0.0,0.0,0.0,0.0,0.0,0.0,0.0,0.0,0.0,0.0,-5.1406,-5.1406,-5.0566,-4.9941,-4.959,-4.7891,-4.7402,-4.8262,-4.7402,-4.7187,-4.7598,-4.6719,-4.6308,-4.6308,-4.6308,-4.6308,-4.6308,-4.6308,0.0,-4.6308,-4.6308,-4.6543,-4.6875,-4.6465,-4.6562,-4.6875,-4.6445,-4.6308,-4.6308,0.0,0.0,0.0,0.0,0.0,0.0,0.0,-1.7811,-1.7811,-1.7811,-1.7997,-1.8417,-1.9209,-1.9305,-1.9305,0.0,0.0,0.0,0.0,0.0,0.0,0.0,0.0,0.0,0.0,0.0,0.0,0.0,0.0,0.0,0.0,0.0,0.0,0.0,0.0,0.0,0.0,0.0,0.0,0.0,0.0,0.0,0.0,0.0,0.0,0.0,0.0,0.0,0.0,0.0,-2.6955,-2.9775,-3.2474,-3.8289,-4.4187,-4.4446,-4.4682,-4.4914,-4.5163,-4.549,-4.5545,-4.466,-4.2483,-3.9918,-3.7497,-3.4822,0.0,0.0,-3.0564,-3.0629,-3.0828,0.0,0.0,0.0,0.0,0.0,0.0,0.0,0.0,0.0,0.0,0.0,0.0,0.0,0.0,0.0,0.0,0.0,-5.1406,-4.9805,-4.9219,-4.9902,-4.8418,-4.8027,-4.8887,-4.8047,-4.7695,-4.7871,-4.6816,-4.6308,-4.6308,-4.6308,-4.6308,-4.6308,-4.6308,0.0,0.0,-4.6308,-4.6406,-4.6562,-4.6367,-4.6406,-4.6562,-4.6367,-4.6308,-4.6308,0.0,0.0,0.0,0.0,0.0,0.0,0.0,-1.7811,-1.7811,-1.7811,-1.8589,-1.9193,-1.9289,-1.9305,-1.9305,0.0,0.0,0.0,0.0,0.0,0.0,0.0,0.0,0.0,0.0,0.0,0.0,0.0,0.0,0.0,0.0,0.0,0.0,0.0,0.0,0.0,0.0,0.0,0.0,0.0,0.0,0.0,0.0,0.0,0.0,0.0,0.0,0.0,0.0,0.0,0.0,-2.5816,-2.6138,-3.2297,-3.9634,-4.0673,0.0,0.0,-4.378,-4.4816,-4.5393,-4.4528,-4.186,-3.8965,-3.7141,0.0,0.0,-3.0597,-3.0467,-3.0751,-3.1539,-3.2513,0.0,0.0,0.0,0.0,0.0,0.0,0.0,0.0,0.0,0.0,0.0,0.0,0.0,0.0,0.0,0.0,-5.1406,-4.9805,-4.8945,-4.9023,-4.8105,-4.8027,-4.8887,-4.8047,-4.8008,-4.8769,-4.709,-4.6308,-4.6308,-4.6308,-4.6308,-4.6308,-4.6308,0.0,0.0,-4.6308,-4.6777,-4.7402,-4.6601,-4.6777,-4.7383,-4.6582,-4.6308,-4.6308,0.0,0.0,0.0,0.0,0.0,0.0,0.0,-1.7811,-1.8018,-1.8626,-1.8532,-1.8397,-1.8397,-1.8397,-1.8397,0.0,0.0,0.0,0.0,0.0,0.0,0.0,0.0,0.0,0.0,0.0,0.0,0.0,0.0,0.0,0.0,0.0,0.0,0.0,0.0,0.0,0.0,0.0,0.0,0.0,0.0,0.0,0.0,0.0,0.0,0.0,0.0,0.0,0.0,0.0,0.0,0.0,-2.4642,-2.721,0.0,0.0,-3.8671,-4.0475,-4.278,-4.4487,-4.5278,-4.3917,-4.1042,-3.8076,-3.637,0.0,0.0,-3.0475,-3.0417,-3.0706,-3.1591,-3.243,-3.3718,0.0,0.0,0.0,0.0,0.0,0.0,0.0,0.0,0.0,0.0,0.0,0.0,0.0,0.0,0.0,-5.1406,-4.9805,-4.9355,-5.0371,-4.8574,-4.8496,-5.0391,-4.8535,-4.8047,-4.8887,-4.7129,-4.6257,-4.6171,-4.6171,-4.619,-4.6191,-4.6659,0.0,0.0,-4.6687,-4.6834,-4.6777,-4.6348,-4.6445,-4.6777,-4.6426,-4.6308,-4.6308,0.0,0.0,0.0,0.0,0.0,-1.7811,-1.7811,-1.7811,-1.8044,-1.8771,-1.8235,-1.7811,-1.7811,-1.7811,-1.7811,-1.7811,0.0,0.0,0.0,0.0,0.0,0.0,0.0,0.0,0.0,0.0,0.0,0.0,0.0,0.0,0.0,0.0,0.0,0.0,0.0,0.0,0.0,0.0,0.0,0.0,0.0,0.0,0.0,0.0,0.0,0.0,0.0,0.0,0.0,0.0,0.0,0.0,0.0,0.0,0.0,0.0,-3.4868,-3.8412,-4.0828,-4.3145,-4.4435,-4.275,-3.9957,-3.7171,0.0,0.0,-3.0398,-3.0398,-3.0609,-3.0975,-3.159,-3.2558,-3.3705,0.0,0.0,0.0,0.0,0.0,0.0,0.0,0.0,0.0,0.0,0.0,0.0,0.0,0.0,0.0,-5.0942,-4.9556,-4.9367,-5.0625,-4.8672,-4.8567,-5.0575,-4.8814,-4.8348,-4.9143,-4.7406,-4.6514,-4.6414,-4.6172,-4.6042,-4.6069,-4.6586,0.0,0.0,-4.6641,-4.6578,-4.6172,-4.6088,-4.6097,-4.6198,-4.6229,-4.623,-4.625,0.0,0.0,0.0,0.0,0.0,0.0,0.0,-1.7811,-1.7811,-1.7811,-1.7811,-1.7811,-1.7811,-1.7811,-1.7811,-1.7811,0.0,0.0,0.0,0.0,0.0,0.0,0.0,0.0,0.0,0.0,0.0,0.0,0.0,0.0,0.0,0.0,0.0,0.0,0.0,0.0,0.0,0.0,0.0,0.0,0.0,0.0,0.0,0.0,0.0,0.0,0.0,0.0,0.0,0.0,0.0,0.0,0.0,0.0,0.0,0.0,-3.0064,-3.6621,-3.7513,-4.0394,-4.2712,-4.0971,-3.8588,-3.6264,0.0,0.0,-3.0398,-3.0398,-3.109,-3.1693,-3.1693,-3.3064,-3.418,-3.4199,0.0,0.0,0.0,0.0,0.0,0.0,0.0,0.0,0.0,0.0,0.0,0.0,0.0,0.0,-4.9865,-4.898,-4.8632,-4.8926,-4.8066,-4.7963,-4.8721,-4.8702,-4.9064,-4.9761,-4.8029,-4.7192,-4.7163,-4.6298,-4.5892,0.0,0.0,0.0,0.0,-4.5914,-4.5917,-4.5905,-4.5897,-4.5907,-4.5913,-4.6044,-4.6094,-4.6113,0.0,0.0,0.0,0.0,0.0,0.0,0.0,-1.7811,-1.7811,-1.7811,-1.7811,-1.7811,-1.7811,-1.7811,-1.7811,-1.7811,0.0,0.0,0.0,0.0,0.0,0.0,0.0,0.0,0.0,0.0,0.0,0.0,0.0,0.0,0.0,0.0,0.0,0.0,0.0,0.0,0.0,0.0,0.0,0.0,0.0,0.0,0.0,0.0,0.0,0.0,0.0,0.0,0.0,0.0,0.0,0.0,0.0,0.0,0.0,0.0,0.0,0.0,-3.3655,-3.5755,-3.7215,-3.6064,-3.4305,-3.2766,-3.2384,0.0,-2.9509,-3.0244,-3.0609,-3.0994,-3.159,-3.2141,-3.3064,-3.4814,-3.5565,0.0,0.0,0.0,0.0,0.0,0.0,0.0,0.0,0.0,0.0,0.0,0.0,0.0,-4.9846,-4.8972,-4.8534,-4.8626,-4.7203,-4.7412,-4.944,-4.827,-4.8393,-4.9782,-4.8041,-4.7152,-4.7051,-4.621,-4.5834,0.0,0.0,0.0,0.0,-4.6391,-4.6317,-4.5909,-4.5847,-4.5853,-4.5907,-4.5951,-4.5949,-4.5975,0.0,0.0,0.0,0.0,0.0,0.0,0.0,-1.7811,-1.7811,-1.7811,-1.7811,-1.7811,-1.7811,-1.7811,-1.7811,-1.7811,0.0,0.0,0.0,0.0,0.0,0.0,0.0,0.0,0.0,0.0,0.0,0.0,0.0,0.0,0.0,0.0,0.0,0.0,0.0,0.0,0.0,0.0,0.0,0.0,0.0,0.0,-2.2712,0.0,0.0,0.0,0.0,0.0,0.0,0.0,0.0,0.0,0.0,0.0,0.0,0.0,-2.5762,0.0,0.0,-3.2362,-3.3749,-3.2873,-3.1836,0.0,0.0,0.0,-2.9351,-3.0106,-3.0509,-3.0836,-3.1148,-3.2006,-3.3045,-3.4314,-3.5334,0.0,0.0,0.0,0.0,0.0,0.0,0.0,0.0,0.0,0.0,0.0,0.0,0.0,-4.9201,-4.8372,-4.7739,-4.7423,-4.6434,-4.6829,-4.8716,-4.7673,-4.7972,-4.9625,-4.7914,-4.7202,-4.7375,-4.624,-4.5719,0.0,0.0,0.0,0.0,-4.624,-4.6163,-4.5776,-4.5738,-4.5757,-4.5796,-4.5834,-4.5862,-4.5859,0.0,0.0,0.0,0.0,0.0,0.0,0.0,0.0,0.0,-1.7811,-1.7811,-1.7811,-1.7811,-1.7811,-1.7811,-1.7811,0.0,0.0,0.0,0.0,0.0,0.0,0.0,0.0,0.0,0.0,0.0,0.0,-2.231,-2.231,-2.231,0.0,0.0,0.0,0.0,0.0,0.0,0.0,0.0,0.0,0.0,0.0,0.0,0.0,0.0,0.0,0.0,0.0,0.0,0.0,0.0,0.0,0.0,0.0,0.0,0.0,0.0,0.0,0.0,0.0,0.0,0.0,0.0,0.0,0.0,0.0,0.0,0.0,0.0,-3.1083,-3.0662,-3.2468,-3.3853,-3.3353,0.0,0.0,0.0,0.0,0.0,0.0,0.0,0.0,0.0,0.0,0.0,0.0,0.0,0.0,-4.8067,-4.7317,-4.6509,-4.5624,-4.5776,-4.6257,-4.699,-4.699,-4.7778,-4.9298,-4.7682,-4.7298,-4.7971,-4.6336,-4.5586,0.0,0.0,0.0,0.0,-4.5586,-4.5586,-4.5586,-4.5586,-4.5586,-4.5605,-4.5738,-4.5796,-4.5796,0.0,0.0,0.0,0.0,0.0,0.0,0.0,0.0,0.0,0.0,-1.7811,-1.7811,-1.7811,-1.7811,-1.7811,0.0,0.0,0.0,0.0,0.0,0.0,0.0,0.0,0.0,0.0,0.0,0.0,-2.231,-2.231,-2.231,-2.231,-2.231,0.0,0.0,0.0,0.0,0.0,0.0,0.0,0.0,0.0,0.0,0.0,0.0,0.0,0.0,-2.3153,-2.33,0.0,0.0,0.0,0.0,0.0,0.0,0.0,0.0,-2.419,-2.4337,-2.5003,0.0,-2.6078,-2.5874,-2.627,0.0,0.0,0.0,0.0,0.0,0.0,0.0,0.0,0.0,0.0,0.0,0.0,0.0,0.0,0.0,0.0,0.0,0.0,0.0,0.0,0.0,0.0,0.0,0.0,-4.8759,-4.7259,-4.7009,-4.6509,-4.5624,-4.5643,-4.6067,-4.6932,-4.6932,-4.7432,-4.8394,-4.7375,-4.7009,-4.7163,-4.6086,-4.5586,0.0,0.0,0.0,-4.5586,-4.5586,-4.5586,-4.5586,-4.5586,-4.5586,-4.5586,-4.5624,-4.5643,-4.5643,0.0,0.0,0.0,0.0,0.0,0.0,0.0,0.0,0.0,0.0,0.0,0.0,0.0,0.0,0.0,0.0,0.0,0.0,0.0,0.0,0.0,0.0,0.0,0.0,0.0,0.0,0.0,0.0,0.0,-2.231,0.0,0.0,0.0,0.0,0.0,0.0,0.0,0.0,0.0,0.0,-2.231,0.0,0.0,0.0,0.0,0.0,-2.2933,-2.3111,0.0,-2.3004,-2.3509,-2.4208,0.0,0.0,0.0,0.0,-2.419,-2.419,-2.419,-2.4463,-2.4846,-2.5214,-2.5902,-2.6728,0.0,0.0,0.0,0.0,0.0,0.0,0.0,0.0,0.0,0.0,0.0,0.0,0.0,0.0,0.0,0.0,0.0,0.0,0.0,0.0,0.0,0.0,0.0,-4.7855,-4.6951,-4.6528,-4.6086,-4.5605,-4.5586,-4.5817,-4.6297,-4.6297,-4.6721,-4.7548,-4.6701,-4.6509,-4.6874,-4.599,-4.5586,0.0,0.0,0.0,-4.5586,-4.5586,-4.5586,-4.5586,-4.5586,-4.5586,-4.5586,-4.5586,-4.5586,-4.5586,0.0,0.0,0.0,0.0,0.0,0.0,0.0,0.0,0.0,0.0,0.0,0.0,0.0,0.0,0.0,0.0,0.0,0.0,0.0,0.0,0.0,0.0,0.0,0.0,0.0,0.0,0.0,0.0,0.0,0.0,0.0,0.0,0.0,0.0,0.0,0.0,0.0,0.0,0.0,0.0,-2.231,0.0,0.0,0.0,0.0,0.0,0.0,0.0,0.0,-2.2615,-2.3142,-2.4074,-2.417,0.0,0.0,0.0,0.0,0.0,-2.4355,-2.4974,-2.5716,-2.6267,-2.7108,-2.7967,0.0,0.0,0.0,0.0,0.0,0.0,0.0,0.0,0.0,0.0,0.0,0.0,0.0,0.0,0.0,0.0,0.0,0.0,0.0,0.0,0.0,0.0,0.0,-4.6836,-4.6721,-4.599,-4.5586,-4.5586,-4.5586,-4.5586,-4.5586,-4.5586,-4.597,-4.6701,-4.5951,-4.599,-4.6682,-4.5932,-4.5586,-4.5586,0.0,0.0,-4.5586,-4.5586,-4.5586,-4.5586,-4.5586,-4.5586,-4.5586,-4.5586,-4.5586,-4.5586,0.0,0.0,0.0,0.0,0.0,0.0,0.0,0.0,0.0,0.0,0.0,0.0,0.0,0.0,0.0,0.0,0.0,0.0,0.0,0.0,0.0,0.0,0.0,0.0,0.0,0.0,0.0,0.0,0.0,0.0,-2.231,-2.231,-2.231,0.0,0.0,0.0,0.0,-2.231,-2.231,-2.231,-2.231,0.0,0.0,0.0,0.0,0.0,0.0,0.0,0.0,-2.3029,-2.3188,-2.3437,-2.4016,0.0,0.0,0.0,0.0,0.0,-2.5031,-2.58,-2.6277,-2.5706,-2.6698,-2.782,0.0,0.0,0.0,0.0,0.0,0.0,0.0,0.0,0.0,0.0,0.0,0.0,0.0,0.0,0.0,0.0,0.0,0.0,0.0,0.0,0.0,0.0,0.0,-4.6586,-4.5836,-4.5663,-4.5586,-4.5586,-4.5586,-4.5586,-4.5586,-4.5586,-4.5663,-4.5797,-4.5663,-4.5663,-4.5797,-4.5663,-4.5586,-4.5586,0.0,-4.5586,-4.5586,-4.5586,-4.5586,-4.5586,-4.5586,-4.5586,-4.5586,-4.5586,-4.5586,-4.5586,0.0,0.0,0.0,0.0,0.0,0.0,0.0,0.0,0.0,0.0,0.0,0.0,0.0,0.0,0.0,0.0,0.0,0.0,0.0,0.0,0.0,0.0,0.0,0.0,0.0,0.0,0.0,0.0,0.0,-2.231,-2.231,-2.231,-2.231,-2.231,0.0,0.0,0.0,-2.231,-2.231,-2.231,0.0,0.0,0.0,0.0,0.0,0.0,0.0,0.0,0.0,0.0,-2.3177,-2.3786,-2.4091,0.0,0.0,0.0,0.0,0.0,-2.4647,-2.5656,-2.641,-2.5601,-2.6943,0.0,0.0,0.0,0.0,0.0,0.0,0.0,0.0,0.0,0.0,0.0,0.0,0.0,0.0,0.0,0.0,0.0,0.0,0.0,0.0,0.0,0.0,0.0,0.0,0.0,-4.5605,-4.5586,-4.5586,-4.5586,-4.5586,-4.5586,-4.5586,-4.5586,-4.5586,-4.5586,-4.5586,-4.5586,-4.5586,-4.5586,-4.5586,-4.5586,0.0,-4.5586,-4.5586,-4.5586,-4.5586,-4.5586,-4.5586,-4.5586,-4.5586,-4.5586,-4.5586,-4.5586,0.0,0.0,0.0,0.0,0.0,0.0,0.0,0.0,0.0,0.0,0.0,0.0,0.0,0.0,0.0,0.0,0.0,0.0,0.0,0.0,0.0,0.0,0.0,0.0,0.0,0.0,0.0,-2.231,-2.231,-2.231,-2.231,-2.231,-2.231,0.0,0.0,0.0,0.0,-2.231,-2.231,-2.231,0.0,0.0,0.0,0.0,0.0,0.0,0.0,0.0,0.0,0.0,0.0,0.0,0.0,0.0,0.0,-2.419,-2.419,-2.4245,-2.4428,-2.5383,-2.6264,-2.6007,0.0,0.0,0.0,0.0,0.0,0.0,0.0,0.0,0.0,0.0,0.0,0.0,0.0,0.0,0.0,0.0,0.0,0.0,0.0,0.0,0.0,0.0,0.0,0.0,0.0,0.0,-4.5586,-4.5586,-4.5586,-4.5586,-4.5586,-4.5586,-4.5586,-4.5586,-4.5586,-4.5586,-4.5586,-4.5586,-4.5586,-4.5586,-4.5586,-4.5586,-4.5586,-4.5586,-4.5586,-4.5586,-4.5586,-4.5586,-4.5586,-4.5586,-4.5586,-4.5586,-4.5586,-4.5586,0.0,0.0,0.0,0.0,0.0,0.0,0.0,0.0,0.0,0.0,0.0,0.0,0.0,0.0,0.0,0.0,0.0,0.0,0.0,0.0,0.0,0.0,0.0,0.0,0.0,-2.231,-2.231,-2.231,-2.231,-2.231,-2.231,-2.231,-2.231,-2.231,0.0,0.0,0.0,-2.231,-2.231,-2.231,-2.231,0.0,0.0,0.0,0.0,0.0,0.0,0.0,0.0,0.0,0.0,0.0,0.0,0.0,-2.419,-2.419,-2.419,-2.4355,-2.5127,-2.5403,-2.5844,-2.7255,0.0,0.0,0.0,0.0,0.0,0.0,0.0,0.0,0.0,0.0,0.0,0.0,0.0,0.0,0.0,0.0,0.0,0.0,0.0,0.0,0.0,0.0,0.0,0.0,0.0,0.0,-4.5586,-4.5586,-4.5586,-4.5586,-4.5586,-4.5586,-4.5586,-4.5586,-4.5586,-4.5586,-4.5586,-4.5586,-4.5586,-4.5586,-4.5586,-4.5586,-4.5586,-4.5586,-4.5586,-4.5586,-4.5586,-4.5586,-4.5586,-4.5586,-4.5586,-4.5586,-4.5586,-4.5586,0.0,0.0,0.0,0.0,0.0,0.0,0.0,0.0,0.0,0.0,0.0,0.0,0.0,0.0,0.0,0.0,0.0,0.0,0.0,0.0,0.0,0.0,0.0,-2.231,-2.231,-2.231,-2.231,-2.231,-2.231,-2.231,-2.231,-2.231,0.0,0.0,0.0,0.0,0.0,-2.231,-2.231,-2.231,-2.231,-2.231,0.0,0.0,0.0,0.0,0.0,0.0,0.0,0.0,-2.2623,-2.3067,0.0,-2.3684,-2.3917,-2.4151,-2.419,-2.4263,-2.4557,-2.5383,-2.6172,-2.6264,0.0,0.0,0.0,0.0,0.0,0.0,0.0,0.0,0.0,0.0,0.0,0.0,0.0,0.0,0.0,0.0,0.0,0.0,0.0,0.0,0.0,0.0,0.0,0.0,0.0,0.0,-4.5302,-4.5495,-4.5586,-4.5586,-4.5586,-4.5586,-4.5586,-4.5586,-4.5586,-4.5586,-4.5586,-4.5586,-4.5586,-4.5586,-4.5586,-4.5586,-4.5586,-4.5586,-4.5586,-4.5586,-4.5586,-4.5586,-4.5586,-4.5586,-4.5586,-4.5586,-4.5586,-4.5586,0.0,0.0,0.0,0.0,0.0,0.0,0.0,0.0,0.0,0.0,0.0,0.0,0.0,0.0,0.0,0.0,0.0,0.0,0.0,0.0,0.0,0.0,0.0,-2.231,-2.231,-2.231,-2.231,-2.231,-2.231,-2.231,-2.231,0.0,0.0,0.0,0.0,0.0,0.0,0.0,-2.231,-2.231,-2.231,-2.231,0.0,0.0,0.0,0.0,0.0,0.0,0.0,0.0,-2.2427,0.0,0.0,0.0,0.0,-2.4113,-2.419,-2.419,-2.419,-2.5181,-2.6153,0.0,0.0,0.0,0.0,0.0,0.0,0.0,0.0,0.0,0.0,0.0,0.0,0.0,0.0,0.0,0.0,0.0,0.0,0.0,0.0,0.0,0.0,0.0,0.0,0.0,0.0,0.0,0.0,-4.5161,-4.5168,-4.4881,-4.5149,-4.5208,-4.5073,-4.5323,-4.5495,-4.5586,-4.5586,-4.5586,-4.5586,-4.5586,-4.5586,-4.5586,-4.5586,-4.5586,-4.5586,-4.5586,-4.5586,-4.5586,-4.5586,-4.5586,-4.5586,-4.5586,-4.5586,-4.5586,0.0,0.0,0.0,0.0,0.0,0.0,0.0,0.0,0.0,0.0,0.0,0.0,0.0,0.0,0.0,0.0,0.0,0.0,0.0,0.0,0.0,0.0,0.0,-2.231,-2.231,-2.231,-2.231,-2.231,-2.231,-2.231,-2.231,0.0,0.0,0.0,0.0,0.0,0.0,0.0,0.0,-2.231,-2.231,-2.231,-2.231,0.0,0.0,0.0,0.0,0.0,0.0,0.0,-2.2712,-2.3189,0.0,0.0,0.0,-2.419,-2.419,-2.419,-2.419,-2.4777,0.0,0.0,0.0,0.0,0.0,0.0,0.0,0.0,0.0,0.0,0.0,0.0,0.0,0.0,0.0,0.0,0.0,0.0,0.0,0.0,0.0,0.0,0.0,0.0,0.0,0.0,0.0,0.0,0.0,-4.4561,-4.419,-4.3322,-4.4134,-4.434,-4.3899,-4.4698,-4.5263,-4.5586,-4.5586,-4.5586,-4.5586,-4.5586,-4.5586,-4.5586,-4.5586,-4.5586,-4.5586,-4.5586,-4.5586,-4.5586,-4.5586,-4.5586,-4.5586,-4.5586,-4.5586,-4.5586,0.0,0.0,0.0,0.0,0.0,0.0,0.0,0.0,0.0,0.0,0.0,0.0,0.0,0.0,0.0,0.0,0.0,0.0,0.0,0.0,0.0,0.0,0.0,0.0,0.0,0.0,-2.231,-2.231,-2.231,-2.231,0.0,0.0,0.0,-2.231,0.0,0.0,0.0,0.0,0.0,-2.231,-2.231,-2.231,-2.231,0.0,0.0,0.0,0.0,0.0,0.0,0.0,0.0,0.0,0.0,0.0,0.0,-2.4113,-2.419,-2.419,-2.419,-2.5199,0.0,0.0,0.0,0.0,0.0,0.0,0.0,0.0,0.0,0.0,0.0,0.0,0.0,0.0,0.0,0.0,0.0,0.0,0.0,0.0,0.0,0.0,0.0,0.0,0.0,0.0,0.0,0.0,0.0,-4.3024,-4.2699,-4.2478,-4.2699,-4.2772,-4.264,-4.3431,-4.3876,-4.3988,-4.4615,-4.514,-4.5586,-4.5586,-4.5586,-4.5586,-4.5586,-4.5586,-4.5586,-4.5586,-4.5586,-4.5586,-4.5586,-4.5586,-4.5586,-4.5586,-4.5586,-4.5586,0.0,0.0,0.0,0.0,0.0,0.0,0.0,0.0,0.0,0.0,0.0,0.0,0.0,0.0,0.0,0.0,0.0,0.0,0.0,0.0,0.0,0.0,0.0,0.0,0.0,-2.231,-2.231,0.0,0.0,0.0,0.0,0.0,0.0,-2.231,0.0,-2.231,0.0,0.0,0.0,-2.231,-2.231,-2.231,-2.231,0.0,0.0,0.0,0.0,0.0,0.0,0.0,0.0,0.0,0.0,0.0,0.0,-2.3937,-2.4094,-2.419,-2.419,0.0,0.0,0.0,0.0,0.0,0.0,0.0,0.0,0.0,0.0,0.0,0.0,0.0,0.0,0.0,0.0,0.0,0.0,0.0,0.0,0.0,0.0,0.0,0.0,0.0,0.0,0.0,0.0,0.0,0.0,-4.1837,-4.1548,-4.1258,-4.153,-4.1611,-4.1431,-4.2213,-4.2855,-4.3303,-4.3832,-4.4483,-4.5203,-4.5203,-4.5263,-4.5419,-4.5531,-4.5513,-4.5419,-4.555,-4.5438,-4.5222,-4.5342,-4.54,-4.54,-4.54,-4.5495,-4.5586,0.0,0.0,0.0,0.0,0.0,0.0,0.0,0.0,0.0,0.0,0.0,0.0,0.0,0.0,0.0,0.0,0.0,0.0,0.0,0.0,0.0,0.0,0.0,0.0,0.0,0.0,0.0,0.0,0.0,0.0,0.0,0.0,-2.231,-2.231,0.0,-2.231,0.0,0.0,0.0,-2.231,-2.231,-2.231,-2.231,-2.231,0.0,0.0,0.0,0.0,0.0,0.0,0.0,0.0,-2.2764,0.0,-2.3692,-2.3692,-2.3937,-2.419,0.0,0.0,0.0,0.0,0.0,0.0,0.0,0.0,0.0,0.0,0.0,0.0,0.0,0.0,0.0,0.0,0.0,0.0,0.0,0.0,0.0,0.0,0.0,0.0,0.0,0.0,0.0,0.0,0.0,0.0,0.0,-4.0928,-4.0561,-3.9808,-4.0506,-4.0677,-4.0244,-4.1026,-4.1987,-4.3001,-4.305,-4.3502,-4.4293,-4.4497,-4.4776,-4.5074,-4.5381,-4.5342,-4.5074,-4.5381,-4.514,-4.4631,-4.4943,-4.5052,-4.5052,-4.5052,-4.5243,-4.5513,0.0,0.0,0.0,0.0,0.0,0.0,0.0,0.0,0.0,0.0,0.0,0.0,0.0,0.0,0.0,0.0,0.0,0.0,0.0,0.0,0.0,0.0,0.0,0.0,0.0,0.0,0.0,0.0,0.0,0.0,0.0,0.0,0.0,-2.231,0.0,-2.231,0.0,0.0,0.0,-2.231,-2.231,-2.231,-2.231,-2.231,-2.231,0.0,0.0,0.0,0.0,0.0,0.0,0.0,-2.3021,-2.3369,-2.3692,-2.3692,-2.3937,-2.419,0.0,0.0,0.0,0.0,0.0,0.0,0.0,0.0,0.0,0.0,0.0,0.0,0.0,0.0,0.0,0.0,0.0,0.0,0.0,0.0,0.0,0.0,0.0,0.0,0.0,0.0,0.0,0.0,0.0,0.0,-4.0157,-3.957,-3.9148,-3.8964,-3.9129,-3.916,-3.908,-3.9872,-4.0382,0.0,-4.1268,-4.1675,-4.1927,-4.3755,-4.4631,-4.4707,-4.4781,-4.4757,-4.4707,-4.48,-4.4732,-4.4624,-4.4682,-4.4726,-4.4726,-4.4726,-4.4757,-4.4825,0.0,0.0,0.0,0.0,0.0,0.0,0.0,0.0,0.0,0.0,0.0,0.0,0.0,0.0,0.0,0.0,0.0,0.0,0.0,0.0,0.0,0.0,0.0,0.0,0.0,0.0,0.0,0.0,0.0,0.0,0.0,0.0,0.0,-2.231,0.0,-2.231,0.0,0.0,0.0,0.0,-2.231,-2.231,-2.231,-2.231,-2.231,-2.231,-2.231,0.0,0.0,0.0,0.0,0.0,0.0,0.0,-2.3459,-2.3459,-2.3816,-2.419,0.0,0.0,0.0,0.0,0.0,0.0,0.0,0.0,0.0,0.0,0.0,0.0,0.0,0.0,0.0,0.0,0.0,0.0,0.0,0.0,0.0,0.0,0.0,0.0,0.0,0.0,0.0,0.0,0.0,-3.8744,-3.8744,-3.834,-3.8303,-3.8689,-3.8707,-3.8524,-3.812,-3.8909,-3.9331,-3.9331,-4.0139,-4.0726,-4.113,-4.2528,-4.3154,-4.32,-4.3736,-4.3672,-4.3219,-4.3755,-4.3791,-4.3517,-4.3681,-4.398,-4.4318,-4.4318,-4.4428,-4.458,0.0,0.0,0.0,0.0,0.0,0.0,0.0,0.0,0.0,0.0,0.0,0.0,0.0,0.0,0.0,0.0,0.0,0.0,0.0,0.0,0.0,0.0,0.0,0.0,0.0,0.0,0.0,0.0,0.0,0.0,0.0,0.0,0.0,-2.231,0.0,0.0,0.0,0.0,0.0,0.0,0.0,0.0,-2.231,-2.231,-2.231,-2.231,-2.231,-2.231,-2.231,-2.231,0.0,0.0,0.0,0.0,-2.3117,-2.3189,-2.3588,-2.4036,0.0,0.0,0.0,0.0,0.0,0.0,0.0,0.0,0.0,0.0,0.0,0.0,0.0,0.0,0.0,0.0,0.0,0.0,0.0,0.0,0.0,0.0,0.0,0.0,0.0,0.0,0.0,0.0,0.0,-3.7276,-3.7276,-3.7276,-3.7643,-3.8469,-3.8358,-3.8028,-3.7526,-3.8157,-3.8487,-3.8505,-3.9166,-3.9827,-4.0469,-4.0619,-4.0998,-4.1574,-4.25,-4.2398,-4.1574,-4.2519,-4.2582,-4.2136,-4.2557,-4.3125,-4.3708,-4.3856,-4.4136,-4.4419,0.0,0.0,0.0,0.0,0.0,0.0,0.0,0.0,0.0,0.0,0.0,0.0,0.0,0.0,0.0,0.0,0.0,0.0,0.0,0.0,0.0,0.0,0.0,0.0,0.0,0.0,0.0,0.0,0.0,0.0,0.0,0.0,0.0,0.0,0.0,0.0,0.0,0.0,0.0,0.0,0.0,0.0,0.0,-2.231,-2.231,-2.231,-2.231,-2.231,-2.231,-2.231,-2.231,0.0,0.0,0.0,-2.2822,-2.3117,-2.3259,0.0,0.0,0.0,0.0,0.0,0.0,0.0,0.0,0.0,0.0,0.0,0.0,0.0,0.0,0.0,0.0,0.0,0.0,0.0,0.0,0.0,0.0,0.0,0.0,0.0,0.0,0.0,0.0,0.0,-3.6395,-3.645,-3.645,-3.645,-3.6817,-3.7624,-3.6982,-3.689,-3.7477,-3.7617,-3.7643,-3.7643,-3.7783,-3.7893,-3.7936,-3.7298,-3.8523,-4.119,-4.1314,-4.1296,-4.119,-4.1314,-4.1337,-4.1332,-4.2077,-4.2441,-4.2625,-4.3324,-4.3597,-4.3664,0.0,0.0,0.0,0.0,0.0,0.0,0.0,0.0,0.0,0.0,0.0,0.0,0.0,0.0,0.0,0.0,0.0,0.0,0.0,0.0,0.0,0.0,-2.231,0.0,0.0,0.0,0.0,0.0,0.0,0.0,0.0,-2.231,-2.231,0.0,0.0,0.0,0.0,0.0,0.0,0.0,0.0,0.0,0.0,0.0,-2.231,-2.231,-2.231,-2.231,-2.231,-2.231,-2.231,-2.231,-2.231,0.0,0.0,0.0,0.0,0.0,0.0,0.0,0.0,0.0,0.0,0.0,0.0,0.0,0.0,0.0,0.0,0.0,0.0,0.0,0.0,0.0,0.0,0.0,0.0,0.0,0.0,0.0,0.0,0.0,0.0,0.0,0.0,0.0,-3.533,-3.5587,-3.5587,-3.5587,-3.5973,-3.6798,-3.6468,-3.6229,-3.6101,-3.6578,-3.6817,-3.6817,-3.6817,-3.6817,-3.6817,-3.645,-3.7551,-3.9772,-3.9772,-3.9772,-3.979,-4.0249,-4.0432,-4.0469,-4.0818,-4.1515,-4.2341,-4.269,-4.3112,-4.3497,0.0,0.0,0.0,0.0,0.0,0.0,0.0,0.0,0.0,0.0,0.0,0.0,0.0,0.0,0.0,0.0,0.0,0.0,0.0,0.0,0.0,-2.2282,-2.231,-2.231,-2.231,0.0,0.0,0.0,0.0,0.0,-2.231,-2.231,-2.231,0.0,-2.231,0.0,0.0,0.0,0.0,0.0,0.0,0.0,0.0,0.0,0.0,0.0,0.0,-2.231,-2.231,-2.231,-2.231,-2.231,-2.231,-2.2453,0.0,0.0,0.0,0.0,0.0,0.0,0.0,0.0,0.0,0.0,0.0,0.0,0.0,0.0,0.0,0.0,0.0,0.0,0.0,0.0,0.0,0.0,0.0,0.0,0.0,0.0,0.0,0.0,0.0,0.0,0.0,0.0,-3.3954,-3.4385,-3.4385,-3.4568,-3.5,-3.5642,-3.5661,-3.5349,-3.4706,-3.555,-3.5973,-3.5973,-3.5973,-3.5973,-3.5973,-3.5752,-3.6541,-3.8102,-3.8303,-3.8505,-3.8762,-3.935,-3.9588,-3.9625,-3.9808,-4.0634,-4.1717,-4.1919,-4.2378,-4.2892,0.0,0.0,0.0,0.0,0.0,0.0,0.0,0.0,0.0,0.0,0.0,0.0,0.0,0.0,0.0,-1.969,0.0,0.0,0.0,0.0,0.0,-2.2225,-2.231,0.0,-2.231,0.0,0.0,0.0,0.0,0.0,-2.231,-2.231,-2.231,-2.231,-2.231,-2.231,-2.231,0.0,0.0,0.0,0.0,-2.231,0.0,0.0,0.0,0.0,0.0,0.0,-2.231,-2.231,-2.231,-2.231,-2.231,-2.231,-2.236,0.0,0.0,0.0,0.0,0.0,0.0,0.0,0.0,0.0,0.0,0.0,0.0,0.0,0.0,0.0,0.0,0.0,0.0,0.0,0.0,0.0,0.0,0.0,0.0,0.0,0.0,0.0,0.0,0.0,0.0,0.0,-3.2284,-3.2698,-3.2698,-3.3458,-3.388,-3.3935,-3.3935,-3.3917,-3.3862,-3.4642,-3.5064,-3.5064,-3.5064,-3.5064,-3.5027,-3.4284,-3.4835,-3.6468,-3.7221,-3.7991,-3.8707,-3.8762,-3.8762,-3.8836,-3.9588,-3.9937,-4.012,-4.0891,-4.1203,-4.124,0.0,0.0,0.0,0.0,0.0,0.0,0.0,0.0,0.0,0.0,0.0,0.0,0.0,0.0,-1.969,-1.969,-1.969,0.0,0.0,0.0,0.0,-2.2209,-2.231,-2.231,-2.231,0.0,0.0,0.0,0.0,-2.231,-2.231,-2.231,-2.231,-2.231,-2.231,-2.231,-2.231,-2.231,0.0,0.0,-2.231,-2.231,0.0,0.0,0.0,0.0,0.0,0.0,0.0,-2.231,-2.231,-2.231,-2.231,-2.231,-2.2338,0.0,0.0,0.0,0.0,0.0,0.0,0.0,0.0,0.0,0.0,0.0,0.0,0.0,0.0,0.0,0.0,0.0,0.0,0.0,0.0,0.0,0.0,0.0,0.0,0.0,0.0,0.0,0.0,0.0,0.0,0.0,0.0,-3.1825,-3.1825,-3.21,-3.2247,-3.2247,-3.2247,-3.2247,-3.2247,-3.3073,-3.345,-3.3476,-3.399,-3.4229,-3.4229,-3.3935,-3.4412,-3.5495,-3.5771,-3.667,-3.7955,-3.8487,-3.8707,-3.8726,-3.9019,-3.9441,-3.9918,-4.0212,-4.0671,-4.1111,0.0,0.0,0.0,0.0,0.0,0.0,0.0,0.0,0.0,0.0,0.0,0.0,0.0,0.0,-1.969,-1.969,-1.969,-1.969,-1.969,-1.969,-2.0345,-2.1781,-2.184,-2.184,0.0,0.0,0.0,0.0,0.0,0.0,0.0,0.0,-2.231,-2.231,-2.231,-2.231,0.0,0.0,0.0,-2.231,0.0,-2.231,-2.231,0.0,0.0,0.0,0.0,0.0,0.0,0.0,-2.231,-2.231,0.0,0.0,0.0,0.0,0.0,0.0,0.0,0.0,0.0,0.0,0.0,0.0,0.0,0.0,0.0,0.0,0.0,0.0,0.0,0.0,0.0,0.0,0.0,0.0,0.0,0.0,0.0,0.0,0.0,0.0,0.0,0.0,0.0,0.0,0.0,0.0,-3.0999,-3.1237,-3.1384,-3.1384,-3.1127,-3.1127,-3.1384,-3.1935,-3.221,-3.221,-3.3018,-3.3403,-3.3421,-3.3678,-3.41,-3.4633,-3.5202,-3.6229,-3.7533,-3.8065,-3.8469,-3.8707,-3.8707,-3.9038,-3.9496,-3.9496,-3.9845,-4.0304,0.0,0.0,0.0,0.0,0.0,0.0,0.0,0.0,0.0,0.0,0.0,0.0,0.0,0.0,0.0,-1.969,-1.969,-1.969,-1.969,-1.969,-2.0085,-2.0926,0.0,0.0,0.0,0.0,0.0,0.0,0.0,0.0,0.0,0.0,-2.231,0.0,-2.231,-2.2282,-2.2225,0.0,-2.231,-2.231,0.0,-2.231,-2.231,0.0,0.0,0.0,-2.231,-2.231,0.0,-2.231,0.0,0.0,0.0,0.0,0.0,0.0,0.0,0.0,0.0,0.0,0.0,0.0,0.0,0.0,0.0,0.0,0.0,0.0,0.0,0.0,0.0,0.0,0.0,0.0,0.0,0.0,0.0,0.0,0.0,0.0,0.0,0.0,0.0,0.0,0.0,0.0,-2.9732,-3.0173,-3.0173,-3.0889,-3.1329,-3.1329,-3.0577,-3.054,-3.1311,-3.1347,-3.1347,-3.1366,-3.2192,-3.2596,-3.2632,-3.3421,-3.377,-3.388,-3.5514,-3.667,-3.7422,-3.7489,-3.7955,-3.867,-3.867,-3.867,-3.867,-3.8689,-3.8707,-3.8707,0.0,0.0,0.0,0.0,0.0,0.0,0.0,0.0,0.0,0.0,0.0,0.0,0.0,0.0,0.0,-1.969,-1.969,-1.969,-1.969,-1.969,-1.9818,-2.005,-2.0665,0.0,0.0,0.0,0.0,0.0,0.0,0.0,0.0,0.0,0.0,0.0,-2.231,-2.1584,-2.0499,-2.1751,0.0,0.0,-2.231,-2.231,0.0,0.0,0.0,0.0,0.0,-2.231,-2.231,0.0,-2.231,-2.231,0.0,0.0,0.0,0.0,0.0,0.0,-2.231,0.0,0.0,0.0,0.0,0.0,0.0,0.0,0.0,0.0,0.0,0.0,0.0,0.0,0.0,0.0,0.0,0.0,0.0,0.0,0.0,0.0,0.0,0.0,0.0,0.0,0.0,0.0,-2.9195,-2.9347,-2.9347,-2.9549,-2.9659,-2.9659,-2.9457,-2.9457,-2.9659,-3.0246,-3.0522,-3.054,-3.1347,-3.2045,-3.2614,-3.2834,-3.3256,-3.3825,-3.4284,-3.4945,-3.5789,-3.7,-3.7606,-3.7826,-3.7826,-3.7826,-3.79,-3.8487,-3.8707,-3.8707,0.0,0.0,0.0,0.0,0.0,0.0,0.0,0.0,0.0,0.0,0.0,0.0,0.0,0.0,0.0,-1.969,-1.969,-1.969,-1.969,-1.969,-1.969,-1.969,-2.0189,-2.0926,0.0,0.0,0.0,0.0,0.0,0.0,0.0,0.0,0.0,0.0,0.0,0.0,0.0,0.0,0.0,0.0,-2.2209,0.0,0.0,-2.231,-2.231,0.0,0.0,0.0,-2.231,-2.231,-2.231,0.0,0.0,0.0,0.0,0.0,0.0,0.0,0.0,0.0,0.0,0.0,0.0,0.0,-2.2923,-2.3093,0.0,0.0,0.0,0.0,0.0,0.0,0.0,0.0,0.0,0.0,0.0,0.0,0.0,0.0,0.0,0.0,0.0,-2.7917,-2.8351,-2.848,-2.8815,-2.8994,-2.8994,-2.8994,-2.8994,-2.8994,-2.8994,-2.8994,-2.8994,-2.9475,-2.9714,-2.9714,-3.0503,-3.1311,-3.2118,-3.2467,-3.3054,-3.3825,-3.4156,-3.4578,-3.5064,-3.6064,-3.6872,-3.7507,-3.7507,-3.7698,-3.8046,-3.8524,-3.8707,-3.8707,0.0,0.0,0.0,0.0,0.0,0.0,0.0,0.0,0.0,0.0,0.0,0.0,0.0,0.0,0.0,0.0,-1.969,-1.969,-1.969,-1.969,-1.969,-1.969,-1.969,-2.0174,-2.1181,0.0,0.0,0.0,0.0,0.0,0.0,0.0,0.0,0.0,0.0,0.0,0.0,0.0,0.0,-2.1383,-2.2032,-2.231,0.0,0.0,-2.231,-2.231,-2.231,-2.231,-2.231,-2.231,-2.231,0.0,0.0,0.0,0.0,0.0,-2.231,0.0,0.0,0.0,0.0,0.0,0.0,0.0,-2.2599,-2.289,-2.3111,0.0,0.0,0.0,0.0,0.0,0.0,0.0,0.0,0.0,0.0,0.0,0.0,0.0,0.0,0.0,-2.6341,-2.6817,-2.7247,-2.7574,-2.8388,-2.8902,-2.8929,-2.8929,-2.8929,-2.8929,-2.8929,-2.8952,-2.8994,-2.8994,-2.8994,-2.8994,-2.9732,-3.0522,-3.1403,-3.2137,-3.2963,-3.3844,-3.4578,-3.4862,-3.4862,-3.4862,-3.5807,-3.7221,-3.7342,-3.779,-3.8469,-3.8634,-3.8707,-3.8707,0.0,0.0,0.0,0.0,0.0,0.0,0.0,0.0,0.0,0.0,0.0,0.0,0.0,0.0,0.0,0.0,0.0,-1.969,-1.969,-1.969,-1.969,-1.969,-1.969,-1.9818,-2.0015,-2.1524,0.0,0.0,0.0,0.0,0.0,0.0,0.0,0.0,0.0,0.0,0.0,0.0,0.0,-2.0862,-2.1878,0.0,-2.231,-2.231,-2.231,-2.231,-2.231,-2.231,-2.231,-2.231,-2.231,-2.231,0.0,0.0,0.0,0.0,0.0,0.0,0.0,0.0,0.0,0.0,0.0,0.0,-2.2377,-2.2443,-2.2544,0.0,0.0,0.0,0.0,0.0,0.0,0.0,0.0,0.0,0.0,0.0,0.0,0.0,0.0,0.0,-2.4849,-2.5497,-2.6086,-2.6426,-2.7437,-2.8187,-2.8504,-2.8515,-2.8515,-2.8515,-2.8515,-2.8682,-2.8994,-2.8994,-2.8994,-2.8994,-2.914,-2.9989,-3.1403,-3.1549,-3.243,-3.3807,-3.3972,-3.4027,-3.4027,-3.4027,-3.4614,-3.5569,-3.6266,-3.6633,-3.6927,-3.823,-3.8707,-3.8707,0.0,0.0,0.0,0.0,0.0,0.0,0.0,0.0,0.0,0.0,0.0,0.0,0.0,0.0,0.0,0.0,0.0,0.0,0.0,0.0,-1.969,-1.969,-1.969,-1.9854,-2.0154,-2.0714,-2.1432,0.0,0.0,0.0,0.0,0.0,0.0,0.0,0.0,0.0,0.0,0.0,-2.0975,-2.0684,-2.184,0.0,-2.231,-2.231,-2.231,-2.231,-2.231,-2.231,-2.231,-2.231,-2.231,0.0,0.0,-2.231,-2.231,0.0,-2.231,-2.2395,0.0,0.0,0.0,-2.2767,0.0,0.0,0.0,-2.2398,-2.25,0.0,0.0,0.0,0.0,0.0,0.0,0.0,0.0,0.0,0.0,0.0,0.0,0.0,0.0,0.0,-2.3797,-2.4398,-2.5093,-2.581,-2.653,-2.7133,-2.7575,-2.7723,-2.7929,-2.8139,-2.8156,-2.8316,-2.87,-2.8682,-2.8797,-2.8994,-2.8994,-2.9641,-3.0815,-3.1219,-3.2063,-3.322,-3.3623,-3.3807,-3.3807,-3.3807,-3.4045,-3.4486,-3.533,-3.5917,-3.6395,-3.7202,-3.7753,-3.8102,0.0,0.0,0.0,0.0,0.0,0.0,0.0,0.0,0.0,0.0,0.0,0.0,0.0,0.0,0.0,0.0,0.0,0.0,0.0,0.0,-1.969,-1.969,-1.969,-1.9925,-2.0429,-1.996,-2.0379,0.0,0.0,0.0,0.0,0.0,0.0,0.0,0.0,0.0,0.0,0.0,0.0,-2.0512,0.0,-2.2157,-2.2293,-2.2101,-2.2084,-2.2118,-2.2077,-2.2049,-2.2049,-2.2135,-2.218,-2.218,-2.2282,-2.2412,0.0,0.0,0.0,0.0,0.0,0.0,0.0,0.0,0.0,-2.231,0.0,0.0,0.0,0.0,0.0,0.0,0.0,0.0,0.0,0.0,0.0,0.0,0.0,0.0,0.0,0.0,0.0,0.0,0.0,-2.3458,-2.4165,-2.5216,-2.5589,-2.6043,-2.6657,-2.6898,-2.7255,-2.7776,-2.7765,-2.7964,-2.8316,-2.8298,-2.8464,-2.8791,-2.8839,-2.9308,-3.0094,-3.0827,-3.1604,-3.2412,-3.322,-3.3568,-3.3587,-3.3733,-3.3807,-3.388,-3.4679,-3.544,-3.6064,-3.6229,-3.6798,-3.7507,-1.3386,-1.4083,0.0,0.0,0.0,0.0,0.0,0.0,0.0,0.0,0.0,0.0,0.0,0.0,0.0,0.0,0.0,0.0,-1.969,0.0,0.0,-1.969,-1.969,-1.9726,-1.9782,-1.9762,-1.9782,-1.998,0.0,0.0,0.0,0.0,0.0,0.0,-2.0015,0.0,0.0,0.0,-2.0156,0.0,-2.0766,-2.1609,0.0,-2.1434,-2.1305,-2.1483,-2.1228,-2.1166,-2.1181,0.0,-2.1688,-2.1748,0.0,-2.275,-2.3139,0.0,0.0,0.0,0.0,0.0,0.0,0.0,-2.2852,0.0,0.0,0.0,-2.2349,-2.231,0.0,0.0,0.0,0.0,0.0,0.0,0.0,0.0,0.0,0.0,0.0,0.0,0.0,0.0,0.0,-2.2659,-2.3215,-2.4112,-2.4441,-2.5076,-2.6225,-2.6295,-2.6626,-2.733,-2.7348,-2.756,-2.7936,-2.7954,-2.7982,-2.8037,-2.8316,-2.8887,-2.9673,-3.0143,-3.0779,-3.1568,-3.2394,-3.2742,-3.2797,-3.3513,-3.3807,-3.388,-3.4679,-3.5045,-3.5229,-3.6028,-3.6798,-3.7507,0.0,0.0,0.0,0.0,0.0,0.0,0.0,0.0,0.0,0.0,0.0,0.0,0.0,0.0,0.0,0.0,0.0,-1.969,0.0,0.0,0.0,0.0,-1.969,-1.969,-1.969,-1.969,-1.969,-1.969,-1.969,0.0,0.0,0.0,0.0,0.0,-1.9782,0.0,-1.9929,0.0,0.0,0.0,0.0,0.0,0.0,-2.1134,-2.1052,-2.1164,-2.1039,-2.0991,-2.1039,0.0,-2.1399,0.0,0.0,0.0,0.0,0.0,0.0,0.0,0.0,0.0,0.0,0.0,0.0,0.0,-2.2237,0.0,-2.231,0.0,0.0,0.0,0.0,0.0,0.0,0.0,-2.2107,0.0,0.0,0.0,0.0,0.0,0.0,0.0,0.0,0.0,0.0,0.0,-2.3267,-2.3745,-2.4538,-2.5178,-2.5747,-2.6304,-2.6749,-2.7147,-2.753,-2.753,-2.7648,-2.7897,-2.8047,-2.8281,-2.8629,-2.9474,-3.0046,-3.0418,-3.1455,-3.1898,-3.1971,-3.2779,-3.3109,-3.3183,-3.399,-3.4302,-3.4412,-3.5238,-3.6083,-3.6853,0.0,0.0,0.0,0.0,0.0,0.0,0.0,0.0,0.0,0.0,0.0,0.0,-1.969,-1.969,0.0,0.0,-1.969,-1.969,0.0,0.0,-1.969,0.0,0.0,0.0,0.0,-1.969,-1.969,-1.969,-1.969,0.0,0.0,0.0,0.0,0.0,-1.969,-1.969,-1.969,0.0,0.0,-1.9696,-1.9697,-2.0093,-2.0659,-2.0824,-2.0795,-2.0632,-2.0632,-2.0632,-2.0665,-2.0829,-2.1183,0.0,-2.1488,0.0,0.0,0.0,0.0,0.0,-2.5112,0.0,0.0,0.0,0.0,0.0,0.0,0.0,0.0,0.0,0.0,0.0,0.0,0.0,0.0,0.0,0.0,0.0,0.0,0.0,0.0,0.0,0.0,0.0,0.0,0.0,0.0,-2.231,-2.2473,-2.2826,-2.3388,-2.4149,-2.4868,-2.5575,-2.6116,-2.6653,-2.7147,-2.7147,-2.7272,-2.756,-2.7678,-2.7754,-2.7771,-2.8701,-2.9116,-2.9197,-3.0399,-3.091,-3.0965,-3.1909,-3.2412,-3.2669,-3.3238,-3.3605,-3.3899,-3.4697,-3.5569,-3.6413,-1.6522,-1.6471,0.0,0.0,0.0,0.0,0.0,0.0,0.0,0.0,0.0,0.0,0.0,0.0,0.0,0.0,0.0,-1.969,-1.969,0.0,-1.969,0.0,0.0,-1.969,0.0,0.0,-1.969,-1.969,-1.969,0.0,0.0,0.0,0.0,0.0,-1.969,-1.969,-1.969,-1.969,-1.969,-1.969,-1.9711,-1.9711,-1.9812,0.0,-2.0231,-1.9747,-1.9747,0.0,0.0,-2.0429,-2.0902,0.0,0.0,0.0,0.0,0.0,0.0,0.0,0.0,0.0,0.0,-2.4551,0.0,0.0,0.0,0.0,-2.231,0.0,0.0,0.0,0.0,0.0,0.0,0.0,0.0,0.0,0.0,0.0,0.0,0.0,0.0,0.0,0.0,0.0,0.0,-2.231,-2.231,-2.2632,-2.3359,-2.3439,-2.4103,-2.5558,-2.5625,-2.5981,-2.6725,-2.6725,-2.6725,-2.6758,-2.7147,-2.7334,-2.7317,-2.7771,-2.7961,-2.8025,-2.9179,-2.9664,-2.9763,-3.0947,-3.1898,-3.2614,-3.2632,-3.3109,-3.3899,-3.4697,-3.5569,-3.6413,0.0,0.0,0.0,0.0,0.0,0.0,0.0,-1.865,0.0,0.0,0.0,0.0,0.0,-1.969,-1.969,0.0,0.0,-1.969,-1.969,-1.969,0.0,0.0,0.0,-1.969,0.0,0.0,-1.969,-1.969,-1.969,-1.969,0.0,0.0,0.0,0.0,-1.969,-1.969,0.0,0.0,0.0,0.0,0.0,-1.969,-1.9726,0.0,0.0,-1.969,-1.969,-1.969,0.0,-1.9925,-2.0377,-2.0961,-2.179,-2.266,-2.3269,-2.2709,-2.315,0.0,0.0,0.0,-2.3323,-2.3852,0.0,0.0,0.0,0.0,0.0,0.0,0.0,0.0,0.0,0.0,0.0,0.0,0.0,0.0,0.0,0.0,0.0,0.0,0.0,0.0,0.0,0.0,0.0,-2.231,-2.231,-2.2412,-2.2665,-2.3139,-2.3849,-2.4831,-2.5355,-2.5947,-2.6691,-2.6691,-2.6691,-2.6691,-2.6841,-2.6906,-2.6906,-2.7334,-2.75,-2.7547,-2.8174,-2.8467,-2.8566,-2.9718,-3.0729,-3.1529,-3.2316,-3.3091,-3.3899,-3.4697,-3.5569,-3.6486,-1.6107,0.0,0.0,0.0,0.0,0.0,0.0,0.0,0.0,0.0,-1.8302,0.0,-1.9095,0.0,-1.8968,0.0,-1.9043,-1.9281,-1.969,-1.953,0.0,-1.969,-1.969,0.0,0.0,0.0,0.0,-1.969,-1.969,-1.969,0.0,0.0,0.0,0.0,-1.969,-1.969,-1.969,0.0,-1.969,0.0,0.0,-1.969,0.0,0.0,-1.969,-1.969,0.0,-1.969,-1.969,-1.969,-2.0157,-2.0926,-2.2009,-2.2741,-2.3165,-2.2832,-2.2803,-2.3118,-2.4241,-2.3503,0.0,-2.3025,-2.2247,0.0,-2.1965,0.0,0.0,0.0,0.0,0.0,0.0,0.0,0.0,0.0,0.0,0.0,0.0,-2.231,0.0,0.0,0.0,0.0,0.0,0.0,-2.231,-2.231,-2.231,-2.231,0.0,0.0,-2.346,-2.4472,-2.4949,-2.5676,-2.6674,-2.6691,-2.6691,-2.6691,-2.6691,-2.6691,-2.6725,-2.6971,-2.7083,-2.7115,-2.75,-2.7695,-2.7742,-2.8637,-2.9663,-3.0733,-3.1638,-3.2648,-3.3716,-3.4651,-3.5734,-3.6872,0.0,0.0,0.0,0.0,-1.6522,0.0,0.0,0.0,-1.6993,0.0,-1.7394,-1.6951,-1.7907,-1.7787,-1.7626,-1.7585,-1.7907,-1.8535,-1.9566,-1.9132,0.0,0.0,-1.9639,-1.9639,-1.969,0.0,0.0,0.0,0.0,0.0,0.0,0.0,0.0,0.0,-1.969,0.0,-1.969,-1.969,-1.969,-1.969,-1.969,-1.969,-1.969,-1.969,-1.969,-1.969,-1.969,-1.969,-1.969,-1.969,-2.0243,-2.1216,-2.2877,-2.349,-2.3595,-2.3595,-2.3011,-2.252,-2.3209,-2.2902,-2.23,-2.217,0.0,0.0,0.0,0.0,-2.1582,0.0,0.0,0.0,0.0,0.0,0.0,0.0,0.0,0.0,0.0,0.0,0.0,0.0,0.0,0.0,0.0,-2.231,-2.231,-2.231,-2.231,-2.231,0.0,0.0,-2.3004,-2.4472,-2.4557,-2.5268,-2.6674,-2.6691,-2.6691,-2.6691,-2.6691,-2.6691,-2.6691,-2.6691,-2.6691,-2.6725,-2.7115,-2.7272,-2.7303,-2.7707,-2.8771,-3.0216,-3.0697,-3.1812,-3.3304,-3.4566,-3.6046,-3.747,-1.5365,-1.6095,-1.6522,0.0,-1.6522,-1.6552,0.0,0.0,0.0,0.0,-1.7435,-1.7504,-1.6951,-1.7544,-1.7867,-1.7626,-1.7907,0.0,0.0,0.0,0.0,-1.908,-1.8727,-1.8893,-1.969,-1.9169,0.0,-1.969,0.0,0.0,-1.969,0.0,0.0,0.0,0.0,0.0,-1.969,-1.969,-1.969,-1.969,-1.969,-1.969,0.0,0.0,-1.969,-1.969,-1.969,-1.969,-1.969,-1.969,-1.9839,-2.0094,-2.0543,-2.2039,-2.3595,-2.3595,-2.3445,-2.3323,-2.3495,-2.2722,-2.1933,-2.2211,-2.1514,-2.0821,0.0,0.0,0.0,0.0,0.0,0.0,0.0,0.0,0.0,0.0,0.0,0.0,0.0,0.0,0.0,-2.231,0.0,0.0,-2.231,-2.231,-2.231,-2.231,-2.231,-2.231,-2.231,0.0,0.0,-2.4472,-2.5033,-2.5761,-2.6674,-2.6691,-2.6691,-2.6691,-2.6691,-2.6691,-2.6691,-2.6691,-2.6691,-2.6691,-2.6808,-2.6841,-2.6873,-2.7303,-2.8376,-2.9787,-3.0216,-3.1311,-3.2884,-3.4433,-3.5679,-3.6688,-1.5005,0.0,0.0,-1.6522,0.0,0.0,-1.6522,0.0,0.0,-1.6552,-1.7034,0.0,-1.6552,-1.7034,-1.7312,-1.7146,-1.7312,0.0,-1.7747,0.0,0.0,-1.8535,-1.8263,-1.838,-1.9006,-1.8727,0.0,-1.969,0.0,0.0,-1.969,0.0,0.0,0.0,0.0,-1.969,0.0,-1.969,-1.969,-1.969,-1.969,0.0,0.0,-1.969,-1.969,-1.969,-1.969,-1.969,-1.969,-1.969,-1.969,-1.9884,-2.1036,-2.2413,-2.3595,-2.3595,-2.3206,-2.2832,-2.3116,-2.2308,-2.1443,-2.1554,-2.0828,-2.0158,-2.0583,-2.0682,-2.0682,0.0,0.0,0.0,0.0,0.0,0.0,0.0,0.0,0.0,0.0,0.0,0.0,0.0,-2.231,0.0,-2.231,-2.231,-2.231,-2.231,-2.231,-2.231,0.0,0.0,0.0,-2.4489,-2.5524,-2.6285,-2.6691,-2.7012,-2.7012,-2.6691,-2.6691,-2.6691,-2.6691,-2.6691,-2.6691,-2.6691,-2.6691,-2.6691,-2.6725,-2.6922,-2.7755,-2.8905,-2.9981,-3.1276,-3.2603,-3.3561,-3.4806,-3.6049,0.0,0.0,0.0,0.0,0.0,0.0,0.0,-1.6522,0.0,-1.6522,0.0,-1.6522,-1.6522,-1.6522,-1.6522,-1.6522,0.0,-1.671,-1.7146,-1.7188,-1.7422,-1.7987,-1.7947,-1.7947,-1.8027,-1.8224,-1.865,0.0,0.0,0.0,0.0,0.0,0.0,0.0,0.0,0.0,0.0,-1.969,-1.969,-1.969,-1.969,-1.969,-1.969,-1.969,-1.969,-1.969,-1.969,-1.969,-1.969,-1.969,-1.969,-2.0094,-2.2368,-2.3206,-2.334,-2.3281,-2.2473,-2.1739,-2.2368,-2.1769,-2.0917,-2.0752,-2.0198,-1.9782,-2.0158,-2.0212,-2.0212,-2.0212,-2.0565,-2.0599,0.0,0.0,0.0,0.0,0.0,0.0,0.0,0.0,0.0,0.0,0.0,0.0,-2.2282,-2.231,-2.231,-2.231,-2.231,-2.231,0.0,0.0,0.0,-2.4489,-2.5828,-2.664,-2.6843,0.0,-2.7385,-2.6843,-2.6742,-2.6691,-2.6691,-2.6691,-2.6691,-2.6691,-2.6691,-2.6691,-2.6691,-2.6691,-2.7199,-2.813,-2.9901,-3.1324,-3.2316,-3.2316,-3.3573,-3.5289,0.0,0.0,0.0,0.0,0.0,-1.5332,-1.6337,-1.6522,-1.6522,-1.6522,-1.6522,-1.6522,-1.6522,-1.6522,-1.6522,-1.6522,-1.6522,0.0,0.0,0.0,0.0,-1.7435,-1.7034,-1.7076,-1.7666,-1.7146,-1.6909,0.0,0.0,0.0,0.0,0.0,0.0,0.0,0.0,0.0,-1.969,-1.969,0.0,-1.969,-1.969,-1.969,-1.969,-1.969,-1.969,-1.969,-1.969,-1.969,-1.969,-1.969,-1.969,-1.9765,-2.0228,-2.1126,-2.1964,-2.156,-2.1291,-2.1216,-2.1724,-2.1335,-2.0752,-2.0722,-2.0198,-1.9711,-1.9782,-1.9818,-1.9818,-1.9818,-1.9889,-1.998,-2.0158,0.0,0.0,0.0,0.0,0.0,0.0,0.0,0.0,0.0,0.0,-2.1869,0.0,-2.231,-2.231,0.0,0.0,0.0,0.0,0.0,0.0,0.0,-2.5338,0.0,0.0,0.0,-2.7131,-2.7621,-2.6996,-2.6691,-2.6691,-2.6691,-2.6691,-2.6691,-2.6691,-2.6691,-2.6691,-2.6691,-2.752,-2.8892,-2.9847,-3.0704,-3.1428,-3.1428,-3.232,-3.3669,0.0,0.0,0.0,0.0,0.0,0.0,0.0,-1.6522,0.0,-1.6522,-1.6522,-1.6522,-1.6522,-1.6522,-1.6522,-1.6522,-1.6522,-1.6522,-1.6522,-1.6522,-1.6637,-1.6879,-1.6637,0.0,-1.7034,-1.668,-1.6522,-1.6522,0.0,0.0,0.0,0.0,0.0,0.0,0.0,-1.969,0.0,0.0,0.0,-1.969,-1.969,-1.969,-1.969,-1.969,-1.969,-1.969,-1.969,-1.969,-1.969,-1.969,-1.969,-1.975,-2.0109,-2.0662,-2.1216,-2.1321,-2.1186,-2.1096,-2.156,-2.0961,-2.0258,-2.0617,-2.0198,-1.969,-1.969,-1.969,-1.969,-1.969,-1.969,-1.9818,-2.0212,-2.0296,0.0,0.0,0.0,0.0,0.0,0.0,0.0,0.0,0.0,0.0,0.0,0.0,0.0,0.0,0.0,0.0,0.0,0.0,0.0,0.0,0.0,0.0,0.0,0.0,0.0,-2.7232,-2.686,-2.6691,-2.6691,-2.6691,-2.6691,-2.6691,-2.6691,-2.6691,-2.6691,-2.6691,-2.7604,-2.9062,-2.9381,-3.0209,-3.119,-3.119,-3.1589,-3.229,0.0,-1.4433,0.0,0.0,-1.4468,0.0,-1.6423,-1.6064,-1.5932,-1.6423,-1.6522,-1.6522,-1.6522,-1.6522,-1.6522,-1.6522,-1.6522,-1.6522,-1.6522,-1.6522,-1.6522,-1.6522,-1.6522,-1.6522,-1.6522,-1.6522,-1.6522,0.0,0.0,0.0,0.0,0.0,0.0,0.0,0.0,0.0,0.0,0.0,-1.9369,-1.9361,-1.9597,-1.9708,-1.9708,-1.9708,-1.9708,-1.9657,-1.945,-1.9523,-1.9692,-1.9581,-1.9603,-1.9779,-2.0318,-2.0498,-2.0602,-2.1111,-2.1006,-2.0797,-2.1156,-2.0483,-1.9854,-2.0543,-2.0303,-1.9899,-1.9899,-1.9899,-1.9854,-1.972,-1.969,-1.9818,-2.0124,-1.9909,0.0,0.0,0.0,0.0,0.0,0.0,0.0,0.0,0.0,0.0,-2.143,0.0,0.0,0.0,0.0,0.0,0.0,0.0,0.0,0.0,0.0,-2.6623,-2.6928,0.0,-2.7368,-2.6928,-2.6776,-2.6691,-2.6691,-2.6691,-2.6691,-2.6691,-2.6691,-2.6793,-2.6911,-2.6759,-2.7689,-2.9211,-2.9042,-2.9888,-3.119,-3.119,-3.119,-3.1336,0.0,0.0,0.0,0.0,0.0,0.0,-1.6151,-1.4652,-1.4025,-1.6207,-1.6522,-1.6522,-1.6522,-1.6522,-1.6522,-1.6522,-1.6522,-1.6522,-1.6522,-1.6522,-1.6522,-1.6522,-1.6522,-1.6522,-1.6522,-1.6522,-1.6522,0.0,0.0,0.0,0.0,0.0,0.0,0.0,0.0,0.0,0.0,-1.8391,-1.8266,-1.8313,-1.9305,-1.9695,-1.9695,-1.9695,-1.9695,-1.9584,-1.8588,-1.886,-1.9633,-1.9145,-1.9281,-1.969,-1.9765,-1.9779,-1.9794,-1.9854,-1.9839,-1.9809,-1.9869,-1.9779,-1.9854,-2.0543,-2.0662,-2.0617,-2.0617,-2.0617,-2.0438,-1.9809,-1.969,-1.9711,-1.9747,-1.9726,-1.9711,0.0,0.0,0.0,0.0,0.0,0.0,0.0,0.0,0.0,0.0,-2.1399,0.0,0.0,0.0,0.0,0.0,0.0,0.0,-2.4489,0.0,-2.6353,-2.7671,-2.7114,-2.7114,-2.7671,-2.7012,-2.6691,-2.6691,-2.6691,-2.6691,-2.6691,-2.6691,-2.708,-2.7672,-2.6979,-2.7994,-2.9939,-2.9245,-2.9888,-3.119,-3.119,-3.119,-3.1207,0.0,0.0,0.0,0.0,0.0,0.0,0.0,-1.3525,-1.3248,-1.4201,-1.5611,-1.6522,-1.6522,-1.6522,-1.6522,-1.6522,-1.6522,-1.6522,-1.6522,-1.6522,-1.6522,-1.6522,-1.6522,-1.6522,-1.6522,-1.6522,-1.6522,0.0,0.0,0.0,0.0,0.0,0.0,0.0,0.0,-1.8535,-1.7312,-1.7183,-1.7124,-1.7183,-1.7596,-1.7783,-1.7783,-1.7783,-1.7783,-1.7716,-1.7315,-1.782,-1.8744,-1.8729,-1.9182,-1.969,-1.969,-1.969,-1.969,-1.969,-1.969,-1.969,-1.969,-1.969,-1.9854,-2.0543,-2.0408,-2.0213,-2.0617,-2.0393,-2.0019,-1.975,-1.969,-1.969,-1.969,-1.969,-1.969,0.0,0.0,0.0,0.0,0.0,0.0,0.0,0.0,0.0,0.0,0.0,0.0,0.0,0.0,0.0,0.0,0.0,0.0,-2.4441,0.0,-2.5642,-2.7131,-2.6843,-2.6843,-2.7148,-2.6843,-2.6928,-2.7351,-2.6894,-2.6691,-2.6691,-2.6691,-2.7131,-2.7722,-2.6996,-2.8044,-3.004,-2.9279,-2.9888,-3.119,-3.119,-3.119,-3.119,-1.2881,0.0,-1.2881,0.0,-1.2881,-1.2881,-1.2881,-1.2881,-1.2881,-1.2881,-1.4387,-1.5421,-1.5421,-1.5421,-1.5744,-1.6423,-1.6522,-1.6522,-1.6522,-1.6522,-1.6522,-1.6522,-1.6522,0.0,-1.6522,-1.6522,-1.6522,-1.6522,-1.6522,0.0,0.0,0.0,0.0,0.0,-1.8066,-1.7907,-1.6522,-1.6522,-1.6498,-1.6507,-1.6514,-1.6502,-1.6502,-1.6502,-1.6502,-1.6502,-1.6502,-1.6996,-1.7652,-1.7881,-1.8458,-1.9096,-1.9192,-1.9332,-1.9442,-1.9442,-1.9566,-1.969,-1.969,-1.969,-1.9899,-2.0782,-2.0498,-2.0168,-2.0842,-2.0483,-1.9929,-1.9735,-1.969,-1.969,-1.969,-1.969,-1.969,-1.969,0.0,0.0,0.0,0.0,0.0,0.0,-1.969,-1.9803,-2.0089,-2.0212,0.0,0.0,0.0,0.0,0.0,0.0,0.0,0.0,0.0,0.0,0.0,-2.6539,-2.6691,-2.6691,-2.6691,-2.6962,-2.7486,-2.7165,-2.7148,-2.7368,-2.7368,-2.7672,-2.8112,-2.7588,-2.845,-3.0057,-2.9533,-3.0074,-3.119,-3.119,-3.119,-3.119,-1.2881,-1.2881,-1.2881,-1.2881,-1.2881,-1.2881,-1.2881,-1.2881,-1.2881,-1.2881,-1.2929,-1.2929,-1.2929,-1.2929,-1.3884,-1.6293,-1.6522,-1.6522,-1.6522,-1.6522,-1.6522,0.0,0.0,-1.6522,-1.6522,-1.6522,-1.6522,-1.6522,0.0,0.0,-1.6522,0.0,-1.6522,-1.6522,-1.6522,-1.6522,-1.6522,-1.6522,-1.6509,-1.6509,-1.6509,-1.6509,-1.6509,-1.6509,-1.6509,-1.6509,-1.6509,-1.6515,-1.6507,-1.6507,-1.7036,-1.7689,-1.8011,-1.8496,-1.8893,-1.8893,-1.9281,-1.969,-1.969,-1.969,-2.0004,-2.135,-2.1186,-2.0872,-2.1545,-2.1171,-2.0513,-1.9824,-1.969,-1.969,-1.969,-1.969,-1.969,-1.969,0.0,0.0,0.0,0.0,0.0,-1.969,-1.969,-1.969,-1.9726,-2.007,0.0,0.0,0.0,0.0,0.0,0.0,0.0,-2.2131,-2.3998,0.0,-2.501,-2.6152,-2.6691,-2.6691,-2.6691,-2.6691,-2.6725,-2.7469,-2.823,-2.8994,-2.8994,-2.8958,-2.8958,-2.8958,-2.9414,-3.0108,-3.0091,-3.0548,-3.119,-3.119,-3.119,-3.119,-1.252,-1.2881,-1.2881,-1.2881,-1.2881,-1.2881,-1.2881,-1.2881,-1.2881,-1.2881,-1.2881,-1.2881,-1.2881,-1.2881,-1.32,0.0,-1.4071,-1.4071,0.0,-1.4071,-1.4789,-1.6423,-1.5976,-1.5932,-1.6479,-1.5976,-1.5932,-1.6522,0.0,0.0,0.0,-1.7262,-1.7413,-1.7639,-1.6861,-1.6522,-1.6522,-1.6522,-1.6522,-1.6522,-1.6522,-1.6522,-1.6522,-1.6522,-1.6522,-1.6522,-1.6522,-1.6502,-1.6481,-1.6481,-1.6663,-1.6886,-1.698,-1.7626,-1.8341,-1.8341,-1.8727,-1.9169,-1.9169,-1.9406,-1.9899,-2.0797,-2.0513,-2.0183,-2.0872,-2.0498,-1.9944,-1.9735,-1.969,-1.969,-1.969,-1.969,-1.969,-1.969,-1.969,0.0,0.0,0.0,0.0,0.0,-1.969,-1.969,0.0,-1.9818,0.0,0.0,0.0,0.0,0.0,0.0,0.0,0.0,-2.3391,0.0,-2.565,-2.604,-2.6367,-2.6691,-2.6691,-2.6962,-2.7503,-2.8789,-2.9228,-2.9011,-2.9011,-2.9011,-2.8941,-2.8416,-2.8636,-2.9296,-2.8755,-2.933,-3.0446,-3.0446,-3.0768,-3.119,-1.0998,-1.1351,-1.171,-1.2725,-1.2881,-1.2881,-1.2881,-1.2881,-1.2881,-1.2881,-1.2881,-1.2881,-1.2881,-1.2881,0.0,-1.2881,-1.2881,-1.2881,-1.2881,-1.2881,-1.3563,-1.5062,-1.4983,-1.5164,-1.5788,-1.5485,0.0,-1.6446,-1.7011,-1.7076,-1.6748,-1.7489,-1.7739,-1.7576,-1.7702,-1.7287,-1.6522,-1.6522,-1.6522,-1.6522,-1.6522,-1.6522,-1.6522,-1.6522,-1.6522,-1.6522,-1.6522,-1.6522,-1.6522,-1.6522,-1.6522,-1.6522,-1.6522,-1.6951,-1.7544,-1.7747,-1.8185,-1.8612,-1.8612,-1.8855,-1.924,-1.9948,-1.9613,-1.9272,-1.9862,-2.0035,-1.9989,-1.9735,-1.9884,-1.9989,-1.9735,-1.969,-1.969,-1.969,-1.969,-1.969,-1.969,0.0,0.0,0.0,0.0,0.0,0.0,-1.969,-1.9869,0.0,0.0,0.0,0.0,0.0,0.0,-2.217,-2.2618,0.0,-2.5317,-2.5757,-2.6227,-2.6691,-2.6979,-2.752,-2.8298,-2.9533,-2.9854,-2.9414,-2.9702,-2.9499,-2.8991,-2.9059,-2.9211,-2.9381,-2.9161,-2.9685,-3.0514,-3.0514,-3.0801,-3.119,-0.8804,-0.8804,-0.9629,0.0,-1.2627,0.0,-1.2881,-1.2881,-1.2881,-1.2881,-1.2881,-1.2881,-1.2881,-1.2881,-1.2881,-1.2881,0.0,0.0,0.0,-1.2881,-1.2881,-1.2881,-1.36,-1.4236,-1.4709,-1.5037,-1.5593,-1.6373,-1.6787,-1.6468,-1.5474,-1.7321,-1.7631,-1.6722,-1.8857,-1.8581,-1.6522,-1.6522,-1.6522,-1.6522,-1.6522,-1.6522,-1.6522,-1.6522,-1.6522,-1.6522,-1.6522,-1.6522,-1.6522,-1.6522,-1.6522,-1.6522,-1.6522,-1.6522,-1.6595,-1.7118,-1.7626,-1.8027,-1.8027,-1.8066,-1.823,-1.8878,-1.856,-1.8224,-1.8727,-1.9689,-2.034,-1.9737,-2.0109,-2.0363,-1.9758,-1.969,-1.969,-1.969,-1.969,-1.969,-1.969,0.0,0.0,0.0,0.0,0.0,0.0,-1.969,-1.969,0.0,0.0,0.0,0.0,0.0,-2.0782,-2.0782,-2.1804,-2.2926,-2.4191,-2.5362,-2.6208,-2.6776,-2.7588,-2.8366,-2.9076,-2.9837,-3.0192,-3.0226,-3.0903,-3.0345,-2.913,-3.048,-3.0581,-2.9939,-3.0683,-3.1004,-3.1038,-3.1106,-3.1157,-3.119,0.0,0.0,-0.9008,-0.9673,-0.9777,-1.049,-1.2578,-1.2881,-1.2881,-1.2881,-1.2881,-1.2881,-1.2881,-1.2881,-1.2881,-1.2881,-1.2881,-1.2881,-1.2881,-1.2881,-1.2881,-1.2881,-1.3055,-1.3658,-1.4663,-1.4307,-1.4765,-1.6246,-1.5852,-1.6117,-1.702,-1.7759,-1.7995,-1.7865,-1.9208,-1.8581,-1.6522,-1.6522,-1.6522,-1.6522,-1.6522,-1.6522,-1.6522,-1.6522,-1.6522,-1.6522,-1.6522,-1.6522,-1.6522,-1.6522,-1.6522,-1.6522,-1.6522,-1.6522,-1.6522,-1.6637,-1.7076,-1.7504,-1.7504,-1.7787,-1.8133,-1.8325,-1.8202,-1.8145,-1.8263,-1.8492,-1.868,-1.8525,-1.8932,-1.9284,-1.9124,-1.9406,-1.969,-1.969,-1.969,-1.969,-1.969,-1.969,0.0,0.0,-1.969,-1.969,-1.969,-1.969,-1.969,0.0,0.0,0.0,0.0,-2.0812,-2.1455,-2.1455,-2.1708,-2.2668,-2.4342,-2.5048,-2.6114,-2.7571,-2.8924,-2.9668,-2.9871,-3.0598,-3.0937,-3.0954,-3.1123,-3.0345,-2.9008,-2.9364,-2.8704,-2.7571,-2.8332,-2.8991,-2.9583,-3.0159,-3.0717,-3.119,-0.8804,-0.8804,-0.8804,-0.8804,-0.8804,-0.9316,-1.0787,-1.1049,-1.1049,-1.1049,-1.2116,-1.2881,-1.2881,-1.2881,-1.2881,-1.2881,-1.2881,-1.2881,-1.2881,-1.2881,-1.2881,-1.2881,-1.2881,-1.32,-1.3836,-1.3511,-1.3882,-1.5067,-1.5178,-1.5263,-1.5389,-1.5862,-1.6003,-1.5827,-1.6953,-1.7105,-1.6522,-1.6522,-1.6522,-1.6522,-1.6522,-1.6522,-1.6522,-1.6522,-1.6522,-1.6522,-1.6522,-1.6522,-1.6522,-1.6522,-1.6522,-1.6522,-1.6522,-1.6522,-1.6522,-1.6522,-1.671,-1.6909,-1.6909,-1.7146,-1.7394,-1.7394,-1.7544,-1.7747,-1.7747,-1.8152,-1.8547,-1.8466,-1.893,-1.9244,-1.8976,-1.9363,-1.9633,-1.9376,-1.953,-1.969,-1.969,-1.969,0.0,-1.969,-1.969,-1.969,-1.969,-1.969,-1.969,-1.969,-2.0034,0.0,-2.0154,-2.0857,-2.138,-2.168,-2.1994,-2.2879,-2.4389,-2.4934,-2.5843,-2.7102,-2.8527,-2.9376,-2.9727,-3.0718,-3.1021,-3.0717,-3.1055,-3.0345,-2.9008,-2.9347,-2.8805,-2.7807,-2.8569,-2.9127,-2.9583,-3.0328,-3.0852,-3.119,-0.8804,-0.8804,-0.8804,-0.8804,-0.8804,-0.8804,-0.8804,-0.8804,-0.8804,-0.8804,-1.0846,-1.2264,-1.2264,-1.2264,-1.2471,-1.2881,-1.2881,-1.2881,-1.2881,-1.2881,-1.2881,-1.2881,-1.2881,-1.2881,-1.2881,-1.2881,-1.3154,-1.3679,-1.4457,-1.4205,-1.2891,-1.3379,-1.339,-1.3113,-1.4251,-1.529,-1.6151,-1.602,-1.6064,-1.6207,-1.602,-1.6151,-1.6466,-1.6293,-1.6114,-1.6022,-1.6362,-1.6485,-1.6516,-1.6479,-1.6522,-1.6522,-1.6522,-1.6522,-1.6522,-1.6522,-1.6522,-1.6522,-1.6522,-1.6522,-1.6522,-1.6522,-1.6837,-1.7188,-1.7188,-1.7974,-1.8686,-1.8697,-1.9205,-1.9467,-1.9014,-1.9279,-1.9473,-1.92,-1.9413,-1.9632,-1.9824,0.0,-1.969,-1.969,-1.969,-1.9735,-1.9824,-1.9839,-1.9884,-1.9974,-1.9989,-2.0243,-2.0827,-2.0961,-2.1261,-2.1829,-2.2383,-2.3243,-2.4389,-2.5076,-2.5727,-2.639,-2.7736,-2.8737,-2.9387,-3.0537,-3.0707,-3.0142,-3.0768,-3.0176,-2.8856,-2.9499,-2.9313,-2.8721,-2.9465,-2.9753,-2.9854,-3.0581,-3.0852,-3.0852,-0.8804,-0.8804,-0.8804,-0.8804,-0.8804,-0.8804,-0.8804,-0.8804,-0.8804,-0.8804,-0.9166,-0.942,-0.942,-0.942,-1.0387,-1.2725,-1.2881,-1.2881,-1.2881,-1.2881,-1.2881,-1.2881,-1.2881,-1.2881,-1.2881,-1.2881,-1.3154,-1.3679,-1.3382,-1.3154,-1.2881,-1.2969,-1.3329,-1.3941,-1.4752,-1.488,-1.4422,-1.3742,-1.4071,-1.488,-1.3884,-1.4698,-1.638,-1.5389,-1.436,-1.3744,-1.5766,-1.6483,-1.6516,-1.6485,-1.6522,-1.6522,-1.6522,-1.6522,-1.6522,-1.6522,-1.6522,-1.6522,-1.6522,-1.6522,-1.6522,-1.6522,-1.6552,-1.6637,-1.6637,-1.6786,-1.702,-1.7517,-1.807,-1.8548,-1.8901,-1.9022,-1.9349,-2.0282,-1.9637,-1.9374,-2.0393,0.0,-1.969,-1.969,-1.969,-1.9914,-2.0498,-2.0557,-2.0782,-2.1335,-2.138,-2.144,-2.1545,-2.2069,-2.2428,-2.2559,-2.2664,-2.3243,-2.4389,-2.5664,-2.6603,-2.715,-2.8549,-2.9529,-3.0128,-3.0327,-3.0316,-3.0125,-3.0226,-2.9414,-2.801,-2.8129,-2.7723,-2.7131,-2.7875,-2.8144,-2.8264,-2.9042,-2.933,-2.933,-0.8804,-0.8804,-0.8804,-0.8804,-0.8804,-0.8804,-0.8804,-0.8804,-0.8804,-0.8804,-0.8804,-0.8804,-0.8804,-0.8804,-0.9316,-1.0584,-1.0685,-1.0685,-1.0685,-1.2067,-1.2881,-1.2881,-1.2881,-1.2881,-1.2881,-1.2881,-1.3008,-1.3271,-1.3008,-1.2881,-1.2881,-1.2881,-1.3113,-1.3478,-1.3803,-1.3772,-1.342,-1.3065,-1.32,-1.3658,-1.3113,-1.3573,-1.4525,-1.3931,-1.3365,-1.3037,-1.4146,-1.5383,-1.6495,-1.6502,-1.6502,-1.6495,-1.6492,-1.6498,-1.6486,-1.6504,-1.6522,-1.6522,-1.6522,-1.6522,-1.6522,-1.6522,-1.6522,-1.6522,-1.6522,-1.6522,-1.6685,-1.7262,-1.7829,-1.8202,-1.8151,-1.86,-1.8919,-1.8865,-1.8625,0.0,0.0,-1.9757,-1.9782,-1.972,-2.0333,-2.0752,-2.0722,-2.1036,-2.1365,-2.168,-2.1695,-2.1859,-2.2203,-2.2517,-2.2873,-2.3161,-2.3176,-2.3438,-2.3948,-2.4615,-2.5234,-2.588,-2.7212,-2.8155,-2.8814,-2.9119,-2.9608,-3.0182,-2.9838,-2.9206,-2.845,-2.845,-2.7994,-2.7385,-2.8146,-2.8704,-2.9144,-2.9888,-3.0176,-3.0176,-0.7771,-0.8315,-0.8804,-0.8804,-0.8804,-0.8804,-0.8804,-0.8804,-0.8804,-0.8804,-0.8804,-0.8804,-0.8804,-0.8804,-0.8804,-0.8804,-0.8804,-0.8804,-0.8804,-1.0795,-1.2215,-1.2881,-1.2881,-1.2881,-1.2881,-1.2881,-1.2881,-1.2881,-1.2881,-1.2881,-1.2881,-1.2881,-1.2881,-1.2881,-1.2881,-1.2881,-1.2881,-1.2881,-1.2881,-1.2881,-1.2881,-1.2881,-1.2881,-1.2881,-1.2881,-1.2881,-1.2881,-1.4074,-1.5719,-1.598,-1.5911,-1.5648,-1.5652,-1.6049,-1.6507,-1.6517,-1.6504,-1.6522,-1.6522,-1.6522,-1.6522,-1.6522,-1.6522,-1.6522,-1.6522,-1.6522,-1.6685,-1.7262,-1.7714,-1.7928,-1.7626,-1.8157,-1.8409,-1.7797,0.0,0.0,0.0,-1.9577,-1.9914,-1.9945,-2.0974,-2.156,-2.1201,-2.162,-2.1979,-2.2128,-2.2143,-2.2353,-2.2862,-2.2892,-2.3101,-2.3595,-2.3595,-2.367,-2.3834,-2.3984,-2.4403,-2.5091,-2.6214,-2.7103,-2.7752,-2.8221,-2.8957,-2.9786,-2.9149,-2.8741,-2.859,-2.8423,-2.8142,-2.7933,-2.8337,-2.905,-2.9888,-3.0277,-3.0531,-3.0683,-0.4846,-0.6961,-0.8804,-0.8804,-0.8804,-0.8804,-0.8804,-0.8804,-0.8804,-0.8804,-0.8804,-0.8804,-0.8804,-0.8804,-0.8804,-0.8804,-0.8804,-0.8804,-0.8804,-0.9008,-1.0233,-1.2774,-1.2881,-1.2881,-1.2881,-1.2881,-1.2881,-1.2881,-1.2881,-1.2881,-1.2881,-1.2881,-1.2881,-1.2881,-1.2881,-1.2881,-1.2881,-1.2881,-1.2881,-1.2881,-1.2881,-1.2881,-1.2881,-1.2881,-1.2881,-1.2881,-1.2881,-1.2988,-1.3337,-1.4466,-1.4087,-1.318,-1.3159,-1.4675,-1.6514,-1.6507,-1.6486,-1.6522,-1.6522,-1.6522,-1.6522,-1.6522,-1.6522,-1.6522,-1.6522,-1.6522,-1.6685,-1.7262,-1.7413,-1.7589,-1.8053,-1.7811,-1.7823,-1.8798,0.0,0.0,-1.9611,-1.9863,-2.0073,-2.0577,-2.127,-2.1919,-2.2488,-2.2619,-2.2847,-2.3415,-2.346,-2.3475,-2.3535,-2.3535,-2.355,-2.3595,-2.3595,-2.3909,-2.4507,-2.5151,-2.5794,-2.6452,-2.716,-2.7822,-2.8434,-2.8481,-2.8465,-2.8426,-2.7721,-2.74,-2.7262,-2.6647,-2.7064,-2.8003,-2.7323,-2.7894,-2.8991,-2.8315,-2.8518,-2.9144,-0.4519,-0.5386,-0.6145,-0.6145,-0.6145,-0.674,-0.8533,-0.8804,-0.8804,-0.8804,-0.8804,-0.8804,-0.8804,-0.8804,-0.8804,-0.8804,-0.8804,-0.8804,-0.8804,-0.8804,-0.9263,-1.0336,-1.2008,-1.2881,-1.2881,-1.2881,-1.2881,-1.2881,-1.2881,-1.2881,-1.2881,-1.2881,-1.2881,-1.2881,-1.2881,-1.2881,-1.2881,-1.2881,-1.2881,-1.2881,-1.2881,-1.2881,-1.2881,-1.2881,-1.2881,-1.2881,-1.2881,-1.2881,-1.2978,-1.343,-1.329,-1.2885,-1.2896,-1.3543,-1.4441,-1.544,-1.5757,-1.5763,-1.5901,-1.6238,-1.6522,-1.6522,-1.6522,-1.6522,-1.6522,-1.6522,-1.6584,-1.6798,-1.7137,-1.7338,-1.7187,-1.7564,-1.7932,-1.8042,0.0,-1.8222,-1.9213,-1.9714,-2.0138,-2.0654,-2.167,-2.2436,-2.2682,-2.3026,-2.334,-2.358,-2.3595,-2.3595,-2.3595,-2.3595,-2.3595,-2.3595,-2.3595,-2.3729,-2.3984,-2.4657,-2.5136,-2.539,-2.6452,-2.6883,-2.673,-2.7139,-2.7503,-2.779,-2.7523,-2.7604,-2.7849,-2.762,-2.7538,-2.7599,-2.7736,-2.8347,-2.9215,-2.9303,-2.9789,-3.0345,-0.4519,-0.4519,-0.4519,-0.4519,-0.4519,-0.5171,-0.7176,-0.745,-0.7771,-0.8699,-0.8804,-0.8804,-0.8804,-0.9138,-0.9359,-0.9359,-0.9359,-0.9198,-0.8831,-0.8804,-0.8804,-0.8804,-1.0958,-1.2,-1.1619,-1.161,-1.2067,-1.2881,-1.2461,-1.2314,-1.2461,-1.2304,-1.2255,-1.2255,-1.2461,-1.2559,-1.2559,-1.2774,-1.2881,-1.2881,-1.2881,-1.2881,-1.2881,-1.2881,-1.2881,-1.2881,-1.2881,-1.2881,-1.2881,-1.2881,-1.2881,-1.29,-1.2907,-1.2912,-1.3138,-1.4215,-1.4719,-1.4937,-1.5106,-1.552,-1.602,-1.6423,-1.6522,-1.6522,-1.6522,-1.6522,-1.6522,-1.6522,-1.6835,-1.6986,-1.6584,-1.73,-1.7827,-1.7438,-1.784,-1.8396,-1.8926,-1.9606,-2.016,-2.0687,-2.188,-2.2626,-2.2411,-2.3111,-2.3508,-2.3334,-2.3508,-2.3595,-2.3595,-2.3595,-2.3595,-2.3595,-2.3595,-2.3595,-2.3595,-2.4283,-2.4732,-2.4956,-2.5854,-2.6048,-2.563,-2.6078,-2.6602,-2.7226,-2.6965,-2.7334,-2.8074,-2.7854,-2.7709,-2.768,-2.7933,-2.8651,-2.9642,-2.9865,-3.0499,-3.1157,-0.4519,-0.4519,-0.4519,-0.4519,-0.4519,-0.4519,-0.4519,-0.4519,-0.555,-0.8368,-0.8752,-0.8752,-0.8804,-0.9853,-1.0624,-1.0624,-1.0624,-1.0067,-0.8898,-0.8824,-0.8818,-0.8804,-0.9927,-1.0,-0.8831,-0.8804,-1.0131,-1.2881,-1.1484,-1.1023,-1.1484,-1.1023,-1.0813,-1.0813,-1.1516,-1.1814,-1.1864,-1.2608,-1.2881,-1.2881,-1.2881,-1.2881,-1.2881,-1.2881,-1.2881,-1.2881,-1.2881,-1.2881,-1.2881,-1.2881,-1.2881,-1.2881,-1.2881,-1.2888,-1.2919,-1.2919,-1.3455,-1.4098,-1.4098,-1.4369,-1.4971,-1.6194,-1.6466,-1.6466,-1.6522,-1.6522,-1.6522,-1.6522,-1.6522,-1.6522,-1.6522,-1.6999,-1.74,-1.74,-1.7852,-1.8405,-1.8908,-1.9581,-2.021,-2.0729,-2.1941,-2.2452,-2.1744,-2.2831,-2.3319,-2.2754,-2.3246,-2.3595,-2.3595,-2.3595,-2.3595,-2.3595,-2.3595,-2.3595,-2.3595,-2.4283,-2.491,-2.56,-2.5615,-2.5615,-2.5615,-2.5615,-2.5974,-2.6557,-2.5899,-2.6363,-2.7565,-2.6856,-2.7352,-2.8386,-2.7659,-2.8561,-3.0194,-2.9469,-3.0009,-3.1089,-0.4519,-0.4519,-0.4519,-0.4519,-0.4519,-0.4519,-0.4519,-0.4519,-0.4791,-0.566,-0.5764,-0.6578,-0.8586,-0.9853,-1.0624,-1.0624,-1.0624,-1.0477,-1.006,-1.004,-0.9666,-0.8844,-0.9145,-0.9165,-0.8818,-0.8804,-0.9218,-1.0028,-0.9614,-0.9969,-1.1015,-1.0568,-1.0517,-1.0813,-1.1375,-1.194,-1.2608,-1.2822,-1.2881,-1.2881,-1.2881,-1.2881,-1.2881,-1.2881,-1.2881,-1.2881,-1.2881,-1.2881,-1.2881,-1.2881,-1.2881,-1.2881,-1.2881,-1.289,-1.289,-1.289,-1.3092,-1.3253,-1.3252,-1.3642,-1.4365,-1.5555,-1.5864,-1.5964,-1.6423,-1.6522,-1.6635,-1.7036,-1.7124,-1.725,-1.7626,-1.8154,-1.853,-1.853,-1.8982,-1.9384,-1.9547,-1.9712,-2.0115,-2.0733,-2.1126,-2.1452,-2.1663,-2.2483,-2.2875,-2.2694,-2.3246,-2.3595,-2.3595,-2.3595,-2.3595,-2.3595,-2.3595,-2.3595,-2.3595,-2.4283,-2.4686,-2.4881,-2.539,-2.5615,-2.563,-2.6093,-2.6408,-2.6602,-2.6871,-2.6946,-2.6901,-2.7171,-2.6988,-2.6544,-2.727,-2.7874,-2.8313,-2.8107,-2.8763,-2.9679,-0.4519,-0.4519,-0.4519,-0.4519,-0.4519,-0.4519,-0.4519,-0.4519,-0.4519,-0.4519,-0.4519,-0.5171,-0.6902,-0.7974,-0.8455,-0.8193,-0.9649,-1.0624,-1.0624,-1.0127,-0.9546,-0.8838,-0.8804,-0.8804,-0.8804,-0.8804,-0.8804,-0.8804,-0.8804,-0.9211,-1.002,-0.9976,-1.0007,-1.0012,-1.032,-1.0736,-1.1301,-1.1651,-1.2049,-1.2363,-1.2363,-1.2569,-1.2881,-1.2881,-1.2881,-1.2881,-1.2881,-1.2881,-1.2881,-1.2881,-1.2881,-1.2881,-1.2881,-1.2881,-1.2881,-1.2881,-1.2881,-1.29,-1.2926,-1.3158,-1.3695,-1.4641,-1.5096,-1.5468,-1.6276,-1.6458,-1.672,-1.7543,-1.7714,-1.7815,-1.8141,-1.8656,-1.8983,-1.8983,-1.9459,-1.9798,-1.9798,-1.9798,-1.9952,-2.0359,-2.066,-2.0832,-2.0953,-2.1771,-2.23,-2.23,-2.2651,-2.2935,-2.3231,-2.3246,-2.3363,-2.3595,-2.3595,-2.3595,-2.3595,-2.4014,-2.4223,-2.4223,-2.4896,-2.5076,-2.4837,-2.551,-2.5809,-2.5839,-2.6243,-2.6333,-2.6243,-2.6632,-2.6333,-2.5689,-2.6482,-2.6944,-2.7084,-2.7084,-2.7688,-2.8404,-0.446,-0.4519,-0.4519,-0.4519,-0.4519,-0.4519,-0.4519,-0.4519,-0.4519,-0.4519,-0.4519,-0.4519,-0.4519,-0.5013,-0.5123,-0.4567,-0.7914,-1.0145,-1.0408,-0.9406,-0.8804,-0.8804,-0.8804,-0.8804,-0.8804,-0.8804,-0.8804,-0.8804,-0.8804,-0.8804,-0.8824,-0.9459,-0.9472,-0.8958,-0.8858,-0.8804,-0.8857,-0.971,-1.0517,-1.1283,-1.1283,-1.1801,-1.2676,-1.2725,-1.2725,-1.2725,-1.2774,-1.2774,-1.2822,-1.2881,-1.2881,-1.2881,-1.2881,-1.2881,-1.2881,-1.2881,-1.2881,-1.2881,-1.2881,-1.2881,-1.3017,-1.36,-1.4186,-1.4877,-1.6021,-1.6314,-1.6679,-1.7892,-1.8172,-1.8196,-1.8342,-1.8756,-1.9046,-1.9046,-1.9497,-1.9798,-1.9798,-1.9798,-1.9798,-1.9798,-2.0346,-2.0446,-1.985,-2.089,-2.1649,-2.1697,-2.1697,-2.1946,-2.2603,-2.2603,-2.2875,-2.3406,-2.3508,-2.3508,-2.3508,-2.3551,-2.3595,-2.361,-2.4238,-2.4238,-2.3714,-2.4343,-2.4612,-2.4672,-2.4672,-2.5016,-2.5525,-2.5585,-2.557,-2.5525,-2.5585,-2.594,-2.6435,-2.6373,-2.6718,-2.7112,-0.4015,-0.4519,-0.4519,-0.4519,-0.4519,-0.4519,-0.4519,-0.4519,-0.4519,-0.4519,-0.4519,-0.4519,-0.4519,-0.4635,-0.4663,-0.4529,-0.5305,-0.6808,-0.902,-0.8951,-0.8804,-0.8804,-0.8804,-0.8804,-0.8804,-0.8804,-0.8804,-0.8804,-0.8804,-0.8804,-0.8831,-0.988,-1.0362,-1.014,-0.9218,-0.8804,-0.8804,-0.9008,-0.9211,-0.9368,-0.9368,-0.9976,-1.083,-1.1124,-1.1275,-1.1325,-1.1832,-1.203,-1.2129,-1.2715,-1.2881,-1.2881,-1.2881,-1.2881,-1.2881,-1.2881,-1.2881,-1.2881,-1.2881,-1.2881,-1.2929,-1.3055,-1.3401,-1.406,-1.5248,-1.5559,-1.6012,-1.7635,-1.7989,-1.826,-1.9271,-1.956,-1.9635,-1.9635,-1.9723,-1.9798,-1.9798,-1.9798,-1.9798,-1.9798,-1.9952,-1.9952,-1.9798,-2.0534,-2.121,-2.1649,-2.1697,-2.1744,-2.1899,-2.1899,-2.1993,-2.2132,-2.262,-2.2875,-2.2875,-2.3377,-2.3595,-2.3595,-2.3744,-2.4029,-2.4418,-2.4507,-2.4911,-2.539,-2.539,-2.5181,-2.4836,-2.539,-2.53,-2.4851,-2.5405,-2.5693,-2.5711,-2.5198,-2.5372,-2.5806,-0.2065,-0.2343,-0.2788,-0.4239,-0.4519,-0.4519,-0.4519,-0.4519,-0.4519,-0.4519,-0.4519,-0.4519,-0.4519,-0.4519,-0.4519,-0.4519,-0.4519,-0.5117,-0.6632,-0.674,-0.674,-0.674,-0.8043,-0.8804,-0.8804,-0.8804,-0.8804,-0.8804,-0.8804,-0.8804,-0.8831,-1.0067,-1.0261,-0.9699,-0.9078,-0.8804,-0.8804,-0.8804,-0.8804,-0.8804,-0.8804,-0.9361,-1.0218,-1.0415,-1.061,-1.0864,-1.1216,-1.1493,-1.1787,-1.2645,-1.291,-1.291,-1.29,-1.2881,-1.2881,-1.2881,-1.2881,-1.2881,-1.2881,-1.2881,-1.2881,-1.2881,-1.3253,-1.3871,-1.4985,-1.5452,-1.6027,-1.7455,-1.7774,-1.8067,-1.9101,-1.9254,-1.9371,-1.9747,-1.9798,-1.9798,-1.9798,-1.9798,-1.9798,-1.9798,-1.9798,-1.9798,-1.9798,-2.0105,-2.0434,-2.0756,-2.0805,-2.0953,-2.1245,-2.1245,-2.1376,-2.1697,-2.2053,-2.2392,-2.2694,-2.2921,-2.3231,-2.361,-2.4045,-2.4209,-2.4163,-2.4807,-2.4941,-2.4657,-2.4657,-2.4462,-2.4163,-2.4507,-2.4448,-2.4178,-2.4522,-2.4657,-2.4612,-2.4268,-2.4294,-2.4536,0.0,0.0,-0.0783,-0.3289,-0.3735,-0.3901,-0.4405,-0.4519,-0.4519,-0.4519,-0.4519,-0.4519,-0.4519,-0.4519,-0.4519,-0.4519,-0.4519,-0.4519,-0.4519,-0.4519,-0.4519,-0.4519,-0.6794,-0.8043,-0.8043,-0.8533,-0.8804,-0.8804,-0.8804,-0.8804,-0.8831,-0.9806,-0.974,-0.8804,-0.8804,-0.8804,-0.8804,-0.8804,-0.8804,-0.8804,-0.8804,-0.9263,-0.9961,-0.9961,-1.0167,-1.0466,-1.0568,-1.0956,-1.1521,-1.2286,-1.2681,-1.2899,-1.29,-1.291,-1.291,-1.2881,-1.2881,-1.2881,-1.2881,-1.2881,-1.2891,-1.29,-1.3231,-1.3805,-1.4768,-1.5382,-1.6016,-1.7203,-1.7413,-1.7633,-1.8394,-1.8501,-1.8715,-1.9307,-1.9527,-1.9592,-1.9592,-1.9695,-1.9798,-1.9798,-1.9798,-1.9849,-1.9936,-1.9861,-1.9798,-1.9798,-1.9798,-2.0055,-2.0597,-2.0646,-2.0881,-2.1363,-2.1472,-2.1819,-2.2374,-2.2529,-2.2876,-2.3406,-2.4581,-2.4672,-2.3861,-2.4837,-2.4657,-2.3595,-2.3595,-2.3595,-2.3595,-2.3595,-2.3595,-2.3595,-2.3595,-2.3595,-2.3595,-2.3595,-2.3595,-2.3595,0.0,0.0,-0.0112,-0.056,-0.0616,-0.1507,-0.4125,-0.4519,-0.4519,-0.4519,-0.4519,-0.4519,-0.4519,-0.4519,-0.4519,-0.4519,-0.4519,-0.4519,-0.4519,-0.4519,-0.4519,-0.4519,-0.4897,-0.5062,-0.5062,-0.7503,-0.8804,-0.8804,-0.8804,-0.8804,-0.8811,-0.8971,-0.8958,-0.8804,-0.8804,-0.8804,-0.8804,-0.8804,-0.8804,-0.8804,-0.8804,-0.8857,-0.9008,-0.9008,-0.9008,-0.9159,-0.9718,-1.0332,-1.0898,-1.1015,-1.1917,-1.2916,-1.2899,-1.2889,-1.2909,-1.291,-1.2881,-1.2881,-1.2881,-1.2881,-1.29,-1.2922,-1.2935,-1.3245,-1.4041,-1.4603,-1.5285,-1.6388,-1.6652,-1.6866,-1.7633,-1.7743,-1.7797,-1.7907,-1.8436,-1.8874,-1.8874,-1.9423,-1.9798,-1.9798,-1.9798,-1.9999,-2.0555,-2.01,-1.9798,-1.9798,-1.9798,-1.985,-1.9952,-1.9952,-1.9952,-2.0042,-2.0633,-2.0993,-2.1042,-2.2615,-2.3138,-2.2579,-2.4552,-2.5257,-2.4795,-2.4189,-2.3774,-2.3595,-2.3595,-2.3595,-2.3595,-2.3595,-2.3595,-2.3595,-2.3595,-2.3595,-2.3595,-2.3595,-2.3595,-2.3595,0.0,0.0,0.0,0.0,0.0,-0.0448,-0.1786,-0.2009,-0.2565,-0.4294,-0.4519,-0.4519,-0.4519,-0.4519,-0.4519,-0.4519,-0.4519,-0.4519,-0.4519,-0.4519,-0.4519,-0.4519,-0.4519,-0.4519,-0.4519,-0.5764,-0.6416,-0.6416,-0.799,-0.8804,-0.8804,-0.8804,-0.8804,-0.8804,-0.8804,-0.8804,-0.8804,-0.8804,-0.8804,-0.8804,-0.8804,-0.8804,-0.8804,-0.8804,-0.8804,-0.8857,-0.9159,-0.9444,-0.9666,-0.968,-1.012,-1.0618,-1.063,-1.1645,-1.2915,-1.2916,-1.2889,-1.288,-1.288,-1.2908,-1.2884,-1.2916,-1.359,-1.4402,-1.4746,-1.4971,-1.53,-1.5766,-1.5864,-1.6083,-1.6866,-1.6978,-1.7146,-1.7523,-1.7841,-1.807,-1.807,-1.8715,-1.9482,-2.0185,-2.0564,-2.0727,-2.0718,-2.0439,-2.015,-1.9823,-1.9798,-1.9798,-1.9798,-1.9798,-1.9798,-1.9798,-2.0105,-2.0218,-2.025,-2.1075,-2.2024,-2.3062,-2.3327,-2.3703,-2.423,-2.4564,-2.431,-2.3595,-2.3595,-2.3595,-2.3595,-2.3595,-2.3595,-2.3595,-2.3595,-2.3595,-2.3595,-2.3595,-2.3595,-2.3595]}]]